Wetterdaten: Freitag, 20.03.2026
Datum Zeit Temp. I. Temp. A. Feuchte I. Feuchte A. Luftdruck Regen Wind Richtung Richtung Sonnenschein Solar Taupunkt Windchill Windböen
20.03.2026 00:00 22,1 °C 2,0 °C 49 % 84 % 1022,4 hPa 0,0 l/m² 0,0 km/h (0 Bft) W 268 ° 0 min 0 W/m² -0,4 °C 2,0 °C 0,0 km/h (0 Bft)
20.03.2026 00:02 22,1 °C 1,9 °C 49 % 84 % 1022,4 hPa 0,0 l/m² 0,0 km/h (0 Bft) W 268 ° 0 min 0 W/m² -0,5 °C 1,9 °C 0,0 km/h (0 Bft)
20.03.2026 00:03 22,1 °C 1,9 °C 49 % 84 % 1022,4 hPa 0,0 l/m² 0,0 km/h (0 Bft) W 268 ° 0 min 0 W/m² -0,5 °C 1,9 °C 0,0 km/h (0 Bft)
20.03.2026 00:04 22,1 °C 1,9 °C 49 % 84 % 1022,4 hPa 0,0 l/m² 0,0 km/h (0 Bft) W 268 ° 0 min 0 W/m² -0,5 °C 1,9 °C 0,0 km/h (0 Bft)
20.03.2026 00:06 22,1 °C 1,9 °C 49 % 85 % 1022,4 hPa 0,0 l/m² 0,0 km/h (0 Bft) W 268 ° 0 min 0 W/m² -0,3 °C 1,9 °C 0,0 km/h (0 Bft)
20.03.2026 00:08 22,1 °C 1,9 °C 49 % 85 % 1022,5 hPa 0,0 l/m² 0,0 km/h (0 Bft) W 268 ° 0 min 0 W/m² -0,3 °C 1,9 °C 0,0 km/h (0 Bft)
20.03.2026 00:10 22,1 °C 1,9 °C 49 % 85 % 1022,5 hPa 0,0 l/m² 0,0 km/h (0 Bft) W 267 ° 0 min 0 W/m² -0,3 °C 1,9 °C 0,0 km/h (0 Bft)
20.03.2026 00:11 22,1 °C 1,9 °C 49 % 85 % 1022,4 hPa 0,0 l/m² 0,0 km/h (0 Bft) W 263 ° 0 min 0 W/m² -0,3 °C 1,9 °C 0,0 km/h (0 Bft)
20.03.2026 00:13 22,1 °C 1,9 °C 49 % 85 % 1022,5 hPa 0,0 l/m² 1,6 km/h (1 Bft) W-SW 255 ° 0 min 0 W/m² -0,3 °C 1,9 °C 3,2 km/h (1 Bft)
20.03.2026 00:15 22,1 °C 1,9 °C 49 % 85 % 1022,5 hPa 0,0 l/m² 1,5 km/h (1 Bft) W-SW 254 ° 0 min 0 W/m² -0,3 °C 1,9 °C 3,2 km/h (1 Bft)
20.03.2026 00:17 22,1 °C 1,9 °C 49 % 85 % 1022,5 hPa 0,0 l/m² 2,0 km/h (1 Bft) W-SW 253 ° 0 min 0 W/m² -0,3 °C 1,9 °C 3,2 km/h (1 Bft)
20.03.2026 00:19 22,1 °C 1,9 °C 49 % 85 % 1022,5 hPa 0,0 l/m² 2,9 km/h (1 Bft) W-SW 251 ° 0 min 0 W/m² -0,3 °C 1,9 °C 4,8 km/h (1 Bft)
20.03.2026 00:21 22,1 °C 1,9 °C 49 % 86 % 1022,5 hPa 0,0 l/m² 2,8 km/h (1 Bft) W-SW 251 ° 0 min 0 W/m² -0,2 °C 1,9 °C 4,8 km/h (1 Bft)
20.03.2026 00:22 22,1 °C 1,9 °C 49 % 86 % 1022,5 hPa 0,0 l/m² 3,3 km/h (1 Bft) W-SW 251 ° 0 min 0 W/m² -0,2 °C 1,9 °C 4,8 km/h (1 Bft)
20.03.2026 00:23 22,1 °C 1,9 °C 49 % 86 % 1022,5 hPa 0,0 l/m² 3,8 km/h (1 Bft) W-SW 251 ° 0 min 0 W/m² -0,2 °C 1,9 °C 4,8 km/h (1 Bft)
20.03.2026 00:25 22,1 °C 1,8 °C 49 % 86 % 1022,5 hPa 0,0 l/m² 2,5 km/h (1 Bft) W-SW 250 ° 0 min 0 W/m² -0,3 °C 1,8 °C 4,8 km/h (1 Bft)
20.03.2026 00:27 22,1 °C 1,9 °C 49 % 86 % 1022,5 hPa 0,0 l/m² 2,0 km/h (1 Bft) W-SW 250 ° 0 min 0 W/m² -0,2 °C 1,9 °C 3,2 km/h (1 Bft)
20.03.2026 00:29 22,1 °C 1,8 °C 49 % 86 % 1022,5 hPa 0,0 l/m² 2,2 km/h (1 Bft) W-SW 250 ° 0 min 0 W/m² -0,3 °C 1,8 °C 3,2 km/h (1 Bft)
20.03.2026 00:31 22,1 °C 1,8 °C 49 % 86 % 1022,5 hPa 0,0 l/m² 1,7 km/h (1 Bft) W-SW 250 ° 0 min 0 W/m² -0,3 °C 1,8 °C 3,2 km/h (1 Bft)
20.03.2026 00:32 22,1 °C 1,8 °C 49 % 86 % 1022,5 hPa 0,0 l/m² 1,5 km/h (1 Bft) W-SW 250 ° 0 min 0 W/m² -0,3 °C 1,8 °C 3,2 km/h (1 Bft)
20.03.2026 00:33 22,1 °C 1,8 °C 49 % 86 % 1022,5 hPa 0,0 l/m² 1,7 km/h (1 Bft) W-SW 250 ° 0 min 0 W/m² -0,3 °C 1,8 °C 3,2 km/h (1 Bft)
20.03.2026 00:35 22,1 °C 1,8 °C 49 % 86 % 1022,5 hPa 0,0 l/m² 2,2 km/h (1 Bft) W-SW 250 ° 0 min 0 W/m² -0,3 °C 1,8 °C 3,2 km/h (1 Bft)
20.03.2026 00:37 22,1 °C 1,8 °C 49 % 86 % 1022,4 hPa 0,0 l/m² 2,5 km/h (1 Bft) W-SW 249 ° 0 min 0 W/m² -0,3 °C 1,8 °C 3,2 km/h (1 Bft)
20.03.2026 00:39 22,1 °C 1,8 °C 49 % 86 % 1022,5 hPa 0,0 l/m² 1,9 km/h (1 Bft) W-SW 249 ° 0 min 0 W/m² -0,3 °C 1,8 °C 3,2 km/h (1 Bft)
20.03.2026 00:41 22,1 °C 1,8 °C 49 % 86 % 1022,5 hPa 0,0 l/m² 0,2 km/h (0 Bft) W-SW 249 ° 0 min 0 W/m² -0,3 °C 1,8 °C 1,6 km/h (1 Bft)
20.03.2026 00:42 22,1 °C 1,8 °C 49 % 86 % 1022,5 hPa 0,0 l/m² 0,0 km/h (0 Bft) W-SW 249 ° 0 min 0 W/m² -0,3 °C 1,8 °C 0,0 km/h (0 Bft)
20.03.2026 00:43 22,1 °C 1,7 °C 49 % 86 % 1022,5 hPa 0,0 l/m² 0,0 km/h (0 Bft) W-SW 249 ° 0 min 0 W/m² -0,4 °C 1,7 °C 0,0 km/h (0 Bft)
20.03.2026 00:46 22,1 °C 1,7 °C 49 % 86 % 1022,5 hPa 0,0 l/m² 0,5 km/h (0 Bft) W-SW 250 ° 0 min 0 W/m² -0,4 °C 1,7 °C 1,6 km/h (1 Bft)
20.03.2026 00:48 22,1 °C 1,7 °C 49 % 87 % 1022,5 hPa 0,0 l/m² 1,0 km/h (0 Bft) W-SW 250 ° 0 min 0 W/m² -0,2 °C 1,7 °C 3,2 km/h (1 Bft)
20.03.2026 00:50 22,1 °C 1,7 °C 49 % 87 % 1022,5 hPa 0,0 l/m² 1,7 km/h (1 Bft) W-SW 250 ° 0 min 0 W/m² -0,2 °C 1,7 °C 3,2 km/h (1 Bft)
20.03.2026 00:52 22,1 °C 1,6 °C 49 % 87 % 1022,5 hPa 0,0 l/m² 2,0 km/h (1 Bft) W-SW 250 ° 0 min 0 W/m² -0,3 °C 1,6 °C 3,2 km/h (1 Bft)
20.03.2026 00:53 22,1 °C 1,6 °C 49 % 87 % 1022,5 hPa 0,0 l/m² 0,2 km/h (0 Bft) W-SW 250 ° 0 min 0 W/m² -0,3 °C 1,6 °C 1,6 km/h (1 Bft)
20.03.2026 00:54 22,2 °C 1,6 °C 49 % 87 % 1022,4 hPa 0,0 l/m² 0,4 km/h (0 Bft) W-SW 250 ° 0 min 0 W/m² -0,3 °C 1,6 °C 1,6 km/h (1 Bft)
20.03.2026 00:56 22,1 °C 1,6 °C 49 % 87 % 1022,5 hPa 0,0 l/m² 0,0 km/h (0 Bft) W-SW 250 ° 0 min 0 W/m² -0,3 °C 1,6 °C 1,6 km/h (1 Bft)
20.03.2026 00:58 22,1 °C 1,6 °C 49 % 87 % 1022,5 hPa 0,0 l/m² 0,0 km/h (0 Bft) W-SW 250 ° 0 min 0 W/m² -0,3 °C 1,6 °C 0,0 km/h (0 Bft)
20.03.2026 01:00 22,1 °C 1,6 °C 49 % 87 % 1022,5 hPa 0,0 l/m² 0,3 km/h (0 Bft) W-SW 250 ° 0 min 0 W/m² -0,3 °C 1,6 °C 1,6 km/h (1 Bft)
20.03.2026 01:02 22,1 °C 1,5 °C 49 % 87 % 1022,5 hPa 0,0 l/m² 0,1 km/h (0 Bft) W-SW 250 ° 0 min 0 W/m² -0,4 °C 1,5 °C 1,6 km/h (1 Bft)
20.03.2026 01:03 22,1 °C 1,6 °C 49 % 87 % 1022,5 hPa 0,0 l/m² 0,0 km/h (0 Bft) W-SW 250 ° 0 min 0 W/m² -0,3 °C 1,6 °C 0,0 km/h (0 Bft)
20.03.2026 01:05 22,1 °C 1,5 °C 49 % 87 % 1022,5 hPa 0,0 l/m² 0,0 km/h (0 Bft) W-SW 250 ° 0 min 0 W/m² -0,4 °C 1,5 °C 1,6 km/h (1 Bft)
20.03.2026 01:07 22,1 °C 1,5 °C 48 % 87 % 1022,5 hPa 0,0 l/m² 0,4 km/h (0 Bft) W-SW 250 ° 0 min 0 W/m² -0,4 °C 1,5 °C 1,6 km/h (1 Bft)
20.03.2026 01:09 22,1 °C 1,4 °C 48 % 87 % 1022,5 hPa 0,0 l/m² 0,0 km/h (0 Bft) W-SW 250 ° 0 min 0 W/m² -0,5 °C 1,4 °C 1,6 km/h (1 Bft)
20.03.2026 01:11 22,1 °C 1,4 °C 48 % 87 % 1022,4 hPa 0,0 l/m² 0,6 km/h (0 Bft) W-SW 250 ° 0 min 0 W/m² -0,5 °C 1,4 °C 1,6 km/h (1 Bft)
20.03.2026 01:12 22,1 °C 1,4 °C 48 % 87 % 1022,5 hPa 0,0 l/m² 0,3 km/h (0 Bft) W-SW 250 ° 0 min 0 W/m² -0,5 °C 1,4 °C 1,6 km/h (1 Bft)
20.03.2026 01:13 22,1 °C 1,4 °C 49 % 87 % 1022,5 hPa 0,0 l/m² 0,0 km/h (0 Bft) W-SW 250 ° 0 min 0 W/m² -0,5 °C 1,4 °C 0,0 km/h (0 Bft)
20.03.2026 01:15 22,1 °C 1,4 °C 48 % 87 % 1022,5 hPa 0,0 l/m² 0,1 km/h (0 Bft) W-SW 250 ° 0 min 0 W/m² -0,5 °C 1,4 °C 1,6 km/h (1 Bft)
20.03.2026 01:16 22,1 °C 1,4 °C 48 % 87 % 1022,5 hPa 0,0 l/m² 0,2 km/h (0 Bft) W-SW 250 ° 0 min 0 W/m² -0,5 °C 1,4 °C 1,6 km/h (1 Bft)
20.03.2026 01:17 22,1 °C 1,4 °C 48 % 87 % 1022,5 hPa 0,0 l/m² 1,8 km/h (1 Bft) W-SW 250 ° 0 min 0 W/m² -0,5 °C 1,4 °C 3,2 km/h (1 Bft)
20.03.2026 01:18 22,1 °C 1,4 °C 48 % 87 % 1022,5 hPa 0,0 l/m² 1,8 km/h (1 Bft) W-SW 250 ° 0 min 0 W/m² -0,5 °C 1,4 °C 3,2 km/h (1 Bft)
20.03.2026 01:20 22,1 °C 1,4 °C 48 % 87 % 1022,4 hPa 0,0 l/m² 2,5 km/h (1 Bft) W-SW 248 ° 0 min 0 W/m² -0,5 °C 1,4 °C 3,2 km/h (1 Bft)
20.03.2026 01:23 22,1 °C 1,3 °C 48 % 88 % 1022,3 hPa 0,0 l/m² 2,6 km/h (1 Bft) W-SW 248 ° 0 min 0 W/m² -0,5 °C 1,3 °C 3,2 km/h (1 Bft)
20.03.2026 01:25 22,1 °C 1,3 °C 48 % 88 % 1022,3 hPa 0,0 l/m² 2,4 km/h (1 Bft) W-SW 248 ° 0 min 0 W/m² -0,5 °C 1,3 °C 3,2 km/h (1 Bft)
20.03.2026 01:27 22,1 °C 1,3 °C 48 % 88 % 1022,2 hPa 0,0 l/m² 2,2 km/h (1 Bft) W-SW 248 ° 0 min 0 W/m² -0,5 °C 1,3 °C 3,2 km/h (1 Bft)
20.03.2026 01:29 22,1 °C 1,3 °C 48 % 88 % 1022,2 hPa 0,0 l/m² 1,6 km/h (1 Bft) W-SW 248 ° 0 min 0 W/m² -0,5 °C 1,3 °C 3,2 km/h (1 Bft)
20.03.2026 01:31 22,2 °C 1,3 °C 48 % 88 % 1022,2 hPa 0,0 l/m² 1,0 km/h (0 Bft) W-SW 248 ° 0 min 0 W/m² -0,5 °C 1,3 °C 1,6 km/h (1 Bft)
20.03.2026 01:32 22,1 °C 1,3 °C 48 % 88 % 1022,2 hPa 0,0 l/m² 1,3 km/h (1 Bft) W-SW 248 ° 0 min 0 W/m² -0,5 °C 1,3 °C 3,2 km/h (1 Bft)
20.03.2026 01:33 22,1 °C 1,3 °C 48 % 88 % 1022,1 hPa 0,0 l/m² 1,5 km/h (1 Bft) W-SW 248 ° 0 min 0 W/m² -0,5 °C 1,3 °C 1,6 km/h (1 Bft)
20.03.2026 01:35 22,2 °C 1,3 °C 48 % 88 % 1022,1 hPa 0,0 l/m² 1,3 km/h (1 Bft) W-SW 249 ° 0 min 0 W/m² -0,5 °C 1,3 °C 3,2 km/h (1 Bft)
20.03.2026 01:36 22,2 °C 1,3 °C 48 % 88 % 1022,1 hPa 0,0 l/m² 1,0 km/h (0 Bft) W-SW 249 ° 0 min 0 W/m² -0,5 °C 1,3 °C 1,6 km/h (1 Bft)
20.03.2026 01:37 22,1 °C 1,3 °C 48 % 88 % 1021,9 hPa 0,0 l/m² 1,0 km/h (0 Bft) W-SW 249 ° 0 min 0 W/m² -0,5 °C 1,3 °C 3,2 km/h (1 Bft)
20.03.2026 01:38 22,1 °C 1,3 °C 48 % 88 % 1021,9 hPa 0,0 l/m² 2,8 km/h (1 Bft) W-SW 249 ° 0 min 0 W/m² -0,5 °C 1,3 °C 3,2 km/h (1 Bft)
20.03.2026 01:40 22,1 °C 1,3 °C 48 % 88 % 1022,0 hPa 0,0 l/m² 2,5 km/h (1 Bft) W-SW 249 ° 0 min 0 W/m² -0,5 °C 1,3 °C 3,2 km/h (1 Bft)
20.03.2026 01:43 22,1 °C 1,3 °C 48 % 88 % 1021,9 hPa 0,0 l/m² 2,1 km/h (1 Bft) W-SW 249 ° 0 min 0 W/m² -0,5 °C 1,3 °C 3,2 km/h (1 Bft)
20.03.2026 01:45 22,1 °C 1,3 °C 48 % 88 % 1021,9 hPa 0,0 l/m² 2,1 km/h (1 Bft) W-SW 250 ° 0 min 0 W/m² -0,5 °C 1,3 °C 3,2 km/h (1 Bft)
20.03.2026 01:47 22,1 °C 1,3 °C 48 % 88 % 1021,9 hPa 0,0 l/m² 0,1 km/h (0 Bft) W-SW 250 ° 0 min 0 W/m² -0,5 °C 1,3 °C 1,6 km/h (1 Bft)
20.03.2026 01:49 22,1 °C 1,3 °C 48 % 88 % 1021,9 hPa 0,0 l/m² 0,0 km/h (0 Bft) W-SW 249 ° 0 min 0 W/m² -0,5 °C 1,3 °C 0,0 km/h (0 Bft)
20.03.2026 01:51 22,1 °C 1,3 °C 48 % 88 % 1021,8 hPa 0,0 l/m² 0,0 km/h (0 Bft) W-SW 250 ° 0 min 0 W/m² -0,5 °C 1,3 °C 0,0 km/h (0 Bft)
20.03.2026 01:52 22,1 °C 1,3 °C 48 % 88 % 1021,9 hPa 0,0 l/m² 0,0 km/h (0 Bft) W-SW 250 ° 0 min 0 W/m² -0,5 °C 1,3 °C 0,0 km/h (0 Bft)
20.03.2026 01:53 22,1 °C 1,2 °C 48 % 88 % 1021,9 hPa 0,0 l/m² 0,0 km/h (0 Bft) W-SW 250 ° 0 min 0 W/m² -0,6 °C 1,2 °C 0,0 km/h (0 Bft)
20.03.2026 01:55 22,1 °C 1,2 °C 48 % 88 % 1021,9 hPa 0,0 l/m² 0,0 km/h (0 Bft) W-SW 249 ° 0 min 0 W/m² -0,6 °C 1,2 °C 0,0 km/h (0 Bft)
20.03.2026 01:56 22,1 °C 1,2 °C 48 % 88 % 1021,9 hPa 0,0 l/m² 0,0 km/h (0 Bft) W-SW 250 ° 0 min 0 W/m² -0,6 °C 1,2 °C 0,0 km/h (0 Bft)
20.03.2026 01:57 22,1 °C 1,2 °C 48 % 88 % 1021,9 hPa 0,0 l/m² 0,0 km/h (0 Bft) W-SW 250 ° 0 min 0 W/m² -0,6 °C 1,2 °C 0,0 km/h (0 Bft)
20.03.2026 01:58 22,1 °C 1,2 °C 48 % 88 % 1021,9 hPa 0,0 l/m² 0,0 km/h (0 Bft) W-SW 249 ° 0 min 0 W/m² -0,6 °C 1,2 °C 0,0 km/h (0 Bft)
20.03.2026 02:00 22,1 °C 1,1 °C 48 % 88 % 1021,8 hPa 0,0 l/m² 0,0 km/h (0 Bft) W-SW 250 ° 0 min 0 W/m² -0,7 °C 1,1 °C 0,0 km/h (0 Bft)
20.03.2026 02:03 22,1 °C 1,1 °C 48 % 88 % 1021,9 hPa 0,0 l/m² 0,0 km/h (0 Bft) W-SW 250 ° 0 min 0 W/m² -0,7 °C 1,1 °C 0,0 km/h (0 Bft)
20.03.2026 02:05 22,1 °C 1,1 °C 48 % 88 % 1021,9 hPa 0,0 l/m² 0,0 km/h (0 Bft) W-SW 250 ° 0 min 0 W/m² -0,7 °C 1,1 °C 0,0 km/h (0 Bft)
20.03.2026 02:07 22,1 °C 1,0 °C 48 % 88 % 1021,9 hPa 0,0 l/m² 0,0 km/h (0 Bft) W-SW 250 ° 0 min 0 W/m² -0,8 °C 1,0 °C 0,0 km/h (0 Bft)
20.03.2026 02:09 22,1 °C 1,0 °C 48 % 88 % 1021,8 hPa 0,0 l/m² 0,1 km/h (0 Bft) W-SW 250 ° 0 min 0 W/m² -0,8 °C 1,0 °C 1,6 km/h (1 Bft)
20.03.2026 02:11 22,1 °C 1,0 °C 48 % 88 % 1021,8 hPa 0,0 l/m² 0,4 km/h (0 Bft) W-SW 250 ° 0 min 0 W/m² -0,8 °C 1,0 °C 3,2 km/h (1 Bft)
20.03.2026 02:12 22,1 °C 1,0 °C 49 % 88 % 1021,8 hPa 0,0 l/m² 0,0 km/h (0 Bft) W-SW 250 ° 0 min 0 W/m² -0,8 °C 1,0 °C 0,0 km/h (0 Bft)
20.03.2026 02:13 22,1 °C 0,9 °C 49 % 88 % 1021,8 hPa 0,0 l/m² 0,0 km/h (0 Bft) W-SW 250 ° 0 min 0 W/m² -0,9 °C 0,9 °C 0,0 km/h (0 Bft)
20.03.2026 02:15 22,1 °C 0,9 °C 48 % 88 % 1021,7 hPa 0,0 l/m² 1,6 km/h (1 Bft) W-SW 250 ° 0 min 0 W/m² -0,9 °C 0,9 °C 3,2 km/h (1 Bft)
20.03.2026 02:16 22,1 °C 0,9 °C 48 % 88 % 1021,7 hPa 0,0 l/m² 2,3 km/h (1 Bft) W-SW 250 ° 0 min 0 W/m² -0,9 °C 0,9 °C 3,2 km/h (1 Bft)
20.03.2026 02:17 22,1 °C 0,9 °C 48 % 88 % 1021,7 hPa 0,0 l/m² 2,8 km/h (1 Bft) W-SW 250 ° 0 min 0 W/m² -0,9 °C 0,9 °C 4,8 km/h (1 Bft)
20.03.2026 02:18 22,1 °C 0,9 °C 48 % 88 % 1021,7 hPa 0,0 l/m² 2,5 km/h (1 Bft) W-SW 250 ° 0 min 0 W/m² -0,9 °C 0,9 °C 3,2 km/h (1 Bft)
20.03.2026 02:20 22,1 °C 0,9 °C 48 % 88 % 1021,6 hPa 0,0 l/m² 2,2 km/h (1 Bft) W-SW 250 ° 0 min 0 W/m² -0,9 °C 0,9 °C 3,2 km/h (1 Bft)
20.03.2026 02:23 22,1 °C 0,9 °C 48 % 88 % 1021,6 hPa 0,0 l/m² 2,3 km/h (1 Bft) W-SW 251 ° 0 min 0 W/m² -0,9 °C 0,9 °C 3,2 km/h (1 Bft)
20.03.2026 02:25 22,1 °C 0,9 °C 48 % 88 % 1021,6 hPa 0,0 l/m² 0,3 km/h (0 Bft) W-SW 251 ° 0 min 0 W/m² -0,9 °C 0,9 °C 3,2 km/h (1 Bft)
20.03.2026 02:27 22,1 °C 0,9 °C 49 % 88 % 1021,6 hPa 0,0 l/m² 0,1 km/h (0 Bft) W-SW 251 ° 0 min 0 W/m² -0,9 °C 0,9 °C 1,6 km/h (1 Bft)
20.03.2026 02:29 22,1 °C 0,9 °C 49 % 88 % 1021,7 hPa 0,0 l/m² 0,0 km/h (0 Bft) W-SW 251 ° 0 min 0 W/m² -0,9 °C 0,9 °C 0,0 km/h (0 Bft)
20.03.2026 02:31 22,1 °C 0,9 °C 49 % 88 % 1021,6 hPa 0,0 l/m² 0,0 km/h (0 Bft) W-SW 251 ° 0 min 0 W/m² -0,9 °C 0,9 °C 0,0 km/h (0 Bft)
20.03.2026 02:32 22,1 °C 0,8 °C 48 % 88 % 1021,6 hPa 0,0 l/m² 0,0 km/h (0 Bft) W-SW 251 ° 0 min 0 W/m² -1,0 °C 0,8 °C 0,0 km/h (0 Bft)
20.03.2026 02:33 22,1 °C 0,8 °C 48 % 88 % 1021,6 hPa 0,0 l/m² 0,0 km/h (0 Bft) W-SW 251 ° 0 min 0 W/m² -1,0 °C 0,8 °C 0,0 km/h (0 Bft)
20.03.2026 02:35 22,1 °C 0,8 °C 49 % 89 % 1021,6 hPa 0,0 l/m² 0,0 km/h (0 Bft) W-SW 251 ° 0 min 0 W/m² -0,8 °C 0,8 °C 0,0 km/h (0 Bft)
20.03.2026 02:36 22,1 °C 0,8 °C 48 % 89 % 1021,5 hPa 0,0 l/m² 0,0 km/h (0 Bft) W-SW 251 ° 0 min 0 W/m² -0,8 °C 0,8 °C 0,0 km/h (0 Bft)
20.03.2026 02:37 22,1 °C 0,8 °C 49 % 89 % 1021,5 hPa 0,0 l/m² 0,0 km/h (0 Bft) W-SW 251 ° 0 min 0 W/m² -0,8 °C 0,8 °C 0,0 km/h (0 Bft)
20.03.2026 02:38 22,1 °C 0,8 °C 49 % 89 % 1021,6 hPa 0,0 l/m² 0,0 km/h (0 Bft) W-SW 251 ° 0 min 0 W/m² -0,8 °C 0,8 °C 0,0 km/h (0 Bft)
20.03.2026 02:40 22,1 °C 0,8 °C 49 % 89 % 1021,4 hPa 0,0 l/m² 0,0 km/h (0 Bft) W-SW 251 ° 0 min 0 W/m² -0,8 °C 0,8 °C 0,0 km/h (0 Bft)
20.03.2026 02:43 22,1 °C 0,8 °C 49 % 89 % 1021,5 hPa 0,0 l/m² 0,0 km/h (0 Bft) W-SW 251 ° 0 min 0 W/m² -0,8 °C 0,8 °C 0,0 km/h (0 Bft)
20.03.2026 02:45 22,1 °C 0,8 °C 48 % 89 % 1021,5 hPa 0,0 l/m² 0,0 km/h (0 Bft) W-SW 251 ° 0 min 0 W/m² -0,8 °C 0,8 °C 0,0 km/h (0 Bft)
20.03.2026 02:47 22,1 °C 0,7 °C 49 % 89 % 1021,4 hPa 0,0 l/m² 0,0 km/h (0 Bft) W-SW 251 ° 0 min 0 W/m² -0,9 °C 0,7 °C 0,0 km/h (0 Bft)
20.03.2026 02:49 22,1 °C 0,7 °C 49 % 89 % 1021,4 hPa 0,0 l/m² 0,0 km/h (0 Bft) W-SW 251 ° 0 min 0 W/m² -0,9 °C 0,7 °C 0,0 km/h (0 Bft)
20.03.2026 02:51 22,0 °C 0,7 °C 49 % 89 % 1021,4 hPa 0,0 l/m² 0,0 km/h (0 Bft) W-SW 251 ° 0 min 0 W/m² -0,9 °C 0,7 °C 0,0 km/h (0 Bft)
20.03.2026 02:52 22,1 °C 0,7 °C 49 % 89 % 1021,3 hPa 0,0 l/m² 0,0 km/h (0 Bft) W-SW 251 ° 0 min 0 W/m² -0,9 °C 0,7 °C 0,0 km/h (0 Bft)
20.03.2026 02:53 22,0 °C 0,7 °C 49 % 89 % 1021,3 hPa 0,0 l/m² 0,0 km/h (0 Bft) W-SW 251 ° 0 min 0 W/m² -0,9 °C 0,7 °C 0,0 km/h (0 Bft)
20.03.2026 02:55 22,0 °C 0,7 °C 49 % 89 % 1021,4 hPa 0,0 l/m² 0,8 km/h (0 Bft) W-SW 251 ° 0 min 0 W/m² -0,9 °C 0,7 °C 1,6 km/h (1 Bft)
20.03.2026 02:56 22,0 °C 0,7 °C 49 % 89 % 1021,4 hPa 0,0 l/m² 1,0 km/h (0 Bft) W-SW 251 ° 0 min 0 W/m² -0,9 °C 0,7 °C 3,2 km/h (1 Bft)
20.03.2026 02:57 22,0 °C 0,7 °C 49 % 89 % 1021,4 hPa 0,0 l/m² 2,0 km/h (1 Bft) W-SW 251 ° 0 min 0 W/m² -0,9 °C 0,7 °C 3,2 km/h (1 Bft)
20.03.2026 02:58 22,1 °C 0,7 °C 49 % 89 % 1021,3 hPa 0,0 l/m² 2,3 km/h (1 Bft) W-SW 251 ° 0 min 0 W/m² -0,9 °C 0,7 °C 3,2 km/h (1 Bft)
20.03.2026 03:00 22,0 °C 0,7 °C 49 % 89 % 1021,4 hPa 0,0 l/m² 2,1 km/h (1 Bft) W-SW 251 ° 0 min 0 W/m² -0,9 °C 0,7 °C 3,2 km/h (1 Bft)
20.03.2026 03:02 22,0 °C 0,7 °C 49 % 89 % 1021,4 hPa 0,0 l/m² 2,0 km/h (1 Bft) W-SW 251 ° 0 min 0 W/m² -0,9 °C 0,7 °C 3,2 km/h (1 Bft)
20.03.2026 03:03 22,0 °C 0,7 °C 48 % 89 % 1021,3 hPa 0,0 l/m² 2,0 km/h (1 Bft) W-SW 251 ° 0 min 0 W/m² -0,9 °C 0,7 °C 3,2 km/h (1 Bft)
20.03.2026 03:04 22,0 °C 0,6 °C 49 % 89 % 1021,3 hPa 0,0 l/m² 0,7 km/h (0 Bft) W-SW 251 ° 0 min 0 W/m² -1,0 °C 0,6 °C 1,6 km/h (1 Bft)
20.03.2026 03:05 22,0 °C 0,6 °C 49 % 89 % 1021,3 hPa 0,0 l/m² 0,0 km/h (0 Bft) W-SW 251 ° 0 min 0 W/m² -1,0 °C 0,6 °C 0,0 km/h (0 Bft)
20.03.2026 03:06 22,0 °C 0,6 °C 49 % 89 % 1021,3 hPa 0,0 l/m² 0,0 km/h (0 Bft) W-SW 251 ° 0 min 0 W/m² -1,0 °C 0,6 °C 0,0 km/h (0 Bft)
20.03.2026 03:08 22,0 °C 0,6 °C 48 % 89 % 1021,1 hPa 0,0 l/m² 0,0 km/h (0 Bft) W-SW 251 ° 0 min 0 W/m² -1,0 °C 0,6 °C 0,0 km/h (0 Bft)
20.03.2026 03:09 22,0 °C 0,6 °C 48 % 89 % 1021,1 hPa 0,0 l/m² 0,0 km/h (0 Bft) W-SW 251 ° 0 min 0 W/m² -1,0 °C 0,6 °C 0,0 km/h (0 Bft)
20.03.2026 03:10 22,0 °C 0,6 °C 49 % 89 % 1021,1 hPa 0,0 l/m² 0,0 km/h (0 Bft) W-SW 251 ° 0 min 0 W/m² -1,0 °C 0,6 °C 0,0 km/h (0 Bft)
20.03.2026 03:12 22,0 °C 0,6 °C 49 % 89 % 1021,1 hPa 0,0 l/m² 0,0 km/h (0 Bft) W-SW 251 ° 0 min 0 W/m² -1,0 °C 0,6 °C 0,0 km/h (0 Bft)
20.03.2026 03:13 22,0 °C 0,6 °C 48 % 89 % 1021,1 hPa 0,0 l/m² 0,0 km/h (0 Bft) W-SW 251 ° 0 min 0 W/m² -1,0 °C 0,6 °C 0,0 km/h (0 Bft)
20.03.2026 03:14 22,0 °C 0,6 °C 49 % 89 % 1021,1 hPa 0,0 l/m² 0,0 km/h (0 Bft) W-SW 251 ° 0 min 0 W/m² -1,0 °C 0,6 °C 0,0 km/h (0 Bft)
20.03.2026 03:15 22,0 °C 0,6 °C 49 % 89 % 1021,0 hPa 0,0 l/m² 0,0 km/h (0 Bft) W-SW 251 ° 0 min 0 W/m² -1,0 °C 0,6 °C 0,0 km/h (0 Bft)
20.03.2026 03:16 22,0 °C 0,6 °C 49 % 89 % 1021,0 hPa 0,0 l/m² 0,0 km/h (0 Bft) W-SW 251 ° 0 min 0 W/m² -1,0 °C 0,6 °C 0,0 km/h (0 Bft)
20.03.2026 03:17 22,0 °C 0,5 °C 49 % 89 % 1021,0 hPa 0,0 l/m² 0,0 km/h (0 Bft) W-SW 251 ° 0 min 0 W/m² -1,1 °C 0,5 °C 0,0 km/h (0 Bft)
20.03.2026 03:18 22,0 °C 0,6 °C 49 % 89 % 1021,0 hPa 0,0 l/m² 0,0 km/h (0 Bft) W-SW 251 ° 0 min 0 W/m² -1,0 °C 0,6 °C 0,0 km/h (0 Bft)
20.03.2026 03:19 22,0 °C 0,5 °C 49 % 89 % 1021,0 hPa 0,0 l/m² 0,0 km/h (0 Bft) W-SW 251 ° 0 min 0 W/m² -1,1 °C 0,5 °C 0,0 km/h (0 Bft)
20.03.2026 03:21 22,0 °C 0,5 °C 48 % 89 % 1021,0 hPa 0,0 l/m² 0,0 km/h (0 Bft) W-SW 251 ° 0 min 0 W/m² -1,1 °C 0,5 °C 0,0 km/h (0 Bft)
20.03.2026 03:23 22,0 °C 0,4 °C 48 % 89 % 1021,0 hPa 0,0 l/m² 0,0 km/h (0 Bft) W-SW 251 ° 0 min 0 W/m² -1,2 °C 0,4 °C 0,0 km/h (0 Bft)
20.03.2026 03:24 22,0 °C 0,4 °C 48 % 89 % 1021,0 hPa 0,0 l/m² 0,0 km/h (0 Bft) W-SW 251 ° 0 min 0 W/m² -1,2 °C 0,4 °C 0,0 km/h (0 Bft)
20.03.2026 03:25 22,0 °C 0,4 °C 48 % 89 % 1021,0 hPa 0,0 l/m² 0,0 km/h (0 Bft) W-SW 251 ° 0 min 0 W/m² -1,2 °C 0,4 °C 0,0 km/h (0 Bft)
20.03.2026 03:26 22,0 °C 0,4 °C 48 % 89 % 1021,0 hPa 0,0 l/m² 0,2 km/h (0 Bft) W-SW 251 ° 0 min 0 W/m² -1,2 °C 0,4 °C 1,6 km/h (1 Bft)
20.03.2026 03:27 22,0 °C 0,5 °C 48 % 89 % 1020,9 hPa 0,0 l/m² 0,1 km/h (0 Bft) W-SW 251 ° 0 min 0 W/m² -1,1 °C 0,5 °C 1,6 km/h (1 Bft)
20.03.2026 03:28 22,0 °C 0,4 °C 48 % 89 % 1020,9 hPa 0,0 l/m² 0,0 km/h (0 Bft) W-SW 251 ° 0 min 0 W/m² -1,2 °C 0,4 °C 0,0 km/h (0 Bft)
20.03.2026 03:29 22,0 °C 0,4 °C 48 % 89 % 1021,0 hPa 0,0 l/m² 0,0 km/h (0 Bft) W-SW 251 ° 0 min 0 W/m² -1,2 °C 0,4 °C 0,0 km/h (0 Bft)
20.03.2026 03:31 22,0 °C 0,4 °C 48 % 89 % 1020,8 hPa 0,0 l/m² 0,0 km/h (0 Bft) W-SW 251 ° 0 min 0 W/m² -1,2 °C 0,4 °C 0,0 km/h (0 Bft)
20.03.2026 03:33 22,0 °C 0,4 °C 48 % 89 % 1020,8 hPa 0,0 l/m² 0,0 km/h (0 Bft) W-SW 251 ° 0 min 0 W/m² -1,2 °C 0,4 °C 0,0 km/h (0 Bft)
20.03.2026 03:34 22,1 °C 0,4 °C 48 % 89 % 1020,8 hPa 0,0 l/m² 0,0 km/h (0 Bft) W-SW 251 ° 0 min 0 W/m² -1,2 °C 0,4 °C 0,0 km/h (0 Bft)
20.03.2026 03:35 22,1 °C 0,4 °C 48 % 89 % 1020,7 hPa 0,0 l/m² 0,0 km/h (0 Bft) W-SW 251 ° 0 min 0 W/m² -1,2 °C 0,4 °C 0,0 km/h (0 Bft)
20.03.2026 03:36 22,1 °C 0,4 °C 48 % 89 % 1020,7 hPa 0,0 l/m² 0,0 km/h (0 Bft) W-SW 251 ° 0 min 0 W/m² -1,2 °C 0,4 °C 0,0 km/h (0 Bft)
20.03.2026 03:37 22,0 °C 0,4 °C 48 % 89 % 1020,7 hPa 0,0 l/m² 0,0 km/h (0 Bft) W-SW 251 ° 0 min 0 W/m² -1,2 °C 0,4 °C 0,0 km/h (0 Bft)
20.03.2026 03:38 22,1 °C 0,3 °C 48 % 89 % 1020,7 hPa 0,0 l/m² 0,0 km/h (0 Bft) W-SW 251 ° 0 min 0 W/m² -1,3 °C 0,3 °C 0,0 km/h (0 Bft)
20.03.2026 03:39 22,1 °C 0,3 °C 48 % 89 % 1020,7 hPa 0,0 l/m² 0,0 km/h (0 Bft) W-SW 251 ° 0 min 0 W/m² -1,3 °C 0,3 °C 0,0 km/h (0 Bft)
20.03.2026 03:41 22,1 °C 0,3 °C 48 % 89 % 1020,7 hPa 0,0 l/m² 0,0 km/h (0 Bft) W-SW 251 ° 0 min 0 W/m² -1,3 °C 0,3 °C 0,0 km/h (0 Bft)
20.03.2026 03:43 22,1 °C 0,3 °C 48 % 89 % 1020,8 hPa 0,0 l/m² 0,0 km/h (0 Bft) W-SW 251 ° 0 min 0 W/m² -1,3 °C 0,3 °C 0,0 km/h (0 Bft)
20.03.2026 03:44 22,0 °C 0,2 °C 48 % 89 % 1020,7 hPa 0,0 l/m² 0,0 km/h (0 Bft) W-SW 251 ° 0 min 0 W/m² -1,4 °C 0,2 °C 0,0 km/h (0 Bft)
20.03.2026 03:46 22,1 °C 0,2 °C 48 % 89 % 1020,7 hPa 0,0 l/m² 0,0 km/h (0 Bft) W-SW 251 ° 0 min 0 W/m² -1,4 °C 0,2 °C 0,0 km/h (0 Bft)
20.03.2026 03:47 22,0 °C 0,2 °C 48 % 89 % 1020,7 hPa 0,0 l/m² 0,0 km/h (0 Bft) W-SW 251 ° 0 min 0 W/m² -1,4 °C 0,2 °C 0,0 km/h (0 Bft)
20.03.2026 03:48 22,1 °C 0,2 °C 48 % 89 % 1020,7 hPa 0,0 l/m² 0,0 km/h (0 Bft) W-SW 251 ° 0 min 0 W/m² -1,4 °C 0,2 °C 0,0 km/h (0 Bft)
20.03.2026 03:49 22,1 °C 0,2 °C 48 % 89 % 1020,8 hPa 0,0 l/m² 0,0 km/h (0 Bft) W-SW 251 ° 0 min 0 W/m² -1,4 °C 0,2 °C 0,0 km/h (0 Bft)
20.03.2026 03:51 22,1 °C 0,2 °C 48 % 89 % 1020,8 hPa 0,0 l/m² 0,0 km/h (0 Bft) W-SW 251 ° 0 min 0 W/m² -1,4 °C 0,2 °C 0,0 km/h (0 Bft)
20.03.2026 03:53 22,1 °C 0,1 °C 48 % 89 % 1020,8 hPa 0,0 l/m² 0,0 km/h (0 Bft) W-SW 251 ° 0 min 0 W/m² -1,5 °C 0,1 °C 0,0 km/h (0 Bft)
20.03.2026 03:54 22,1 °C 0,2 °C 48 % 89 % 1020,8 hPa 0,0 l/m² 0,0 km/h (0 Bft) W-SW 251 ° 0 min 0 W/m² -1,4 °C 0,2 °C 0,0 km/h (0 Bft)
20.03.2026 03:55 22,1 °C 0,1 °C 48 % 89 % 1020,8 hPa 0,0 l/m² 0,0 km/h (0 Bft) W-SW 251 ° 0 min 0 W/m² -1,5 °C 0,1 °C 0,0 km/h (0 Bft)
20.03.2026 03:56 22,1 °C 0,1 °C 48 % 89 % 1020,8 hPa 0,0 l/m² 0,0 km/h (0 Bft) W-SW 251 ° 0 min 0 W/m² -1,5 °C 0,1 °C 0,0 km/h (0 Bft)
20.03.2026 03:57 22,1 °C 0,1 °C 48 % 89 % 1020,8 hPa 0,0 l/m² 0,0 km/h (0 Bft) W-SW 251 ° 0 min 0 W/m² -1,5 °C 0,1 °C 0,0 km/h (0 Bft)
20.03.2026 03:58 22,1 °C 0,1 °C 48 % 89 % 1020,9 hPa 0,0 l/m² 0,0 km/h (0 Bft) W-SW 251 ° 0 min 0 W/m² -1,5 °C 0,1 °C 0,0 km/h (0 Bft)
20.03.2026 03:59 22,1 °C 0,1 °C 48 % 89 % 1020,9 hPa 0,0 l/m² 0,0 km/h (0 Bft) W-SW 251 ° 0 min 0 W/m² -1,5 °C 0,1 °C 0,0 km/h (0 Bft)
20.03.2026 04:01 22,1 °C 0,1 °C 48 % 89 % 1020,9 hPa 0,0 l/m² 0,0 km/h (0 Bft) W-SW 251 ° 0 min 0 W/m² -1,5 °C 0,1 °C 0,0 km/h (0 Bft)
20.03.2026 04:03 22,1 °C 0,1 °C 48 % 89 % 1021,0 hPa 0,0 l/m² 0,0 km/h (0 Bft) W-SW 251 ° 0 min 0 W/m² -1,5 °C 0,1 °C 0,0 km/h (0 Bft)
20.03.2026 04:04 22,1 °C 0,1 °C 48 % 89 % 1020,8 hPa 0,0 l/m² 0,0 km/h (0 Bft) W-SW 251 ° 0 min 0 W/m² -1,5 °C 0,1 °C 0,0 km/h (0 Bft)
20.03.2026 04:05 22,1 °C 0,0 °C 48 % 89 % 1021,0 hPa 0,0 l/m² 0,0 km/h (0 Bft) W-SW 251 ° 0 min 0 W/m² -1,6 °C 0,0 °C 0,0 km/h (0 Bft)
20.03.2026 04:06 22,1 °C 0,0 °C 48 % 89 % 1021,0 hPa 0,0 l/m² 0,0 km/h (0 Bft) W-SW 251 ° 0 min 0 W/m² -1,6 °C 0,0 °C 0,0 km/h (0 Bft)
20.03.2026 04:07 22,1 °C -0,1 °C 48 % 89 % 1020,9 hPa 0,0 l/m² 0,0 km/h (0 Bft) W-SW 251 ° 0 min 0 W/m² -1,7 °C -0,1 °C 0,0 km/h (0 Bft)
20.03.2026 04:08 22,1 °C -0,1 °C 48 % 89 % 1020,9 hPa 0,0 l/m² 0,0 km/h (0 Bft) W-SW 251 ° 0 min 0 W/m² -1,7 °C -0,1 °C 0,0 km/h (0 Bft)
20.03.2026 04:09 22,1 °C -0,1 °C 48 % 88 % 1021,0 hPa 0,0 l/m² 0,0 km/h (0 Bft) W-SW 251 ° 0 min 0 W/m² -1,8 °C -0,1 °C 0,0 km/h (0 Bft)
20.03.2026 04:11 22,1 °C -0,1 °C 48 % 89 % 1021,0 hPa 0,0 l/m² 0,0 km/h (0 Bft) W-SW 251 ° 0 min 0 W/m² -1,7 °C -0,1 °C 0,0 km/h (0 Bft)
20.03.2026 04:13 22,1 °C -0,2 °C 48 % 89 % 1021,0 hPa 0,0 l/m² 0,0 km/h (0 Bft) W-SW 251 ° 0 min 0 W/m² -1,8 °C -0,2 °C 0,0 km/h (0 Bft)
20.03.2026 04:14 22,1 °C -0,2 °C 48 % 89 % 1021,0 hPa 0,0 l/m² 0,0 km/h (0 Bft) W-SW 251 ° 0 min 0 W/m² -1,8 °C -0,2 °C 0,0 km/h (0 Bft)
20.03.2026 04:15 22,1 °C -0,2 °C 48 % 89 % 1021,0 hPa 0,0 l/m² 0,0 km/h (0 Bft) W-SW 251 ° 0 min 0 W/m² -1,8 °C -0,2 °C 0,0 km/h (0 Bft)
20.03.2026 04:17 22,1 °C -0,2 °C 48 % 89 % 1021,0 hPa 0,0 l/m² 0,8 km/h (0 Bft) W-SW 251 ° 0 min 0 W/m² -1,8 °C -0,2 °C 1,6 km/h (1 Bft)
20.03.2026 04:18 22,1 °C -0,2 °C 48 % 89 % 1020,9 hPa 0,0 l/m² 2,1 km/h (1 Bft) W-SW 250 ° 0 min 0 W/m² -1,8 °C -0,2 °C 3,2 km/h (1 Bft)
20.03.2026 04:19 22,1 °C -0,3 °C 48 % 89 % 1020,9 hPa 0,0 l/m² 1,0 km/h (0 Bft) W-SW 250 ° 0 min 0 W/m² -1,9 °C -0,3 °C 3,2 km/h (1 Bft)
20.03.2026 04:20 22,1 °C -0,3 °C 48 % 89 % 1020,9 hPa 0,0 l/m² 0,4 km/h (0 Bft) W-SW 250 ° 0 min 0 W/m² -1,9 °C -0,3 °C 1,6 km/h (1 Bft)
20.03.2026 04:22 22,1 °C -0,3 °C 48 % 89 % 1020,9 hPa 0,0 l/m² 0,0 km/h (0 Bft) W-SW 250 ° 0 min 0 W/m² -1,9 °C -0,3 °C 0,0 km/h (0 Bft)
20.03.2026 04:23 22,1 °C -0,3 °C 48 % 89 % 1020,8 hPa 0,0 l/m² 0,0 km/h (0 Bft) W-SW 250 ° 0 min 0 W/m² -1,9 °C -0,3 °C 0,0 km/h (0 Bft)
20.03.2026 04:24 22,1 °C -0,3 °C 48 % 89 % 1020,8 hPa 0,0 l/m² 0,0 km/h (0 Bft) W-SW 250 ° 0 min 0 W/m² -1,9 °C -0,3 °C 0,0 km/h (0 Bft)
20.03.2026 04:25 22,1 °C -0,3 °C 48 % 89 % 1020,8 hPa 0,0 l/m² 0,0 km/h (0 Bft) W-SW 250 ° 0 min 0 W/m² -1,9 °C -0,3 °C 0,0 km/h (0 Bft)
20.03.2026 04:26 22,1 °C -0,3 °C 48 % 89 % 1020,8 hPa 0,0 l/m² 0,0 km/h (0 Bft) W-SW 250 ° 0 min 0 W/m² -1,9 °C -0,3 °C 0,0 km/h (0 Bft)
20.03.2026 04:27 22,1 °C -0,3 °C 48 % 89 % 1020,8 hPa 0,0 l/m² 0,0 km/h (0 Bft) W-SW 250 ° 0 min 0 W/m² -1,9 °C -0,3 °C 0,0 km/h (0 Bft)
20.03.2026 04:28 22,1 °C -0,3 °C 48 % 89 % 1020,8 hPa 0,0 l/m² 0,0 km/h (0 Bft) W-SW 250 ° 0 min 0 W/m² -1,9 °C -0,3 °C 0,0 km/h (0 Bft)
20.03.2026 04:29 22,1 °C -0,3 °C 48 % 89 % 1020,8 hPa 0,0 l/m² 0,0 km/h (0 Bft) W-SW 250 ° 0 min 0 W/m² -1,9 °C -0,3 °C 0,0 km/h (0 Bft)
20.03.2026 04:31 22,1 °C -0,3 °C 48 % 89 % 1020,7 hPa 0,0 l/m² 0,0 km/h (0 Bft) W-SW 250 ° 0 min 0 W/m² -1,9 °C -0,3 °C 0,0 km/h (0 Bft)
20.03.2026 04:33 22,1 °C -0,4 °C 48 % 89 % 1020,7 hPa 0,0 l/m² 0,0 km/h (0 Bft) W-SW 250 ° 0 min 0 W/m² -2,0 °C -0,4 °C 0,0 km/h (0 Bft)
20.03.2026 04:34 22,1 °C -0,4 °C 48 % 89 % 1020,7 hPa 0,0 l/m² 0,0 km/h (0 Bft) W-SW 250 ° 0 min 0 W/m² -2,0 °C -0,4 °C 0,0 km/h (0 Bft)
20.03.2026 04:35 22,1 °C -0,4 °C 48 % 89 % 1020,6 hPa 0,0 l/m² 0,0 km/h (0 Bft) W-SW 250 ° 0 min 0 W/m² -2,0 °C -0,4 °C 0,0 km/h (0 Bft)
20.03.2026 04:37 22,1 °C -0,4 °C 48 % 89 % 1020,8 hPa 0,0 l/m² 0,0 km/h (0 Bft) W-SW 250 ° 0 min 0 W/m² -2,0 °C -0,4 °C 0,0 km/h (0 Bft)
20.03.2026 04:38 22,1 °C -0,4 °C 48 % 89 % 1020,8 hPa 0,0 l/m² 0,0 km/h (0 Bft) W-SW 250 ° 0 min 0 W/m² -2,0 °C -0,4 °C 0,0 km/h (0 Bft)
20.03.2026 04:39 22,1 °C -0,4 °C 48 % 89 % 1020,7 hPa 0,0 l/m² 0,0 km/h (0 Bft) W-SW 250 ° 0 min 0 W/m² -2,0 °C -0,4 °C 0,0 km/h (0 Bft)
20.03.2026 04:41 22,1 °C -0,4 °C 48 % 89 % 1020,8 hPa 0,0 l/m² 0,0 km/h (0 Bft) W-SW 250 ° 0 min 0 W/m² -2,0 °C -0,4 °C 0,0 km/h (0 Bft)
20.03.2026 04:43 22,1 °C -0,4 °C 48 % 89 % 1020,8 hPa 0,0 l/m² 0,0 km/h (0 Bft) W-SW 250 ° 0 min 0 W/m² -2,0 °C -0,4 °C 0,0 km/h (0 Bft)
20.03.2026 04:44 22,1 °C -0,4 °C 48 % 89 % 1020,8 hPa 0,0 l/m² 0,0 km/h (0 Bft) W-SW 250 ° 0 min 0 W/m² -2,0 °C -0,4 °C 0,0 km/h (0 Bft)
20.03.2026 04:45 22,1 °C -0,4 °C 48 % 89 % 1020,8 hPa 0,0 l/m² 0,0 km/h (0 Bft) W-SW 250 ° 0 min 0 W/m² -2,0 °C -0,4 °C 0,0 km/h (0 Bft)
20.03.2026 04:46 22,1 °C -0,4 °C 48 % 89 % 1020,8 hPa 0,0 l/m² 0,0 km/h (0 Bft) W-SW 250 ° 0 min 0 W/m² -2,0 °C -0,4 °C 0,0 km/h (0 Bft)
20.03.2026 04:47 22,1 °C -0,4 °C 48 % 89 % 1020,8 hPa 0,0 l/m² 0,0 km/h (0 Bft) W-SW 250 ° 0 min 0 W/m² -2,0 °C -0,4 °C 0,0 km/h (0 Bft)
20.03.2026 04:48 22,1 °C -0,4 °C 48 % 89 % 1020,8 hPa 0,0 l/m² 0,0 km/h (0 Bft) W-SW 250 ° 0 min 0 W/m² -2,0 °C -0,4 °C 0,0 km/h (0 Bft)
20.03.2026 04:49 22,1 °C -0,4 °C 48 % 89 % 1020,8 hPa 0,0 l/m² 0,0 km/h (0 Bft) W-SW 250 ° 0 min 0 W/m² -2,0 °C -0,4 °C 0,0 km/h (0 Bft)
20.03.2026 04:51 22,1 °C -0,4 °C 48 % 89 % 1020,8 hPa 0,0 l/m² 0,0 km/h (0 Bft) W-SW 250 ° 0 min 0 W/m² -2,0 °C -0,4 °C 0,0 km/h (0 Bft)
20.03.2026 04:53 22,2 °C -0,4 °C 48 % 89 % 1020,7 hPa 0,0 l/m² 0,0 km/h (0 Bft) W-SW 250 ° 0 min 0 W/m² -2,0 °C -0,4 °C 0,0 km/h (0 Bft)
20.03.2026 04:54 22,2 °C -0,4 °C 48 % 89 % 1020,7 hPa 0,0 l/m² 0,0 km/h (0 Bft) W-SW 250 ° 0 min 0 W/m² -2,0 °C -0,4 °C 0,0 km/h (0 Bft)
20.03.2026 04:55 22,2 °C -0,4 °C 48 % 89 % 1020,6 hPa 0,0 l/m² 0,0 km/h (0 Bft) W-SW 250 ° 0 min 0 W/m² -2,0 °C -0,4 °C 0,0 km/h (0 Bft)
20.03.2026 04:56 22,1 °C -0,4 °C 48 % 89 % 1020,6 hPa 0,0 l/m² 0,0 km/h (0 Bft) W-SW 250 ° 0 min 0 W/m² -2,0 °C -0,4 °C 0,0 km/h (0 Bft)
20.03.2026 04:57 22,1 °C -0,4 °C 48 % 89 % 1020,6 hPa 0,0 l/m² 0,0 km/h (0 Bft) W-SW 250 ° 0 min 0 W/m² -2,0 °C -0,4 °C 0,0 km/h (0 Bft)
20.03.2026 04:58 22,2 °C -0,4 °C 48 % 89 % 1020,6 hPa 0,0 l/m² 0,0 km/h (0 Bft) W-SW 250 ° 0 min 0 W/m² -2,0 °C -0,4 °C 0,0 km/h (0 Bft)
20.03.2026 04:59 22,2 °C -0,4 °C 49 % 89 % 1020,5 hPa 0,0 l/m² 0,0 km/h (0 Bft) W-SW 250 ° 0 min 0 W/m² -2,0 °C -0,4 °C 0,0 km/h (0 Bft)
20.03.2026 05:00 22,2 °C -0,4 °C 49 % 89 % 1020,5 hPa 0,0 l/m² 0,0 km/h (0 Bft) W-SW 250 ° 0 min 0 W/m² -2,0 °C -0,4 °C 0,0 km/h (0 Bft)
20.03.2026 05:02 22,2 °C -0,4 °C 49 % 89 % 1020,5 hPa 0,0 l/m² 0,0 km/h (0 Bft) W-SW 250 ° 0 min 0 W/m² -2,0 °C -0,4 °C 0,0 km/h (0 Bft)
20.03.2026 05:03 22,2 °C -0,4 °C 49 % 89 % 1020,6 hPa 0,0 l/m² 0,0 km/h (0 Bft) W-SW 250 ° 0 min 0 W/m² -2,0 °C -0,4 °C 0,0 km/h (0 Bft)
20.03.2026 05:04 22,2 °C -0,4 °C 49 % 89 % 1020,5 hPa 0,0 l/m² 0,0 km/h (0 Bft) W-SW 250 ° 0 min 0 W/m² -2,0 °C -0,4 °C 0,0 km/h (0 Bft)
20.03.2026 05:05 22,2 °C -0,4 °C 49 % 89 % 1020,5 hPa 0,0 l/m² 0,0 km/h (0 Bft) W-SW 250 ° 0 min 0 W/m² -2,0 °C -0,4 °C 0,0 km/h (0 Bft)
20.03.2026 05:06 22,2 °C -0,4 °C 49 % 89 % 1020,5 hPa 0,0 l/m² 0,0 km/h (0 Bft) W-SW 250 ° 0 min 0 W/m² -2,0 °C -0,4 °C 0,0 km/h (0 Bft)
20.03.2026 05:08 22,2 °C -0,4 °C 49 % 89 % 1020,5 hPa 0,0 l/m² 0,0 km/h (0 Bft) W-SW 250 ° 0 min 0 W/m² -2,0 °C -0,4 °C 0,0 km/h (0 Bft)
20.03.2026 05:09 22,2 °C -0,4 °C 49 % 90 % 1020,5 hPa 0,0 l/m² 0,0 km/h (0 Bft) W-SW 250 ° 0 min 0 W/m² -1,8 °C -0,4 °C 0,0 km/h (0 Bft)
20.03.2026 05:11 22,2 °C -0,4 °C 49 % 90 % 1020,6 hPa 0,0 l/m² 0,0 km/h (0 Bft) W-SW 250 ° 0 min 0 W/m² -1,8 °C -0,4 °C 0,0 km/h (0 Bft)
20.03.2026 05:13 22,2 °C -0,4 °C 49 % 90 % 1020,5 hPa 0,0 l/m² 0,0 km/h (0 Bft) W-SW 250 ° 0 min 0 W/m² -1,8 °C -0,4 °C 0,0 km/h (0 Bft)
20.03.2026 05:14 22,2 °C -0,4 °C 49 % 90 % 1020,6 hPa 0,0 l/m² 0,0 km/h (0 Bft) W-SW 257 ° 0 min 0 W/m² -1,8 °C -0,4 °C 0,0 km/h (0 Bft)
20.03.2026 05:15 22,2 °C -0,4 °C 48 % 90 % 1020,6 hPa 0,0 l/m² 0,0 km/h (0 Bft) W 262 ° 0 min 0 W/m² -1,8 °C -0,4 °C 0,0 km/h (0 Bft)
20.03.2026 05:16 22,2 °C -0,5 °C 48 % 89 % 1020,6 hPa 0,0 l/m² 0,0 km/h (0 Bft) W 263 ° 0 min 0 W/m² -2,1 °C -0,5 °C 0,0 km/h (0 Bft)
20.03.2026 05:17 22,2 °C -0,5 °C 48 % 89 % 1020,6 hPa 0,0 l/m² 0,0 km/h (0 Bft) W 265 ° 0 min 0 W/m² -2,1 °C -0,5 °C 0,0 km/h (0 Bft)
20.03.2026 05:18 22,2 °C -0,5 °C 48 % 89 % 1020,6 hPa 0,0 l/m² 0,0 km/h (0 Bft) W 265 ° 0 min 0 W/m² -2,1 °C -0,5 °C 0,0 km/h (0 Bft)
20.03.2026 05:19 22,2 °C -0,4 °C 47 % 89 % 1020,7 hPa 0,0 l/m² 0,0 km/h (0 Bft) W 265 ° 0 min 0 W/m² -2,0 °C -0,4 °C 0,0 km/h (0 Bft)
20.03.2026 05:21 22,2 °C -0,4 °C 47 % 90 % 1020,8 hPa 0,0 l/m² 0,0 km/h (0 Bft) W 275 ° 0 min 0 W/m² -1,8 °C -0,4 °C 0,0 km/h (0 Bft)
20.03.2026 05:23 22,1 °C -0,4 °C 47 % 89 % 1020,8 hPa 0,0 l/m² 0,0 km/h (0 Bft) W-NW 292 ° 0 min 0 W/m² -2,0 °C -0,4 °C 0,0 km/h (0 Bft)
20.03.2026 05:24 22,1 °C -0,5 °C 47 % 89 % 1020,8 hPa 0,0 l/m² 3,6 km/h (1 Bft) W-NW 295 ° 0 min 0 W/m² -2,1 °C -0,5 °C 4,8 km/h (1 Bft)
20.03.2026 05:25 22,2 °C -0,5 °C 47 % 89 % 1020,9 hPa 0,0 l/m² 3,0 km/h (1 Bft) W-NW 295 ° 0 min 0 W/m² -2,1 °C -0,5 °C 4,8 km/h (1 Bft)
20.03.2026 05:26 22,1 °C -0,5 °C 47 % 89 % 1020,8 hPa 0,0 l/m² 2,4 km/h (1 Bft) W-NW 295 ° 0 min 0 W/m² -2,1 °C -0,5 °C 4,8 km/h (1 Bft)
20.03.2026 05:27 22,1 °C -0,5 °C 47 % 90 % 1020,8 hPa 0,0 l/m² 2,4 km/h (1 Bft) W-NW 295 ° 0 min 0 W/m² -1,9 °C -0,5 °C 3,2 km/h (1 Bft)
20.03.2026 05:28 22,1 °C -0,5 °C 47 % 90 % 1020,8 hPa 0,0 l/m² 2,5 km/h (1 Bft) W-NW 295 ° 0 min 0 W/m² -1,9 °C -0,5 °C 3,2 km/h (1 Bft)
20.03.2026 05:29 22,2 °C -0,6 °C 47 % 90 % 1020,8 hPa 0,0 l/m² 2,0 km/h (1 Bft) W-NW 295 ° 0 min 0 W/m² -2,0 °C -0,6 °C 3,2 km/h (1 Bft)
20.03.2026 05:31 22,1 °C -0,6 °C 47 % 90 % 1020,7 hPa 0,0 l/m² 0,3 km/h (0 Bft) W-NW 295 ° 0 min 0 W/m² -2,0 °C -0,6 °C 3,2 km/h (1 Bft)
20.03.2026 05:33 22,1 °C -0,6 °C 47 % 90 % 1020,8 hPa 0,0 l/m² 0,0 km/h (0 Bft) W-NW 295 ° 0 min 0 W/m² -2,0 °C -0,6 °C 0,0 km/h (0 Bft)
20.03.2026 05:34 22,1 °C -0,5 °C 48 % 90 % 1020,7 hPa 0,0 l/m² 0,0 km/h (0 Bft) W-NW 295 ° 0 min 0 W/m² -1,9 °C -0,5 °C 0,0 km/h (0 Bft)
20.03.2026 05:35 22,1 °C -0,5 °C 47 % 90 % 1020,7 hPa 0,0 l/m² 0,0 km/h (0 Bft) W-NW 295 ° 0 min 0 W/m² -1,9 °C -0,5 °C 0,0 km/h (0 Bft)
20.03.2026 05:36 22,2 °C -0,6 °C 47 % 90 % 1020,7 hPa 0,0 l/m² 0,0 km/h (0 Bft) W-NW 295 ° 0 min 0 W/m² -2,0 °C -0,6 °C 0,0 km/h (0 Bft)
20.03.2026 05:37 22,2 °C -0,5 °C 48 % 90 % 1020,9 hPa 0,0 l/m² 0,0 km/h (0 Bft) W-NW 295 ° 0 min 0 W/m² -1,9 °C -0,5 °C 0,0 km/h (0 Bft)
20.03.2026 05:38 22,1 °C -0,6 °C 48 % 90 % 1020,8 hPa 0,0 l/m² 0,0 km/h (0 Bft) W-NW 295 ° 0 min 0 W/m² -2,0 °C -0,6 °C 0,0 km/h (0 Bft)
20.03.2026 05:39 22,1 °C -0,5 °C 48 % 90 % 1020,9 hPa 0,0 l/m² 0,0 km/h (0 Bft) W-NW 295 ° 0 min 0 W/m² -1,9 °C -0,5 °C 0,0 km/h (0 Bft)
20.03.2026 05:41 22,2 °C -0,5 °C 48 % 90 % 1020,8 hPa 0,0 l/m² 0,0 km/h (0 Bft) W-NW 295 ° 0 min 0 W/m² -1,9 °C -0,5 °C 0,0 km/h (0 Bft)
20.03.2026 05:43 22,1 °C -0,4 °C 48 % 90 % 1020,8 hPa 0,0 l/m² 0,0 km/h (0 Bft) W-NW 295 ° 0 min 0 W/m² -1,8 °C -0,4 °C 0,0 km/h (0 Bft)
20.03.2026 05:44 22,1 °C -0,4 °C 48 % 90 % 1020,8 hPa 0,0 l/m² 0,0 km/h (0 Bft) W-NW 295 ° 0 min 0 W/m² -1,8 °C -0,4 °C 0,0 km/h (0 Bft)
20.03.2026 05:45 22,1 °C -0,4 °C 48 % 90 % 1020,9 hPa 0,0 l/m² 0,0 km/h (0 Bft) W-NW 295 ° 0 min 0 W/m² -1,8 °C -0,4 °C 0,0 km/h (0 Bft)
20.03.2026 05:46 22,1 °C -0,4 °C 48 % 90 % 1020,9 hPa 0,0 l/m² 0,0 km/h (0 Bft) W-NW 295 ° 0 min 0 W/m² -1,8 °C -0,4 °C 0,0 km/h (0 Bft)
20.03.2026 05:47 22,1 °C -0,4 °C 48 % 90 % 1020,8 hPa 0,0 l/m² 0,0 km/h (0 Bft) W-NW 295 ° 0 min 0 W/m² -1,8 °C -0,4 °C 0,0 km/h (0 Bft)
20.03.2026 05:48 22,1 °C -0,4 °C 48 % 90 % 1020,9 hPa 0,0 l/m² 0,2 km/h (0 Bft) W-NW 295 ° 0 min 0 W/m² -1,8 °C -0,4 °C 1,6 km/h (1 Bft)
20.03.2026 05:49 22,1 °C -0,4 °C 48 % 90 % 1020,9 hPa 0,0 l/m² 0,0 km/h (0 Bft) W-NW 295 ° 0 min 0 W/m² -1,8 °C -0,4 °C 0,0 km/h (0 Bft)
20.03.2026 05:50 22,1 °C -0,4 °C 48 % 90 % 1021,0 hPa 0,0 l/m² 0,0 km/h (0 Bft) W-NW 295 ° 0 min 0 W/m² -1,8 °C -0,4 °C 0,0 km/h (0 Bft)
20.03.2026 05:52 22,1 °C -0,4 °C 48 % 90 % 1020,9 hPa 0,0 l/m² 0,0 km/h (0 Bft) W-NW 295 ° 0 min 0 W/m² -1,8 °C -0,4 °C 0,0 km/h (0 Bft)
20.03.2026 05:53 22,1 °C -0,4 °C 48 % 90 % 1020,9 hPa 0,0 l/m² 0,0 km/h (0 Bft) W-NW 295 ° 0 min 0 W/m² -1,8 °C -0,4 °C 0,0 km/h (0 Bft)
20.03.2026 05:54 22,1 °C -0,3 °C 48 % 90 % 1021,0 hPa 0,0 l/m² 0,0 km/h (0 Bft) W-NW 295 ° 0 min 0 W/m² -1,7 °C -0,3 °C 0,0 km/h (0 Bft)
20.03.2026 05:55 22,1 °C -0,3 °C 48 % 90 % 1021,1 hPa 0,0 l/m² 0,0 km/h (0 Bft) W-NW 295 ° 0 min 0 W/m² -1,7 °C -0,3 °C 0,0 km/h (0 Bft)
20.03.2026 05:56 22,1 °C -0,3 °C 48 % 90 % 1021,0 hPa 0,0 l/m² 0,0 km/h (0 Bft) W-NW 295 ° 0 min 0 W/m² -1,7 °C -0,3 °C 0,0 km/h (0 Bft)
20.03.2026 05:57 22,1 °C -0,3 °C 48 % 90 % 1021,1 hPa 0,0 l/m² 0,0 km/h (0 Bft) W-NW 295 ° 0 min 0 W/m² -1,7 °C -0,3 °C 0,0 km/h (0 Bft)
20.03.2026 05:58 22,1 °C -0,3 °C 48 % 90 % 1021,1 hPa 0,0 l/m² 0,0 km/h (0 Bft) W-NW 295 ° 0 min 0 W/m² -1,7 °C -0,3 °C 0,0 km/h (0 Bft)
20.03.2026 05:59 22,1 °C -0,3 °C 47 % 90 % 1021,0 hPa 0,0 l/m² 0,0 km/h (0 Bft) W-NW 295 ° 0 min 0 W/m² -1,7 °C -0,3 °C 0,0 km/h (0 Bft)
20.03.2026 06:01 22,1 °C -0,3 °C 47 % 90 % 1021,0 hPa 0,0 l/m² 0,0 km/h (0 Bft) W-NW 295 ° 0 min 0 W/m² -1,7 °C -0,3 °C 0,0 km/h (0 Bft)
20.03.2026 06:03 22,1 °C -0,3 °C 47 % 90 % 1021,0 hPa 0,0 l/m² 0,0 km/h (0 Bft) W-NW 295 ° 0 min 0 W/m² -1,7 °C -0,3 °C 0,0 km/h (0 Bft)
20.03.2026 06:04 22,1 °C -0,2 °C 48 % 90 % 1021,0 hPa 0,0 l/m² 0,0 km/h (0 Bft) W-NW 295 ° 0 min 0 W/m² -1,6 °C -0,2 °C 0,0 km/h (0 Bft)
20.03.2026 06:05 22,1 °C -0,2 °C 48 % 90 % 1021,0 hPa 0,0 l/m² 0,0 km/h (0 Bft) W-NW 295 ° 0 min 0 W/m² -1,6 °C -0,2 °C 0,0 km/h (0 Bft)
20.03.2026 06:06 22,1 °C -0,2 °C 48 % 90 % 1021,1 hPa 0,0 l/m² 0,0 km/h (0 Bft) W-NW 295 ° 0 min 0 W/m² -1,6 °C -0,2 °C 0,0 km/h (0 Bft)
20.03.2026 06:07 22,1 °C -0,2 °C 48 % 90 % 1021,1 hPa 0,0 l/m² 1,2 km/h (1 Bft) W-NW 295 ° 0 min 0 W/m² -1,6 °C -0,2 °C 1,6 km/h (1 Bft)
20.03.2026 06:08 22,1 °C -0,2 °C 48 % 90 % 1021,2 hPa 0,0 l/m² 1,2 km/h (1 Bft) W-NW 295 ° 0 min 0 W/m² -1,6 °C -0,2 °C 1,6 km/h (1 Bft)
20.03.2026 06:09 22,1 °C -0,1 °C 48 % 90 % 1021,2 hPa 0,0 l/m² 0,0 km/h (0 Bft) W-NW 295 ° 0 min 0 W/m² -1,5 °C -0,1 °C 0,0 km/h (0 Bft)
20.03.2026 06:11 22,1 °C -0,1 °C 48 % 90 % 1021,1 hPa 0,0 l/m² 0,0 km/h (0 Bft) W-NW 295 ° 0 min 0 W/m² -1,5 °C -0,1 °C 0,0 km/h (0 Bft)
20.03.2026 06:13 22,1 °C -0,1 °C 48 % 90 % 1021,0 hPa 0,0 l/m² 0,0 km/h (0 Bft) W-NW 295 ° 0 min 0 W/m² -1,5 °C -0,1 °C 0,0 km/h (0 Bft)
20.03.2026 06:14 22,1 °C -0,1 °C 48 % 90 % 1021,0 hPa 0,0 l/m² 0,0 km/h (0 Bft) W-NW 295 ° 0 min 0 W/m² -1,5 °C -0,1 °C 0,0 km/h (0 Bft)
20.03.2026 06:15 22,1 °C -0,1 °C 48 % 91 % 1021,0 hPa 0,0 l/m² 0,0 km/h (0 Bft) W-NW 295 ° 0 min 0 W/m² -1,4 °C -0,1 °C 0,0 km/h (0 Bft)
20.03.2026 06:16 22,1 °C -0,1 °C 48 % 90 % 1021,0 hPa 0,0 l/m² 0,0 km/h (0 Bft) W-NW 295 ° 0 min 0 W/m² -1,5 °C -0,1 °C 0,0 km/h (0 Bft)
20.03.2026 06:17 22,1 °C -0,1 °C 48 % 90 % 1021,0 hPa 0,0 l/m² 0,0 km/h (0 Bft) W-NW 295 ° 0 min 0 W/m² -1,5 °C -0,1 °C 0,0 km/h (0 Bft)
20.03.2026 06:18 22,1 °C -0,1 °C 48 % 91 % 1021,1 hPa 0,0 l/m² 0,0 km/h (0 Bft) W-NW 295 ° 0 min 0 W/m² -1,4 °C -0,1 °C 0,0 km/h (0 Bft)
20.03.2026 06:19 22,1 °C 0,0 °C 48 % 91 % 1021,1 hPa 0,0 l/m² 0,0 km/h (0 Bft) W-NW 295 ° 0 min 0 W/m² -1,3 °C 0,0 °C 0,0 km/h (0 Bft)
20.03.2026 06:20 22,1 °C 0,0 °C 48 % 91 % 1021,0 hPa 0,0 l/m² 0,0 km/h (0 Bft) W-NW 295 ° 0 min 5 W/m² -1,3 °C 0,0 °C 0,0 km/h (0 Bft)
20.03.2026 06:22 22,1 °C 0,0 °C 48 % 91 % 1021,1 hPa 0,0 l/m² 0,0 km/h (0 Bft) W-NW 295 ° 0 min 5 W/m² -1,3 °C 0,0 °C 0,0 km/h (0 Bft)
20.03.2026 06:23 22,1 °C 0,0 °C 48 % 91 % 1021,0 hPa 0,0 l/m² 0,0 km/h (0 Bft) W-NW 295 ° 0 min 5 W/m² -1,3 °C 0,0 °C 0,0 km/h (0 Bft)
20.03.2026 06:24 22,1 °C 0,0 °C 48 % 91 % 1021,1 hPa 0,0 l/m² 0,0 km/h (0 Bft) W-NW 295 ° 0 min 5 W/m² -1,3 °C 0,0 °C 0,0 km/h (0 Bft)
20.03.2026 06:25 22,1 °C 0,1 °C 48 % 91 % 1021,1 hPa 0,0 l/m² 0,0 km/h (0 Bft) W-NW 295 ° 0 min 7 W/m² -1,2 °C 0,1 °C 0,0 km/h (0 Bft)
20.03.2026 06:26 22,1 °C 0,1 °C 48 % 91 % 1021,1 hPa 0,0 l/m² 0,0 km/h (0 Bft) W-NW 295 ° 0 min 7 W/m² -1,2 °C 0,1 °C 0,0 km/h (0 Bft)
20.03.2026 06:27 22,1 °C 0,1 °C 48 % 91 % 1021,0 hPa 0,0 l/m² 0,0 km/h (0 Bft) W-NW 295 ° 0 min 7 W/m² -1,2 °C 0,1 °C 0,0 km/h (0 Bft)
20.03.2026 06:28 22,1 °C 0,1 °C 48 % 91 % 1021,1 hPa 0,0 l/m² 0,0 km/h (0 Bft) W-NW 295 ° 0 min 7 W/m² -1,2 °C 0,1 °C 0,0 km/h (0 Bft)
20.03.2026 06:29 22,1 °C 0,1 °C 48 % 91 % 1021,1 hPa 0,0 l/m² 0,0 km/h (0 Bft) W-NW 295 ° 0 min 7 W/m² -1,2 °C 0,1 °C 0,0 km/h (0 Bft)
20.03.2026 06:31 22,1 °C 0,1 °C 48 % 91 % 1021,1 hPa 0,0 l/m² 0,0 km/h (0 Bft) W-NW 295 ° 0 min 7 W/m² -1,2 °C 0,1 °C 0,0 km/h (0 Bft)
20.03.2026 06:33 22,1 °C 0,1 °C 47 % 91 % 1021,1 hPa 0,0 l/m² 0,0 km/h (0 Bft) W-NW 295 ° 0 min 7 W/m² -1,2 °C 0,1 °C 0,0 km/h (0 Bft)
20.03.2026 06:34 22,1 °C 0,1 °C 47 % 91 % 1021,1 hPa 0,0 l/m² 0,0 km/h (0 Bft) W-NW 295 ° 0 min 7 W/m² -1,2 °C 0,1 °C 0,0 km/h (0 Bft)
20.03.2026 06:35 22,1 °C 0,1 °C 47 % 91 % 1021,1 hPa 0,0 l/m² 0,0 km/h (0 Bft) W-NW 295 ° 0 min 7 W/m² -1,2 °C 0,1 °C 0,0 km/h (0 Bft)
20.03.2026 06:36 22,1 °C 0,1 °C 46 % 91 % 1021,1 hPa 0,0 l/m² 0,0 km/h (0 Bft) W-NW 295 ° 0 min 7 W/m² -1,2 °C 0,1 °C 0,0 km/h (0 Bft)
20.03.2026 06:37 22,1 °C 0,1 °C 46 % 91 % 1021,1 hPa 0,0 l/m² 0,0 km/h (0 Bft) W-NW 295 ° 0 min 7 W/m² -1,2 °C 0,1 °C 0,0 km/h (0 Bft)
20.03.2026 06:38 22,1 °C 0,1 °C 46 % 91 % 1021,2 hPa 0,0 l/m² 0,0 km/h (0 Bft) W-NW 295 ° 0 min 7 W/m² -1,2 °C 0,1 °C 0,0 km/h (0 Bft)
20.03.2026 06:39 22,1 °C 0,1 °C 46 % 91 % 1021,1 hPa 0,0 l/m² 0,0 km/h (0 Bft) W-NW 295 ° 0 min 7 W/m² -1,2 °C 0,1 °C 0,0 km/h (0 Bft)
20.03.2026 06:41 22,1 °C 0,2 °C 46 % 91 % 1021,1 hPa 0,0 l/m² 0,0 km/h (0 Bft) W-NW 295 ° 0 min 7 W/m² -1,1 °C 0,2 °C 0,0 km/h (0 Bft)
20.03.2026 06:43 22,1 °C 0,2 °C 46 % 91 % 1021,1 hPa 0,0 l/m² 0,0 km/h (0 Bft) W-NW 295 ° 0 min 7 W/m² -1,1 °C 0,2 °C 0,0 km/h (0 Bft)
20.03.2026 06:44 22,1 °C 0,2 °C 46 % 91 % 1021,1 hPa 0,0 l/m² 0,0 km/h (0 Bft) W-NW 295 ° 0 min 7 W/m² -1,1 °C 0,2 °C 0,0 km/h (0 Bft)
20.03.2026 06:46 22,1 °C 0,2 °C 46 % 91 % 1021,1 hPa 0,0 l/m² 0,0 km/h (0 Bft) W-NW 295 ° 0 min 7 W/m² -1,1 °C 0,2 °C 0,0 km/h (0 Bft)
20.03.2026 06:47 22,1 °C 0,2 °C 46 % 91 % 1021,1 hPa 0,0 l/m² 0,0 km/h (0 Bft) W-NW 295 ° 0 min 7 W/m² -1,1 °C 0,2 °C 0,0 km/h (0 Bft)
20.03.2026 06:48 22,1 °C 0,3 °C 46 % 91 % 1021,1 hPa 0,0 l/m² 0,0 km/h (0 Bft) W-NW 295 ° 0 min 7 W/m² -1,0 °C 0,3 °C 0,0 km/h (0 Bft)
20.03.2026 06:49 22,1 °C 0,2 °C 46 % 91 % 1021,2 hPa 0,0 l/m² 0,0 km/h (0 Bft) W-NW 295 ° 0 min 7 W/m² -1,1 °C 0,2 °C 0,0 km/h (0 Bft)
20.03.2026 06:51 22,1 °C 0,3 °C 46 % 91 % 1021,3 hPa 0,0 l/m² 0,0 km/h (0 Bft) W-NW 295 ° 0 min 9 W/m² -1,0 °C 0,3 °C 0,0 km/h (0 Bft)
20.03.2026 06:53 22,1 °C 0,3 °C 46 % 91 % 1021,2 hPa 0,0 l/m² 0,0 km/h (0 Bft) W-NW 295 ° 0 min 11 W/m² -1,0 °C 0,3 °C 0,0 km/h (0 Bft)
20.03.2026 06:54 22,1 °C 0,3 °C 46 % 91 % 1021,2 hPa 0,0 l/m² 0,0 km/h (0 Bft) W-NW 295 ° 0 min 11 W/m² -1,0 °C 0,3 °C 0,0 km/h (0 Bft)
20.03.2026 06:55 22,1 °C 0,3 °C 46 % 91 % 1021,2 hPa 0,0 l/m² 0,0 km/h (0 Bft) W-NW 295 ° 0 min 11 W/m² -1,0 °C 0,3 °C 0,0 km/h (0 Bft)
20.03.2026 06:56 22,0 °C 0,3 °C 46 % 91 % 1021,3 hPa 0,0 l/m² 0,0 km/h (0 Bft) W-NW 295 ° 0 min 11 W/m² -1,0 °C 0,3 °C 0,0 km/h (0 Bft)
20.03.2026 06:57 22,1 °C 0,3 °C 46 % 91 % 1021,1 hPa 0,0 l/m² 0,0 km/h (0 Bft) W-NW 295 ° 0 min 12 W/m² -1,0 °C 0,3 °C 0,0 km/h (0 Bft)
20.03.2026 06:58 22,1 °C 0,4 °C 46 % 91 % 1021,2 hPa 0,0 l/m² 0,0 km/h (0 Bft) W-NW 295 ° 0 min 12 W/m² -0,9 °C 0,4 °C 0,0 km/h (0 Bft)
20.03.2026 06:59 22,0 °C 0,4 °C 46 % 91 % 1021,1 hPa 0,0 l/m² 0,0 km/h (0 Bft) W-NW 295 ° 0 min 14 W/m² -0,9 °C 0,4 °C 0,0 km/h (0 Bft)
20.03.2026 07:01 22,1 °C 0,4 °C 46 % 91 % 1021,2 hPa 0,0 l/m² 0,0 km/h (0 Bft) W-NW 295 ° 0 min 14 W/m² -0,9 °C 0,4 °C 0,0 km/h (0 Bft)
20.03.2026 07:03 22,1 °C 0,4 °C 46 % 91 % 1021,2 hPa 0,0 l/m² 0,0 km/h (0 Bft) W-NW 295 ° 0 min 16 W/m² -0,9 °C 0,4 °C 0,0 km/h (0 Bft)
20.03.2026 07:04 22,1 °C 0,5 °C 46 % 91 % 1021,2 hPa 0,0 l/m² 0,0 km/h (0 Bft) W-NW 295 ° 0 min 16 W/m² -0,8 °C 0,5 °C 0,0 km/h (0 Bft)
20.03.2026 07:05 22,1 °C 0,4 °C 46 % 91 % 1021,2 hPa 0,0 l/m² 0,0 km/h (0 Bft) W-NW 295 ° 0 min 16 W/m² -0,9 °C 0,4 °C 0,0 km/h (0 Bft)
20.03.2026 07:06 22,1 °C 0,5 °C 46 % 91 % 1021,3 hPa 0,0 l/m² 0,0 km/h (0 Bft) W-NW 295 ° 0 min 18 W/m² -0,8 °C 0,5 °C 0,0 km/h (0 Bft)
20.03.2026 07:08 22,1 °C 0,6 °C 46 % 91 % 1021,1 hPa 0,0 l/m² 0,0 km/h (0 Bft) W-NW 295 ° 0 min 18 W/m² -0,7 °C 0,6 °C 0,0 km/h (0 Bft)
20.03.2026 07:09 22,1 °C 0,6 °C 46 % 91 % 1021,1 hPa 0,0 l/m² 0,0 km/h (0 Bft) W-NW 295 ° 0 min 19 W/m² -0,7 °C 0,6 °C 0,0 km/h (0 Bft)
20.03.2026 07:11 22,1 °C 0,6 °C 46 % 91 % 1021,2 hPa 0,0 l/m² 0,0 km/h (0 Bft) W-NW 295 ° 0 min 21 W/m² -0,7 °C 0,6 °C 0,0 km/h (0 Bft)
20.03.2026 07:12 22,1 °C 0,6 °C 46 % 91 % 1021,2 hPa 0,0 l/m² 0,0 km/h (0 Bft) W-NW 295 ° 0 min 21 W/m² -0,7 °C 0,6 °C 0,0 km/h (0 Bft)
20.03.2026 07:13 22,1 °C 0,7 °C 46 % 92 % 1021,2 hPa 0,0 l/m² 0,0 km/h (0 Bft) W-NW 295 ° 0 min 21 W/m² -0,4 °C 0,7 °C 0,0 km/h (0 Bft)
20.03.2026 07:14 22,1 °C 0,7 °C 46 % 92 % 1021,3 hPa 0,0 l/m² 0,0 km/h (0 Bft) W-NW 295 ° 0 min 23 W/m² -0,4 °C 0,7 °C 0,0 km/h (0 Bft)
20.03.2026 07:15 22,1 °C 0,7 °C 46 % 92 % 1021,2 hPa 0,0 l/m² 0,0 km/h (0 Bft) W-NW 295 ° 0 min 25 W/m² -0,4 °C 0,7 °C 0,0 km/h (0 Bft)
20.03.2026 07:16 22,1 °C 0,7 °C 46 % 92 % 1021,3 hPa 0,0 l/m² 0,0 km/h (0 Bft) W-NW 295 ° 0 min 25 W/m² -0,4 °C 0,7 °C 0,0 km/h (0 Bft)
20.03.2026 07:17 22,1 °C 0,8 °C 45 % 91 % 1021,3 hPa 0,0 l/m² 0,0 km/h (0 Bft) W-NW 295 ° 0 min 25 W/m² -0,5 °C 0,8 °C 0,0 km/h (0 Bft)
20.03.2026 07:18 22,1 °C 0,8 °C 45 % 92 % 1021,3 hPa 0,0 l/m² 0,0 km/h (0 Bft) W-NW 295 ° 0 min 25 W/m² -0,3 °C 0,8 °C 0,0 km/h (0 Bft)
20.03.2026 07:19 22,1 °C 0,8 °C 45 % 92 % 1021,3 hPa 0,0 l/m² 0,0 km/h (0 Bft) W-NW 295 ° 0 min 25 W/m² -0,3 °C 0,8 °C 0,0 km/h (0 Bft)
20.03.2026 07:21 22,1 °C 0,9 °C 45 % 92 % 1021,4 hPa 0,0 l/m² 0,0 km/h (0 Bft) W-NW 295 ° 0 min 25 W/m² -0,2 °C 0,9 °C 0,0 km/h (0 Bft)
20.03.2026 07:23 22,1 °C 0,9 °C 45 % 92 % 1021,5 hPa 0,0 l/m² 0,0 km/h (0 Bft) W-NW 295 ° 0 min 25 W/m² -0,2 °C 0,9 °C 0,0 km/h (0 Bft)
20.03.2026 07:24 22,1 °C 1,0 °C 45 % 92 % 1021,4 hPa 0,0 l/m² 0,0 km/h (0 Bft) W-NW 295 ° 0 min 25 W/m² -0,2 °C 1,0 °C 0,0 km/h (0 Bft)
20.03.2026 07:25 22,1 °C 1,0 °C 45 % 92 % 1021,4 hPa 0,0 l/m² 0,0 km/h (0 Bft) W-NW 295 ° 0 min 25 W/m² -0,2 °C 1,0 °C 0,0 km/h (0 Bft)
20.03.2026 07:26 22,1 °C 1,0 °C 45 % 92 % 1021,4 hPa 0,0 l/m² 0,0 km/h (0 Bft) W-NW 295 ° 0 min 25 W/m² -0,2 °C 1,0 °C 0,0 km/h (0 Bft)
20.03.2026 07:27 22,1 °C 1,1 °C 45 % 92 % 1021,4 hPa 0,0 l/m² 0,0 km/h (0 Bft) W-NW 295 ° 0 min 25 W/m² -0,1 °C 1,1 °C 0,0 km/h (0 Bft)
20.03.2026 07:28 22,1 °C 1,1 °C 45 % 92 % 1021,4 hPa 0,0 l/m² 0,0 km/h (0 Bft) W-NW 295 ° 0 min 26 W/m² -0,1 °C 1,1 °C 0,0 km/h (0 Bft)
20.03.2026 07:29 22,1 °C 1,1 °C 45 % 92 % 1021,4 hPa 0,0 l/m² 0,0 km/h (0 Bft) W-NW 295 ° 0 min 26 W/m² -0,1 °C 1,1 °C 0,0 km/h (0 Bft)
20.03.2026 07:31 22,1 °C 1,1 °C 45 % 92 % 1021,5 hPa 0,0 l/m² 0,0 km/h (0 Bft) W-NW 295 ° 0 min 28 W/m² -0,1 °C 1,1 °C 0,0 km/h (0 Bft)
20.03.2026 07:33 22,1 °C 1,2 °C 46 % 92 % 1021,5 hPa 0,0 l/m² 0,0 km/h (0 Bft) W-NW 295 ° 0 min 32 W/m² 0,0 °C 1,2 °C 0,0 km/h (0 Bft)
20.03.2026 07:34 22,1 °C 1,2 °C 46 % 92 % 1021,5 hPa 0,0 l/m² 0,0 km/h (0 Bft) W-NW 295 ° 0 min 33 W/m² 0,0 °C 1,2 °C 0,0 km/h (0 Bft)
20.03.2026 07:35 22,1 °C 1,2 °C 46 % 92 % 1021,4 hPa 0,0 l/m² 0,0 km/h (0 Bft) W-NW 295 ° 0 min 33 W/m² 0,0 °C 1,2 °C 0,0 km/h (0 Bft)
20.03.2026 07:36 22,1 °C 1,2 °C 46 % 92 % 1021,4 hPa 0,0 l/m² 0,0 km/h (0 Bft) W-NW 295 ° 0 min 35 W/m² 0,0 °C 1,2 °C 0,0 km/h (0 Bft)
20.03.2026 07:37 22,1 °C 1,2 °C 46 % 92 % 1021,5 hPa 0,0 l/m² 0,0 km/h (0 Bft) W-NW 295 ° 0 min 37 W/m² 0,0 °C 1,2 °C 0,0 km/h (0 Bft)
20.03.2026 07:38 22,1 °C 1,3 °C 46 % 92 % 1021,5 hPa 0,0 l/m² 0,0 km/h (0 Bft) W-NW 295 ° 0 min 40 W/m² 0,1 °C 1,3 °C 0,0 km/h (0 Bft)
20.03.2026 07:39 22,1 °C 1,3 °C 46 % 92 % 1021,5 hPa 0,0 l/m² 0,0 km/h (0 Bft) W-NW 295 ° 0 min 42 W/m² 0,1 °C 1,3 °C 0,0 km/h (0 Bft)
20.03.2026 07:41 22,1 °C 1,3 °C 46 % 92 % 1021,5 hPa 0,0 l/m² 0,0 km/h (0 Bft) W-NW 295 ° 0 min 44 W/m² 0,1 °C 1,3 °C 0,0 km/h (0 Bft)
20.03.2026 07:43 22,1 °C 1,4 °C 46 % 92 % 1021,4 hPa 0,0 l/m² 0,0 km/h (0 Bft) W-NW 295 ° 0 min 47 W/m² 0,2 °C 1,4 °C 0,0 km/h (0 Bft)
20.03.2026 07:44 22,1 °C 1,4 °C 46 % 92 % 1021,4 hPa 0,0 l/m² 0,0 km/h (0 Bft) W-NW 295 ° 1 min 53 W/m² 0,2 °C 1,4 °C 0,0 km/h (0 Bft)
20.03.2026 07:45 22,1 °C 1,4 °C 46 % 92 % 1021,3 hPa 0,0 l/m² 0,0 km/h (0 Bft) W-NW 295 ° 1 min 54 W/m² 0,2 °C 1,4 °C 0,0 km/h (0 Bft)
20.03.2026 07:46 22,1 °C 1,4 °C 46 % 92 % 1021,4 hPa 0,0 l/m² 0,0 km/h (0 Bft) W-NW 295 ° 1 min 56 W/m² 0,2 °C 1,4 °C 0,0 km/h (0 Bft)
20.03.2026 07:47 22,1 °C 1,4 °C 46 % 92 % 1021,4 hPa 0,0 l/m² 0,0 km/h (0 Bft) W-NW 295 ° 1 min 58 W/m² 0,2 °C 1,4 °C 0,0 km/h (0 Bft)
20.03.2026 07:48 22,1 °C 1,4 °C 46 % 92 % 1021,4 hPa 0,0 l/m² 0,0 km/h (0 Bft) W-NW 295 ° 1 min 62 W/m² 0,2 °C 1,4 °C 0,0 km/h (0 Bft)
20.03.2026 07:49 22,1 °C 1,5 °C 46 % 92 % 1021,4 hPa 0,0 l/m² 0,0 km/h (0 Bft) W-NW 295 ° 1 min 63 W/m² 0,3 °C 1,5 °C 0,0 km/h (0 Bft)
20.03.2026 07:51 22,1 °C 1,6 °C 46 % 92 % 1021,5 hPa 0,0 l/m² 0,0 km/h (0 Bft) W-NW 295 ° 2 min 70 W/m² 0,4 °C 1,6 °C 0,0 km/h (0 Bft)
20.03.2026 07:53 22,1 °C 1,6 °C 46 % 92 % 1021,5 hPa 0,0 l/m² 0,0 km/h (0 Bft) W-NW 295 ° 2 min 81 W/m² 0,4 °C 1,6 °C 0,0 km/h (0 Bft)
20.03.2026 07:54 22,1 °C 1,7 °C 46 % 92 % 1021,5 hPa 0,0 l/m² 0,0 km/h (0 Bft) W-NW 295 ° 1 min 84 W/m² 0,5 °C 1,7 °C 0,0 km/h (0 Bft)
20.03.2026 07:55 22,1 °C 1,7 °C 46 % 92 % 1021,5 hPa 0,0 l/m² 0,0 km/h (0 Bft) W-NW 295 ° 1 min 88 W/m² 0,5 °C 1,7 °C 0,0 km/h (0 Bft)
20.03.2026 07:56 22,1 °C 1,8 °C 46 % 92 % 1021,5 hPa 0,0 l/m² 0,0 km/h (0 Bft) W-NW 295 ° 1 min 91 W/m² 0,6 °C 1,8 °C 0,0 km/h (0 Bft)
20.03.2026 07:57 22,1 °C 1,8 °C 46 % 92 % 1021,6 hPa 0,0 l/m² 0,0 km/h (0 Bft) W-NW 295 ° 1 min 91 W/m² 0,6 °C 1,8 °C 0,0 km/h (0 Bft)
20.03.2026 07:58 22,1 °C 1,8 °C 46 % 92 % 1021,6 hPa 0,0 l/m² 0,0 km/h (0 Bft) W-NW 295 ° 1 min 90 W/m² 0,6 °C 1,8 °C 0,0 km/h (0 Bft)
20.03.2026 07:59 22,1 °C 1,9 °C 46 % 92 % 1021,5 hPa 0,0 l/m² 0,0 km/h (0 Bft) W-NW 295 ° 1 min 86 W/m² 0,7 °C 1,9 °C 0,0 km/h (0 Bft)
20.03.2026 08:01 22,1 °C 1,9 °C 46 % 92 % 1021,7 hPa 0,0 l/m² 0,0 km/h (0 Bft) W-NW 295 ° 2 min 81 W/m² 0,7 °C 1,9 °C 0,0 km/h (0 Bft)
20.03.2026 08:03 22,1 °C 2,1 °C 46 % 92 % 1021,6 hPa 0,0 l/m² 0,0 km/h (0 Bft) W-NW 295 ° 2 min 77 W/m² 0,9 °C 2,1 °C 0,0 km/h (0 Bft)
20.03.2026 08:04 22,1 °C 2,1 °C 46 % 92 % 1021,5 hPa 0,0 l/m² 0,0 km/h (0 Bft) W-NW 295 ° 1 min 77 W/m² 0,9 °C 2,1 °C 0,0 km/h (0 Bft)
20.03.2026 08:05 22,1 °C 2,1 °C 46 % 92 % 1021,5 hPa 0,0 l/m² 0,0 km/h (0 Bft) W-NW 295 ° 1 min 76 W/m² 0,9 °C 2,1 °C 0,0 km/h (0 Bft)
20.03.2026 08:07 22,1 °C 2,2 °C 46 % 92 % 1021,5 hPa 0,0 l/m² 0,0 km/h (0 Bft) W-NW 295 ° 2 min 77 W/m² 1,0 °C 2,2 °C 0,0 km/h (0 Bft)
20.03.2026 08:08 22,1 °C 2,2 °C 46 % 92 % 1021,5 hPa 0,0 l/m² 0,0 km/h (0 Bft) W-NW 295 ° 1 min 77 W/m² 1,0 °C 2,2 °C 0,0 km/h (0 Bft)
20.03.2026 08:09 22,1 °C 2,2 °C 46 % 92 % 1021,5 hPa 0,0 l/m² 0,0 km/h (0 Bft) W-NW 295 ° 1 min 79 W/m² 1,0 °C 2,2 °C 0,0 km/h (0 Bft)
20.03.2026 08:11 22,1 °C 2,3 °C 46 % 92 % 1021,6 hPa 0,0 l/m² 0,0 km/h (0 Bft) W-NW 295 ° 2 min 84 W/m² 1,1 °C 2,3 °C 0,0 km/h (0 Bft)
20.03.2026 08:13 22,1 °C 2,3 °C 46 % 92 % 1021,5 hPa 0,0 l/m² 0,0 km/h (0 Bft) W-NW 295 ° 2 min 93 W/m² 1,1 °C 2,3 °C 0,0 km/h (0 Bft)
20.03.2026 08:14 22,1 °C 2,4 °C 46 % 92 % 1021,5 hPa 0,0 l/m² 0,0 km/h (0 Bft) W-NW 295 ° 1 min 105 W/m² 1,2 °C 2,4 °C 0,0 km/h (0 Bft)
20.03.2026 08:15 22,1 °C 2,4 °C 46 % 92 % 1021,6 hPa 0,0 l/m² 0,0 km/h (0 Bft) W-NW 295 ° 1 min 109 W/m² 1,2 °C 2,4 °C 0,0 km/h (0 Bft)
20.03.2026 08:16 22,1 °C 2,4 °C 46 % 92 % 1021,6 hPa 0,0 l/m² 0,0 km/h (0 Bft) W-NW 295 ° 1 min 113 W/m² 1,2 °C 2,4 °C 0,0 km/h (0 Bft)
20.03.2026 08:17 22,1 °C 2,4 °C 46 % 92 % 1021,6 hPa 0,0 l/m² 0,0 km/h (0 Bft) W-NW 295 ° 1 min 111 W/m² 1,2 °C 2,4 °C 0,0 km/h (0 Bft)
20.03.2026 08:18 22,1 °C 2,5 °C 46 % 92 % 1021,5 hPa 0,0 l/m² 0,0 km/h (0 Bft) W-NW 295 ° 1 min 111 W/m² 1,3 °C 2,5 °C 0,0 km/h (0 Bft)
20.03.2026 08:19 22,1 °C 2,5 °C 46 % 92 % 1021,6 hPa 0,0 l/m² 0,0 km/h (0 Bft) W-NW 295 ° 1 min 113 W/m² 1,3 °C 2,5 °C 0,0 km/h (0 Bft)
20.03.2026 08:21 22,1 °C 2,6 °C 46 % 93 % 1021,6 hPa 0,0 l/m² 0,1 km/h (0 Bft) W-NW 295 ° 2 min 120 W/m² 1,6 °C 2,6 °C 1,6 km/h (1 Bft)
20.03.2026 08:23 22,1 °C 2,7 °C 46 % 93 % 1021,5 hPa 0,0 l/m² 0,0 km/h (0 Bft) W-NW 295 ° 2 min 111 W/m² 1,7 °C 2,7 °C 0,0 km/h (0 Bft)
20.03.2026 08:24 22,1 °C 2,7 °C 46 % 92 % 1021,5 hPa 0,0 l/m² 0,0 km/h (0 Bft) W-NW 295 ° 1 min 107 W/m² 1,5 °C 2,7 °C 0,0 km/h (0 Bft)
20.03.2026 08:25 22,1 °C 2,8 °C 46 % 92 % 1021,5 hPa 0,0 l/m² 0,1 km/h (0 Bft) W-NW 295 ° 1 min 102 W/m² 1,6 °C 2,8 °C 1,6 km/h (1 Bft)
20.03.2026 08:26 22,1 °C 2,8 °C 46 % 92 % 1021,5 hPa 0,0 l/m² 2,7 km/h (1 Bft) W-NW 295 ° 1 min 98 W/m² 1,6 °C 2,8 °C 3,2 km/h (1 Bft)
20.03.2026 08:27 22,1 °C 2,8 °C 46 % 92 % 1021,6 hPa 0,0 l/m² 2,5 km/h (1 Bft) W-NW 295 ° 1 min 97 W/m² 1,6 °C 2,8 °C 3,2 km/h (1 Bft)
20.03.2026 08:28 22,1 °C 2,9 °C 46 % 92 % 1021,6 hPa 0,0 l/m² 3,3 km/h (1 Bft) W-NW 295 ° 1 min 97 W/m² 1,7 °C 2,9 °C 4,8 km/h (1 Bft)
20.03.2026 08:29 22,1 °C 2,9 °C 46 % 93 % 1021,6 hPa 0,0 l/m² 2,9 km/h (1 Bft) W-NW 295 ° 1 min 97 W/m² 1,9 °C 2,9 °C 4,8 km/h (1 Bft)
20.03.2026 08:31 22,1 °C 2,9 °C 46 % 93 % 1021,6 hPa 0,0 l/m² 2,4 km/h (1 Bft) W-NW 295 ° 2 min 104 W/m² 1,9 °C 2,9 °C 4,8 km/h (1 Bft)
20.03.2026 08:33 22,1 °C 3,1 °C 46 % 93 % 1021,6 hPa 0,0 l/m² 0,8 km/h (0 Bft) W-NW 295 ° 2 min 107 W/m² 2,1 °C 3,1 °C 3,2 km/h (1 Bft)
20.03.2026 08:34 22,1 °C 3,1 °C 46 % 93 % 1021,6 hPa 0,0 l/m² 0,3 km/h (0 Bft) W-NW 295 ° 1 min 107 W/m² 2,1 °C 3,1 °C 1,6 km/h (1 Bft)
20.03.2026 08:35 22,1 °C 3,1 °C 46 % 92 % 1021,6 hPa 0,0 l/m² 1,7 km/h (1 Bft) W-NW 295 ° 1 min 109 W/m² 1,9 °C 3,1 °C 3,2 km/h (1 Bft)
20.03.2026 08:36 22,1 °C 3,2 °C 46 % 92 % 1021,6 hPa 0,0 l/m² 2,9 km/h (1 Bft) W-NW 295 ° 1 min 107 W/m² 2,0 °C 3,2 °C 3,2 km/h (1 Bft)
20.03.2026 08:37 22,1 °C 3,2 °C 46 % 92 % 1021,6 hPa 0,0 l/m² 2,9 km/h (1 Bft) W-NW 295 ° 1 min 102 W/m² 2,0 °C 3,2 °C 3,2 km/h (1 Bft)
20.03.2026 08:38 22,1 °C 3,2 °C 46 % 92 % 1021,6 hPa 0,0 l/m² 1,8 km/h (1 Bft) W-NW 295 ° 1 min 98 W/m² 2,0 °C 3,2 °C 3,2 km/h (1 Bft)
20.03.2026 08:39 22,1 °C 3,3 °C 46 % 92 % 1021,6 hPa 0,0 l/m² 1,2 km/h (1 Bft) W-NW 295 ° 1 min 93 W/m² 2,1 °C 3,3 °C 1,6 km/h (1 Bft)
20.03.2026 08:41 22,1 °C 3,3 °C 46 % 93 % 1021,5 hPa 0,0 l/m² 1,6 km/h (1 Bft) W-NW 295 ° 2 min 84 W/m² 2,3 °C 3,3 °C 3,2 km/h (1 Bft)
20.03.2026 08:43 22,1 °C 3,4 °C 46 % 93 % 1021,7 hPa 0,0 l/m² 3,3 km/h (1 Bft) W-NW 295 ° 2 min 70 W/m² 2,4 °C 3,4 °C 6,4 km/h (2 Bft)
20.03.2026 08:44 22,1 °C 3,4 °C 46 % 93 % 1021,7 hPa 0,0 l/m² 3,7 km/h (1 Bft) W-NW 295 ° 1 min 67 W/m² 2,4 °C 3,4 °C 4,8 km/h (1 Bft)
20.03.2026 08:45 22,1 °C 3,4 °C 46 % 92 % 1021,6 hPa 0,0 l/m² 1,4 km/h (1 Bft) W-NW 295 ° 1 min 65 W/m² 2,2 °C 3,4 °C 3,2 km/h (1 Bft)
20.03.2026 08:46 22,1 °C 3,5 °C 46 % 92 % 1021,6 hPa 0,0 l/m² 0,1 km/h (0 Bft) W-NW 295 ° 1 min 63 W/m² 2,3 °C 3,5 °C 1,6 km/h (1 Bft)
20.03.2026 08:47 22,1 °C 3,6 °C 46 % 92 % 1021,5 hPa 0,0 l/m² 0,0 km/h (0 Bft) W-NW 295 ° 1 min 62 W/m² 2,4 °C 3,6 °C 0,0 km/h (0 Bft)
20.03.2026 08:48 22,1 °C 3,6 °C 46 % 92 % 1021,6 hPa 0,0 l/m² 1,3 km/h (1 Bft) W-NW 295 ° 1 min 60 W/m² 2,4 °C 3,6 °C 3,2 km/h (1 Bft)
20.03.2026 08:49 22,1 °C 3,6 °C 46 % 93 % 1021,6 hPa 0,0 l/m² 2,8 km/h (1 Bft) W-NW 295 ° 1 min 56 W/m² 2,6 °C 3,6 °C 3,2 km/h (1 Bft)
20.03.2026 08:51 22,1 °C 3,7 °C 46 % 92 % 1021,5 hPa 0,0 l/m² 3,1 km/h (1 Bft) W-NW 295 ° 2 min 54 W/m² 2,5 °C 3,7 °C 4,8 km/h (1 Bft)
20.03.2026 08:53 22,1 °C 3,7 °C 46 % 92 % 1021,5 hPa 0,0 l/m² 2,6 km/h (1 Bft) W-NW 295 ° 2 min 54 W/m² 2,5 °C 3,7 °C 3,2 km/h (1 Bft)
20.03.2026 08:54 22,1 °C 3,7 °C 46 % 92 % 1021,5 hPa 0,0 l/m² 2,4 km/h (1 Bft) W-NW 295 ° 1 min 54 W/m² 2,5 °C 3,7 °C 3,2 km/h (1 Bft)
20.03.2026 08:55 22,1 °C 3,8 °C 46 % 92 % 1021,4 hPa 0,0 l/m² 0,4 km/h (0 Bft) W-NW 295 ° 1 min 56 W/m² 2,6 °C 3,8 °C 1,6 km/h (1 Bft)
20.03.2026 08:56 22,1 °C 3,8 °C 46 % 92 % 1021,5 hPa 0,0 l/m² 0,2 km/h (0 Bft) W-NW 295 ° 1 min 58 W/m² 2,6 °C 3,8 °C 1,6 km/h (1 Bft)
20.03.2026 08:57 22,1 °C 3,8 °C 46 % 92 % 1021,5 hPa 0,0 l/m² 0,0 km/h (0 Bft) W-NW 295 ° 1 min 58 W/m² 2,6 °C 3,8 °C 0,0 km/h (0 Bft)
20.03.2026 08:58 22,1 °C 3,8 °C 46 % 92 % 1021,5 hPa 0,0 l/m² 0,0 km/h (0 Bft) W-NW 295 ° 1 min 60 W/m² 2,6 °C 3,8 °C 0,0 km/h (0 Bft)
20.03.2026 08:59 22,1 °C 3,8 °C 46 % 92 % 1021,5 hPa 0,0 l/m² 0,0 km/h (0 Bft) W-NW 295 ° 1 min 62 W/m² 2,6 °C 3,8 °C 0,0 km/h (0 Bft)
20.03.2026 09:01 22,1 °C 3,9 °C 46 % 92 % 1021,5 hPa 0,0 l/m² 0,0 km/h (0 Bft) W-NW 295 ° 2 min 67 W/m² 2,7 °C 3,9 °C 0,0 km/h (0 Bft)
20.03.2026 09:03 22,1 °C 4,0 °C 46 % 92 % 1021,5 hPa 0,0 l/m² 0,0 km/h (0 Bft) W-NW 295 ° 2 min 69 W/m² 2,8 °C 4,0 °C 0,0 km/h (0 Bft)
20.03.2026 09:04 22,1 °C 4,0 °C 46 % 92 % 1021,5 hPa 0,0 l/m² 0,0 km/h (0 Bft) W-NW 295 ° 1 min 69 W/m² 2,8 °C 4,0 °C 0,0 km/h (0 Bft)
20.03.2026 09:05 22,1 °C 4,1 °C 46 % 92 % 1021,4 hPa 0,0 l/m² 0,0 km/h (0 Bft) W-NW 295 ° 1 min 70 W/m² 2,9 °C 4,1 °C 0,0 km/h (0 Bft)
20.03.2026 09:07 22,1 °C 4,1 °C 46 % 92 % 1021,5 hPa 0,0 l/m² 0,0 km/h (0 Bft) W-NW 295 ° 2 min 72 W/m² 2,9 °C 4,1 °C 0,0 km/h (0 Bft)
20.03.2026 09:08 22,1 °C 4,1 °C 46 % 92 % 1021,5 hPa 0,0 l/m² 3,2 km/h (1 Bft) W-NW 295 ° 1 min 72 W/m² 2,9 °C 4,1 °C 4,8 km/h (1 Bft)
20.03.2026 09:09 22,1 °C 4,2 °C 46 % 92 % 1021,5 hPa 0,0 l/m² 1,9 km/h (1 Bft) W-NW 295 ° 1 min 72 W/m² 3,0 °C 4,2 °C 3,2 km/h (1 Bft)
20.03.2026 09:11 22,1 °C 4,2 °C 46 % 92 % 1021,5 hPa 0,0 l/m² 0,8 km/h (0 Bft) W-NW 295 ° 2 min 70 W/m² 3,0 °C 4,2 °C 3,2 km/h (1 Bft)
20.03.2026 09:13 22,1 °C 4,3 °C 46 % 92 % 1021,6 hPa 0,0 l/m² 0,0 km/h (0 Bft) W-NW 295 ° 2 min 69 W/m² 3,1 °C 4,3 °C 0,0 km/h (0 Bft)
20.03.2026 09:14 22,1 °C 4,3 °C 46 % 92 % 1021,5 hPa 0,0 l/m² 0,7 km/h (0 Bft) W-NW 295 ° 1 min 67 W/m² 3,1 °C 4,3 °C 1,6 km/h (1 Bft)
20.03.2026 09:15 22,1 °C 4,4 °C 46 % 92 % 1021,5 hPa 0,0 l/m² 0,9 km/h (0 Bft) W-NW 295 ° 1 min 69 W/m² 3,2 °C 4,4 °C 1,6 km/h (1 Bft)
20.03.2026 09:16 22,1 °C 4,4 °C 46 % 92 % 1021,5 hPa 0,0 l/m² 1,1 km/h (1 Bft) W-NW 295 ° 1 min 69 W/m² 3,2 °C 4,4 °C 3,2 km/h (1 Bft)
20.03.2026 09:17 22,1 °C 4,4 °C 46 % 92 % 1021,5 hPa 0,0 l/m² 0,6 km/h (0 Bft) W-NW 295 ° 1 min 70 W/m² 3,2 °C 4,4 °C 1,6 km/h (1 Bft)
20.03.2026 09:18 22,1 °C 4,4 °C 46 % 92 % 1021,5 hPa 0,0 l/m² 0,1 km/h (0 Bft) W-NW 295 ° 1 min 77 W/m² 3,2 °C 4,4 °C 1,6 km/h (1 Bft)
20.03.2026 09:19 22,1 °C 4,5 °C 46 % 92 % 1021,5 hPa 0,0 l/m² 0,0 km/h (0 Bft) W-NW 295 ° 1 min 81 W/m² 3,3 °C 4,5 °C 0,0 km/h (0 Bft)
20.03.2026 09:21 22,1 °C 4,6 °C 46 % 92 % 1021,5 hPa 0,0 l/m² 0,0 km/h (0 Bft) W-NW 295 ° 2 min 91 W/m² 3,4 °C 4,6 °C 0,0 km/h (0 Bft)
20.03.2026 09:23 22,1 °C 4,7 °C 46 % 92 % 1021,7 hPa 0,0 l/m² 0,0 km/h (0 Bft) W-NW 295 ° 2 min 107 W/m² 3,5 °C 4,7 °C 1,6 km/h (1 Bft)
20.03.2026 09:24 22,1 °C 4,7 °C 46 % 92 % 1021,5 hPa 0,0 l/m² 0,0 km/h (0 Bft) W-NW 295 ° 1 min 125 W/m² 3,5 °C 4,7 °C 0,0 km/h (0 Bft)
20.03.2026 09:25 22,1 °C 4,8 °C 46 % 92 % 1021,6 hPa 0,0 l/m² 0,4 km/h (0 Bft) W-NW 295 ° 1 min 134 W/m² 3,6 °C 4,8 °C 1,6 km/h (1 Bft)
20.03.2026 09:26 22,1 °C 4,8 °C 46 % 92 % 1021,6 hPa 0,0 l/m² 0,4 km/h (0 Bft) W-NW 295 ° 1 min 141 W/m² 3,6 °C 4,8 °C 1,6 km/h (1 Bft)
20.03.2026 09:27 22,1 °C 4,8 °C 46 % 92 % 1021,6 hPa 0,0 l/m² 0,0 km/h (0 Bft) W-NW 295 ° 1 min 146 W/m² 3,6 °C 4,8 °C 0,0 km/h (0 Bft)
20.03.2026 09:28 22,1 °C 4,8 °C 46 % 92 % 1021,6 hPa 0,0 l/m² 0,0 km/h (0 Bft) W-NW 295 ° 1 min 151 W/m² 3,6 °C 4,8 °C 0,0 km/h (0 Bft)
20.03.2026 09:29 22,1 °C 4,9 °C 46 % 92 % 1021,6 hPa 0,0 l/m² 0,0 km/h (0 Bft) W-NW 295 ° 1 min 153 W/m² 3,7 °C 4,9 °C 0,0 km/h (0 Bft)
20.03.2026 09:31 22,1 °C 5,0 °C 46 % 92 % 1021,6 hPa 0,0 l/m² 0,1 km/h (0 Bft) W-NW 295 ° 2 min 142 W/m² 3,8 °C 5,0 °C 1,6 km/h (1 Bft)
20.03.2026 09:33 22,1 °C 5,1 °C 46 % 92 % 1021,6 hPa 0,0 l/m² 0,8 km/h (0 Bft) W-NW 295 ° 2 min 134 W/m² 3,9 °C 5,1 °C 3,2 km/h (1 Bft)
20.03.2026 09:34 22,1 °C 5,2 °C 46 % 92 % 1021,6 hPa 0,0 l/m² 5,1 km/h (1 Bft) W 277 ° 1 min 130 W/m² 4,0 °C 5,2 °C 11,3 km/h (2 Bft)
20.03.2026 09:35 22,1 °C 5,2 °C 46 % 92 % 1021,5 hPa 0,0 l/m² 5,3 km/h (1 Bft) NW 316 ° 1 min 127 W/m² 4,0 °C 5,2 °C 12,9 km/h (3 Bft)
20.03.2026 09:36 22,1 °C 5,3 °C 46 % 92 % 1021,5 hPa 0,0 l/m² 2,8 km/h (1 Bft) W 264 ° 1 min 123 W/m² 4,1 °C 5,3 °C 6,4 km/h (2 Bft)
20.03.2026 09:37 22,1 °C 5,3 °C 46 % 92 % 1021,5 hPa 0,0 l/m² 0,3 km/h (0 Bft) W 265 ° 1 min 121 W/m² 4,1 °C 5,3 °C 1,6 km/h (1 Bft)
20.03.2026 09:38 22,1 °C 5,3 °C 46 % 92 % 1021,7 hPa 0,0 l/m² 1,4 km/h (1 Bft) W-NW 287 ° 1 min 121 W/m² 4,1 °C 5,3 °C 4,8 km/h (1 Bft)
20.03.2026 09:39 22,1 °C 5,4 °C 46 % 92 % 1021,6 hPa 0,0 l/m² 1,9 km/h (1 Bft) NW 306 ° 1 min 125 W/m² 4,2 °C 5,4 °C 3,2 km/h (1 Bft)
20.03.2026 09:41 22,1 °C 5,5 °C 46 % 92 % 1021,6 hPa 0,0 l/m² 2,2 km/h (1 Bft) W-NW 297 ° 2 min 139 W/m² 4,3 °C 5,5 °C 6,4 km/h (2 Bft)
20.03.2026 09:43 22,1 °C 5,6 °C 46 % 92 % 1021,7 hPa 0,0 l/m² 1,0 km/h (0 Bft) NW 304 ° 2 min 165 W/m² 4,4 °C 5,6 °C 4,8 km/h (1 Bft)
20.03.2026 09:44 22,1 °C 5,7 °C 46 % 92 % 1021,7 hPa 0,0 l/m² 0,9 km/h (0 Bft) W-NW 294 ° 1 min 172 W/m² 4,5 °C 5,7 °C 3,2 km/h (1 Bft)
20.03.2026 09:46 22,1 °C 5,8 °C 46 % 92 % 1021,6 hPa 0,0 l/m² 2,3 km/h (1 Bft) W 276 ° 2 min 185 W/m² 4,6 °C 5,8 °C 4,8 km/h (1 Bft)
20.03.2026 09:47 22,1 °C 5,8 °C 46 % 92 % 1021,6 hPa 0,0 l/m² 7,9 km/h (2 Bft) N 355 ° 1 min 197 W/m² 4,6 °C 4,5 °C 14,5 km/h (3 Bft)
20.03.2026 09:48 22,1 °C 5,8 °C 46 % 92 % 1021,7 hPa 0,0 l/m² 3,0 km/h (1 Bft) NW 321 ° 1 min 204 W/m² 4,6 °C 5,8 °C 8,0 km/h (2 Bft)
20.03.2026 09:49 22,1 °C 5,9 °C 46 % 92 % 1021,7 hPa 0,0 l/m² 6,1 km/h (2 Bft) W 280 ° 1 min 209 W/m² 4,7 °C 5,9 °C 11,3 km/h (2 Bft)
20.03.2026 09:51 22,1 °C 6,0 °C 46 % 91 % 1021,5 hPa 0,0 l/m² 3,1 km/h (1 Bft) W-NW 302 ° 2 min 213 W/m² 4,6 °C 6,0 °C 14,5 km/h (3 Bft)
20.03.2026 09:53 22,1 °C 6,1 °C 46 % 91 % 1021,7 hPa 0,0 l/m² 6,3 km/h (2 Bft) NW 319 ° 2 min 207 W/m² 4,7 °C 6,1 °C 11,3 km/h (2 Bft)
20.03.2026 09:54 22,1 °C 6,2 °C 46 % 91 % 1021,7 hPa 0,0 l/m² 6,2 km/h (2 Bft) NW 315 ° 1 min 202 W/m² 4,8 °C 6,2 °C 8,0 km/h (2 Bft)
20.03.2026 09:55 22,1 °C 6,2 °C 46 % 91 % 1021,7 hPa 0,0 l/m² 4,7 km/h (1 Bft) NW 320 ° 1 min 195 W/m² 4,8 °C 6,2 °C 8,0 km/h (2 Bft)
20.03.2026 09:56 22,1 °C 6,3 °C 46 % 91 % 1021,7 hPa 0,0 l/m² 5,7 km/h (2 Bft) NW 316 ° 1 min 190 W/m² 4,9 °C 6,3 °C 8,0 km/h (2 Bft)
20.03.2026 09:57 22,1 °C 6,4 °C 46 % 91 % 1021,7 hPa 0,0 l/m² 7,5 km/h (2 Bft) NW 323 ° 1 min 183 W/m² 5,0 °C 5,5 °C 11,3 km/h (2 Bft)
20.03.2026 09:58 22,1 °C 6,4 °C 46 % 91 % 1021,7 hPa 0,0 l/m² 9,9 km/h (2 Bft) NW 308 ° 1 min 178 W/m² 5,0 °C 3,7 °C 16,1 km/h (3 Bft)
20.03.2026 09:59 22,1 °C 6,5 °C 46 % 90 % 1021,7 hPa 0,0 l/m² 6,5 km/h (2 Bft) N-NW 332 ° 1 min 169 W/m² 5,0 °C 6,4 °C 14,5 km/h (3 Bft)
20.03.2026 10:01 22,1 °C 6,6 °C 46 % 90 % 1021,7 hPa 0,0 l/m² 8,5 km/h (2 Bft) NW 315 ° 2 min 162 W/m² 5,1 °C 4,9 °C 14,5 km/h (3 Bft)
20.03.2026 10:03 22,1 °C 6,7 °C 46 % 90 % 1021,8 hPa 0,0 l/m² 11,2 km/h (2 Bft) NW 309 ° 2 min 156 W/m² 5,2 °C 3,2 °C 20,9 km/h (4 Bft)
20.03.2026 10:04 22,1 °C 6,8 °C 46 % 90 % 1021,8 hPa 0,0 l/m² 7,1 km/h (2 Bft) NW 307 ° 1 min 156 W/m² 5,3 °C 6,2 °C 11,3 km/h (2 Bft)
20.03.2026 10:05 22,1 °C 6,8 °C 46 % 89 % 1021,8 hPa 0,0 l/m² 8,4 km/h (2 Bft) N-NW 330 ° 1 min 156 W/m² 5,1 °C 5,2 °C 16,1 km/h (3 Bft)
20.03.2026 10:06 22,1 °C 6,9 °C 46 % 89 % 1021,8 hPa 0,0 l/m² 11,4 km/h (2 Bft) N-NW 342 ° 1 min 156 W/m² 5,2 °C 3,3 °C 16,1 km/h (3 Bft)
20.03.2026 10:07 22,1 °C 6,9 °C 46 % 89 % 1021,9 hPa 0,0 l/m² 10,5 km/h (2 Bft) NW 323 ° 1 min 158 W/m² 5,2 °C 3,8 °C 14,5 km/h (3 Bft)
20.03.2026 10:08 22,1 °C 6,9 °C 46 % 88 % 1021,9 hPa 0,0 l/m² 10,6 km/h (2 Bft) NW 305 ° 1 min 160 W/m² 5,1 °C 3,8 °C 14,5 km/h (3 Bft)
20.03.2026 10:09 22,1 °C 6,9 °C 46 % 88 % 1021,8 hPa 0,0 l/m² 10,8 km/h (2 Bft) N 355 ° 1 min 162 W/m² 5,1 °C 3,7 °C 16,1 km/h (3 Bft)
20.03.2026 10:11 22,1 °C 7,1 °C 46 % 88 % 1021,8 hPa 0,0 l/m² 10,5 km/h (2 Bft) NW 313 ° 2 min 174 W/m² 5,2 °C 4,1 °C 16,1 km/h (3 Bft)
20.03.2026 10:13 22,1 °C 7,2 °C 46 % 87 % 1021,8 hPa 0,0 l/m² 4,9 km/h (1 Bft) NW 313 ° 2 min 178 W/m² 5,2 °C 7,2 °C 8,0 km/h (2 Bft)
20.03.2026 10:14 22,1 °C 7,2 °C 46 % 87 % 1021,8 hPa 0,0 l/m² 3,9 km/h (1 Bft) NW 316 ° 1 min 178 W/m² 5,2 °C 7,2 °C 6,4 km/h (2 Bft)
20.03.2026 10:15 22,1 °C 7,2 °C 46 % 87 % 1021,9 hPa 0,0 l/m² 6,5 km/h (2 Bft) NW 321 ° 1 min 178 W/m² 5,2 °C 7,1 °C 9,7 km/h (2 Bft)
20.03.2026 10:16 22,1 °C 7,2 °C 46 % 87 % 1021,9 hPa 0,0 l/m² 9,0 km/h (2 Bft) N-NW 328 ° 1 min 174 W/m² 5,2 °C 5,2 °C 12,9 km/h (3 Bft)
20.03.2026 10:17 22,1 °C 7,3 °C 46 % 86 % 1021,8 hPa 0,0 l/m² 6,9 km/h (2 Bft) NW 305 ° 1 min 171 W/m² 5,1 °C 6,9 °C 12,9 km/h (3 Bft)
20.03.2026 10:18 22,1 °C 7,3 °C 46 % 86 % 1021,9 hPa 0,0 l/m² 7,5 km/h (2 Bft) W-NW 289 ° 1 min 169 W/m² 5,1 °C 6,4 °C 11,3 km/h (2 Bft)
20.03.2026 10:19 22,1 °C 7,4 °C 46 % 86 % 1021,8 hPa 0,0 l/m² 8,0 km/h (2 Bft) NW 318 ° 1 min 169 W/m² 5,2 °C 6,1 °C 12,9 km/h (3 Bft)
20.03.2026 10:21 22,1 °C 7,4 °C 46 % 85 % 1021,8 hPa 0,0 l/m² 7,3 km/h (2 Bft) N-NW 343 ° 2 min 163 W/m² 5,0 °C 6,7 °C 12,9 km/h (3 Bft)
20.03.2026 10:23 22,1 °C 7,5 °C 46 % 85 % 1021,9 hPa 0,0 l/m² 4,9 km/h (1 Bft) N 355 ° 2 min 155 W/m² 5,1 °C 7,5 °C 9,7 km/h (2 Bft)
20.03.2026 10:24 22,1 °C 7,6 °C 46 % 85 % 1021,8 hPa 0,0 l/m² 3,6 km/h (1 Bft) N-NW 341 ° 1 min 153 W/m² 5,2 °C 7,6 °C 4,8 km/h (1 Bft)
20.03.2026 10:25 22,1 °C 7,6 °C 46 % 85 % 1021,8 hPa 0,0 l/m² 4,6 km/h (1 Bft) N-NW 346 ° 1 min 155 W/m² 5,2 °C 7,6 °C 8,0 km/h (2 Bft)
20.03.2026 10:26 22,1 °C 7,6 °C 46 % 85 % 1021,9 hPa 0,0 l/m² 5,0 km/h (1 Bft) N-NW 346 ° 1 min 156 W/m² 5,2 °C 7,6 °C 8,0 km/h (2 Bft)
20.03.2026 10:27 22,1 °C 7,7 °C 46 % 84 % 1021,8 hPa 0,0 l/m² 9,9 km/h (2 Bft) N-NW 329 ° 1 min 160 W/m² 5,2 °C 5,1 °C 14,5 km/h (3 Bft)
20.03.2026 10:28 22,1 °C 7,7 °C 46 % 84 % 1021,9 hPa 0,0 l/m² 7,4 km/h (2 Bft) N-NW 340 ° 1 min 171 W/m² 5,2 °C 6,9 °C 12,9 km/h (3 Bft)
20.03.2026 10:29 22,1 °C 7,7 °C 46 % 84 % 1021,9 hPa 0,0 l/m² 11,0 km/h (2 Bft) NW 318 ° 1 min 178 W/m² 5,2 °C 4,4 °C 14,5 km/h (3 Bft)
20.03.2026 10:31 22,0 °C 7,7 °C 46 % 84 % 1021,8 hPa 0,0 l/m² 9,2 km/h (2 Bft) NW 321 ° 2 min 188 W/m² 5,2 °C 5,6 °C 14,5 km/h (3 Bft)
20.03.2026 10:33 22,1 °C 7,8 °C 46 % 83 % 1021,7 hPa 0,0 l/m² 5,3 km/h (1 Bft) NW 309 ° 2 min 193 W/m² 5,1 °C 7,8 °C 8,0 km/h (2 Bft)
20.03.2026 10:34 22,1 °C 7,8 °C 46 % 83 % 1021,8 hPa 0,0 l/m² 7,8 km/h (2 Bft) NW 304 ° 1 min 200 W/m² 5,1 °C 6,7 °C 12,9 km/h (3 Bft)
20.03.2026 10:35 22,1 °C 7,9 °C 46 % 83 % 1021,7 hPa 0,0 l/m² 6,7 km/h (2 Bft) N-NW 332 ° 1 min 206 W/m² 5,2 °C 7,7 °C 12,9 km/h (3 Bft)
20.03.2026 10:36 22,1 °C 7,9 °C 47 % 83 % 1021,8 hPa 0,0 l/m² 5,2 km/h (1 Bft) N-NW 335 ° 1 min 213 W/m² 5,2 °C 7,9 °C 8,0 km/h (2 Bft)
20.03.2026 10:37 22,1 °C 7,9 °C 47 % 83 % 1021,7 hPa 0,0 l/m² 7,2 km/h (2 Bft) N 355 ° 1 min 218 W/m² 5,2 °C 7,3 °C 12,9 km/h (3 Bft)
20.03.2026 10:38 22,1 °C 8,0 °C 47 % 82 % 1021,8 hPa 0,0 l/m² 11,3 km/h (2 Bft) N 349 ° 1 min 221 W/m² 5,1 °C 4,6 °C 14,5 km/h (3 Bft)
20.03.2026 10:39 22,0 °C 8,0 °C 46 % 82 % 1021,7 hPa 0,0 l/m² 9,9 km/h (2 Bft) N-NW 346 ° 1 min 227 W/m² 5,1 °C 5,4 °C 16,1 km/h (3 Bft)
20.03.2026 10:41 22,1 °C 8,1 °C 47 % 82 % 1021,7 hPa 0,0 l/m² 8,3 km/h (2 Bft) N-NW 329 ° 2 min 230 W/m² 5,2 °C 6,6 °C 12,9 km/h (3 Bft)
20.03.2026 10:43 22,1 °C 8,2 °C 47 % 82 % 1021,7 hPa 0,0 l/m² 11,2 km/h (2 Bft) N 355 ° 2 min 232 W/m² 5,3 °C 4,9 °C 16,1 km/h (3 Bft)
20.03.2026 10:44 22,1 °C 8,2 °C 47 % 81 % 1021,8 hPa 0,0 l/m² 13,1 km/h (3 Bft) NW 324 ° 1 min 234 W/m² 5,1 °C 3,9 °C 16,1 km/h (3 Bft)
20.03.2026 10:45 22,1 °C 8,2 °C 47 % 81 % 1021,8 hPa 0,0 l/m² 12,2 km/h (2 Bft) N 355 ° 1 min 237 W/m² 5,1 °C 4,3 °C 17,7 km/h (3 Bft)
20.03.2026 10:46 22,0 °C 8,3 °C 47 % 81 % 1021,7 hPa 0,0 l/m² 6,8 km/h (2 Bft) W-NW 294 ° 1 min 241 W/m² 5,2 °C 8,0 °C 9,7 km/h (2 Bft)
20.03.2026 10:47 22,0 °C 8,3 °C 47 % 81 % 1021,7 hPa 0,0 l/m² 10,5 km/h (2 Bft) N-NW 338 ° 1 min 243 W/m² 5,2 °C 5,4 °C 14,5 km/h (3 Bft)
20.03.2026 10:48 22,1 °C 8,3 °C 47 % 81 % 1021,7 hPa 0,0 l/m² 10,8 km/h (2 Bft) N-NW 340 ° 1 min 244 W/m² 5,2 °C 5,2 °C 14,5 km/h (3 Bft)
20.03.2026 10:49 22,0 °C 8,3 °C 46 % 81 % 1021,7 hPa 0,0 l/m² 4,4 km/h (1 Bft) NW 311 ° 1 min 246 W/m² 5,2 °C 8,3 °C 8,0 km/h (2 Bft)
20.03.2026 10:51 22,1 °C 8,4 °C 47 % 81 % 1021,6 hPa 0,0 l/m² 3,8 km/h (1 Bft) N 355 ° 2 min 257 W/m² 5,3 °C 8,4 °C 8,0 km/h (2 Bft)
20.03.2026 10:53 22,0 °C 8,5 °C 47 % 81 % 1021,7 hPa 0,0 l/m² 7,4 km/h (2 Bft) N 355 ° 2 min 265 W/m² 5,4 °C 7,7 °C 12,9 km/h (3 Bft)
20.03.2026 10:54 22,0 °C 8,6 °C 47 % 81 % 1021,7 hPa 0,0 l/m² 5,3 km/h (1 Bft) N-NW 339 ° 1 min 262 W/m² 5,5 °C 8,6 °C 9,7 km/h (2 Bft)
20.03.2026 10:55 22,0 °C 8,6 °C 47 % 81 % 1021,7 hPa 0,0 l/m² 12,2 km/h (2 Bft) N-NW 338 ° 1 min 260 W/m² 5,5 °C 4,8 °C 14,5 km/h (3 Bft)
20.03.2026 10:56 22,0 °C 8,6 °C 47 % 80 % 1021,7 hPa 0,0 l/m² 8,2 km/h (2 Bft) NW 320 ° 1 min 258 W/m² 5,3 °C 7,2 °C 12,9 km/h (3 Bft)
20.03.2026 10:57 22,1 °C 8,7 °C 47 % 80 % 1021,7 hPa 0,0 l/m² 6,5 km/h (2 Bft) NW 320 ° 1 min 244 W/m² 5,4 °C 8,6 °C 8,0 km/h (2 Bft)
20.03.2026 10:58 22,1 °C 8,7 °C 47 % 80 % 1021,7 hPa 0,0 l/m² 6,3 km/h (2 Bft) W-NW 302 ° 1 min 239 W/m² 5,4 °C 8,7 °C 8,0 km/h (2 Bft)
20.03.2026 10:59 22,1 °C 8,8 °C 47 % 80 % 1021,7 hPa 0,0 l/m² 4,8 km/h (1 Bft) W-NW 300 ° 1 min 241 W/m² 5,5 °C 8,8 °C 6,4 km/h (2 Bft)
20.03.2026 11:01 22,1 °C 8,8 °C 47 % 80 % 1021,7 hPa 0,0 l/m² 2,1 km/h (1 Bft) N-NW 339 ° 2 min 241 W/m² 5,5 °C 8,8 °C 6,4 km/h (2 Bft)
20.03.2026 11:03 22,1 °C 8,9 °C 47 % 79 % 1021,6 hPa 0,0 l/m² 5,2 km/h (1 Bft) W-NW 288 ° 2 min 258 W/m² 5,5 °C 8,9 °C 9,7 km/h (2 Bft)
20.03.2026 11:04 22,0 °C 8,9 °C 47 % 79 % 1021,7 hPa 0,0 l/m² 5,3 km/h (1 Bft) NW 306 ° 1 min 267 W/m² 5,5 °C 8,9 °C 8,0 km/h (2 Bft)
20.03.2026 11:05 22,0 °C 8,9 °C 47 % 79 % 1021,7 hPa 0,0 l/m² 2,5 km/h (1 Bft) NW 311 ° 1 min 279 W/m² 5,5 °C 8,9 °C 6,4 km/h (2 Bft)
20.03.2026 11:06 22,1 °C 9,0 °C 47 % 79 % 1021,6 hPa 0,0 l/m² 6,9 km/h (2 Bft) N-NW 329 ° 1 min 301 W/m² 5,6 °C 8,6 °C 9,7 km/h (2 Bft)
20.03.2026 11:08 22,1 °C 9,1 °C 47 % 79 % 1021,7 hPa 0,0 l/m² 7,9 km/h (2 Bft) N-NW 338 ° 2 min 297 W/m² 5,7 °C 8,0 °C 12,9 km/h (3 Bft)
20.03.2026 11:09 22,1 °C 9,1 °C 47 % 79 % 1021,7 hPa 0,0 l/m² 7,2 km/h (2 Bft) N-NW 344 ° 1 min 283 W/m² 5,7 °C 8,5 °C 9,7 km/h (2 Bft)
20.03.2026 11:11 22,1 °C 9,2 °C 47 % 78 % 1021,7 hPa 0,0 l/m² 4,4 km/h (1 Bft) NW 317 ° 2 min 272 W/m² 5,6 °C 9,2 °C 9,7 km/h (2 Bft)
20.03.2026 11:12 22,1 °C 9,2 °C 47 % 78 % 1021,6 hPa 0,0 l/m² 5,0 km/h (1 Bft) N-NW 332 ° 1 min 260 W/m² 5,6 °C 9,2 °C 8,0 km/h (2 Bft)
20.03.2026 11:13 22,0 °C 9,3 °C 47 % 78 % 1021,5 hPa 0,0 l/m² 6,6 km/h (2 Bft) NW 315 ° 1 min 255 W/m² 5,7 °C 9,2 °C 9,7 km/h (2 Bft)
20.03.2026 11:14 22,0 °C 9,3 °C 47 % 78 % 1021,6 hPa 0,0 l/m² 4,7 km/h (1 Bft) W-NW 300 ° 1 min 258 W/m² 5,7 °C 9,3 °C 6,4 km/h (2 Bft)
20.03.2026 11:15 22,1 °C 9,3 °C 47 % 77 % 1021,5 hPa 0,0 l/m² 5,3 km/h (1 Bft) NW 314 ° 1 min 267 W/m² 5,5 °C 9,3 °C 8,0 km/h (2 Bft)
20.03.2026 11:16 22,1 °C 9,4 °C 47 % 77 % 1021,5 hPa 0,0 l/m² 1,9 km/h (1 Bft) W-NW 292 ° 1 min 267 W/m² 5,6 °C 9,4 °C 6,4 km/h (2 Bft)
20.03.2026 11:17 22,1 °C 9,4 °C 47 % 77 % 1021,5 hPa 0,0 l/m² 2,9 km/h (1 Bft) N-NW 338 ° 1 min 264 W/m² 5,6 °C 9,4 °C 4,8 km/h (1 Bft)
20.03.2026 11:18 22,1 °C 9,4 °C 47 % 77 % 1021,6 hPa 0,0 l/m² 0,7 km/h (0 Bft) N-NW 336 ° 1 min 267 W/m² 5,6 °C 9,4 °C 3,2 km/h (1 Bft)
20.03.2026 11:19 22,1 °C 9,5 °C 47 % 77 % 1021,5 hPa 0,0 l/m² 0,0 km/h (0 Bft) N-NW 334 ° 1 min 329 W/m² 5,7 °C 9,5 °C 0,0 km/h (0 Bft)
20.03.2026 11:21 22,1 °C 9,6 °C 47 % 77 % 1021,4 hPa 0,0 l/m² 2,7 km/h (1 Bft) N-NW 336 ° 2 min 257 W/m² 5,8 °C 9,6 °C 6,4 km/h (2 Bft)
20.03.2026 11:23 22,0 °C 9,6 °C 47 % 76 % 1021,5 hPa 0,0 l/m² 3,8 km/h (1 Bft) NW 306 ° 2 min 272 W/m² 5,6 °C 9,6 °C 6,4 km/h (2 Bft)
20.03.2026 11:24 22,0 °C 9,6 °C 47 % 76 % 1021,5 hPa 0,0 l/m² 7,3 km/h (2 Bft) NW 321 ° 1 min 309 W/m² 5,6 °C 8,9 °C 9,7 km/h (2 Bft)
20.03.2026 11:25 22,1 °C 9,7 °C 47 % 75 % 1021,5 hPa 0,0 l/m² 5,8 km/h (2 Bft) W-NW 292 ° 1 min 369 W/m² 5,5 °C 9,7 °C 8,0 km/h (2 Bft)
20.03.2026 11:26 22,1 °C 9,7 °C 47 % 74 % 1021,5 hPa 0,0 l/m² 5,8 km/h (2 Bft) NW 319 ° 1 min 369 W/m² 5,3 °C 9,7 °C 8,0 km/h (2 Bft)
20.03.2026 11:27 22,1 °C 9,8 °C 47 % 74 % 1021,4 hPa 0,0 l/m² 4,7 km/h (1 Bft) NW 319 ° 1 min 531 W/m² 5,4 °C 9,8 °C 8,0 km/h (2 Bft)
20.03.2026 11:28 22,1 °C 9,8 °C 47 % 74 % 1021,4 hPa 0,0 l/m² 0,6 km/h (0 Bft) NW 319 ° 1 min 513 W/m² 5,4 °C 9,8 °C 3,2 km/h (1 Bft)
20.03.2026 11:29 22,1 °C 9,8 °C 47 % 74 % 1021,4 hPa 0,0 l/m² 0,2 km/h (0 Bft) NW 319 ° 1 min 441 W/m² 5,4 °C 9,8 °C 1,6 km/h (1 Bft)
20.03.2026 11:31 22,1 °C 10,0 °C 47 % 74 % 1021,4 hPa 0,0 l/m² 0,0 km/h (0 Bft) NW 319 ° 2 min 429 W/m² 5,6 °C 10,0 °C 1,6 km/h (1 Bft)
20.03.2026 11:33 22,1 °C 10,1 °C 47 % 74 % 1021,4 hPa 0,0 l/m² 0,0 km/h (0 Bft) NW 319 ° 2 min 408 W/m² 5,7 °C 10,1 °C 1,6 km/h (1 Bft)
20.03.2026 11:34 22,1 °C 10,2 °C 47 % 74 % 1021,5 hPa 0,0 l/m² 2,9 km/h (1 Bft) NO 35 ° 1 min 374 W/m² 5,8 °C 10,2 °C 4,8 km/h (1 Bft)
20.03.2026 11:35 22,1 °C 10,3 °C 47 % 74 % 1021,5 hPa 0,0 l/m² 5,0 km/h (1 Bft) NO 46 ° 1 min 403 W/m² 5,9 °C 10,3 °C 6,4 km/h (2 Bft)
20.03.2026 11:36 22,1 °C 10,3 °C 47 % 73 % 1021,4 hPa 0,0 l/m² 1,7 km/h (1 Bft) NO 46 ° 1 min 432 W/m² 5,7 °C 10,3 °C 4,8 km/h (1 Bft)
20.03.2026 11:37 22,1 °C 10,4 °C 47 % 72 % 1021,5 hPa 0,0 l/m² 0,6 km/h (0 Bft) NO 35 ° 1 min 466 W/m² 5,6 °C 10,4 °C 3,2 km/h (1 Bft)
20.03.2026 11:38 22,1 °C 10,5 °C 47 % 72 % 1021,4 hPa 0,0 l/m² 0,0 km/h (0 Bft) NO 35 ° 1 min 545 W/m² 5,7 °C 10,5 °C 0,0 km/h (0 Bft)
20.03.2026 11:39 22,1 °C 10,6 °C 47 % 72 % 1021,4 hPa 0,0 l/m² 0,1 km/h (0 Bft) NO 35 ° 1 min 527 W/m² 5,8 °C 10,6 °C 1,6 km/h (1 Bft)
20.03.2026 11:41 22,1 °C 10,7 °C 47 % 72 % 1021,4 hPa 0,0 l/m² 0,1 km/h (0 Bft) NO 34 ° 2 min 489 W/m² 5,9 °C 10,7 °C 1,6 km/h (1 Bft)
20.03.2026 11:43 22,1 °C 10,9 °C 47 % 72 % 1021,4 hPa 0,0 l/m² 4,1 km/h (1 Bft) N-NW 338 ° 2 min 371 W/m² 6,1 °C 10,9 °C 14,5 km/h (3 Bft)
20.03.2026 11:44 22,1 °C 11,0 °C 47 % 72 % 1021,4 hPa 0,0 l/m² 10,5 km/h (2 Bft) N 355 ° 1 min 327 W/m² 6,2 °C 8,4 °C 14,5 km/h (3 Bft)
20.03.2026 11:45 22,1 °C 11,1 °C 47 % 71 % 1021,4 hPa 0,0 l/m² 6,0 km/h (2 Bft) N-NW 348 ° 1 min 332 W/m² 6,0 °C 11,1 °C 8,0 km/h (2 Bft)
20.03.2026 11:46 22,1 °C 11,2 °C 47 % 70 % 1021,4 hPa 0,0 l/m² 3,2 km/h (1 Bft) NO 44 ° 1 min 332 W/m² 5,9 °C 11,2 °C 6,4 km/h (2 Bft)
20.03.2026 11:47 22,1 °C 11,2 °C 47 % 70 % 1021,4 hPa 0,0 l/m² 2,3 km/h (1 Bft) NO 44 ° 1 min 311 W/m² 5,9 °C 11,2 °C 4,8 km/h (1 Bft)
20.03.2026 11:48 22,1 °C 11,3 °C 47 % 70 % 1021,4 hPa 0,0 l/m² 0,3 km/h (0 Bft) NO 44 ° 1 min 301 W/m² 6,0 °C 11,3 °C 3,2 km/h (1 Bft)
20.03.2026 11:49 22,1 °C 11,3 °C 47 % 70 % 1021,4 hPa 0,0 l/m² 0,1 km/h (0 Bft) NO 44 ° 1 min 313 W/m² 6,0 °C 11,3 °C 1,6 km/h (1 Bft)
20.03.2026 11:51 22,1 °C 11,4 °C 47 % 69 % 1021,3 hPa 0,0 l/m² 0,0 km/h (0 Bft) NO 44 ° 2 min 341 W/m² 5,9 °C 11,4 °C 1,6 km/h (1 Bft)
20.03.2026 11:53 22,1 °C 11,5 °C 47 % 69 % 1021,4 hPa 0,0 l/m² 0,0 km/h (0 Bft) NO 44 ° 2 min 431 W/m² 6,0 °C 11,5 °C 0,0 km/h (0 Bft)
20.03.2026 11:54 22,1 °C 11,6 °C 47 % 69 % 1021,3 hPa 0,0 l/m² 0,0 km/h (0 Bft) NO 44 ° 1 min 452 W/m² 6,1 °C 11,6 °C 0,0 km/h (0 Bft)
20.03.2026 11:55 22,1 °C 11,6 °C 47 % 68 % 1021,4 hPa 0,0 l/m² 0,0 km/h (0 Bft) NO 44 ° 1 min 373 W/m² 5,9 °C 11,6 °C 0,0 km/h (0 Bft)
20.03.2026 11:56 22,1 °C 11,7 °C 47 % 69 % 1021,3 hPa 0,0 l/m² 0,0 km/h (0 Bft) NO 44 ° 1 min 366 W/m² 6,2 °C 11,7 °C 0,0 km/h (0 Bft)
20.03.2026 11:57 22,1 °C 11,7 °C 47 % 70 % 1021,3 hPa 0,0 l/m² 0,8 km/h (0 Bft) N-NO 19 ° 1 min 406 W/m² 6,4 °C 11,7 °C 4,8 km/h (1 Bft)
20.03.2026 11:58 22,1 °C 11,8 °C 47 % 70 % 1021,3 hPa 0,0 l/m² 4,1 km/h (1 Bft) N 355 ° 1 min 381 W/m² 6,5 °C 11,8 °C 6,4 km/h (2 Bft)
20.03.2026 11:59 22,1 °C 11,8 °C 47 % 70 % 1021,3 hPa 0,0 l/m² 5,4 km/h (2 Bft) NW 323 ° 1 min 380 W/m² 6,5 °C 11,8 °C 8,0 km/h (2 Bft)
20.03.2026 12:00 22,1 °C 11,9 °C 47 % 69 % 1021,3 hPa 0,0 l/m² 4,8 km/h (1 Bft) N 360 ° 1 min 418 W/m² 6,4 °C 11,9 °C 6,4 km/h (2 Bft)
20.03.2026 12:06 22,1 °C 12,2 °C 47 % 69 % 1021,3 hPa 0,0 l/m² 0,0 km/h (0 Bft) N-NO 27 ° 6 min 322 W/m² 6,7 °C 12,2 °C 0,0 km/h (0 Bft)
20.03.2026 12:08 22,1 °C 12,3 °C 47 % 69 % 1021,4 hPa 0,0 l/m² 0,1 km/h (0 Bft) N-NO 27 ° 2 min 329 W/m² 6,8 °C 12,3 °C 1,6 km/h (1 Bft)
20.03.2026 12:09 22,1 °C 12,3 °C 47 % 69 % 1021,4 hPa 0,0 l/m² 0,1 km/h (0 Bft) N-NO 27 ° 1 min 306 W/m² 6,8 °C 12,3 °C 1,6 km/h (1 Bft)
20.03.2026 12:11 22,1 °C 12,3 °C 47 % 69 % 1021,3 hPa 0,0 l/m² 2,2 km/h (1 Bft) N 11 ° 2 min 374 W/m² 6,8 °C 12,3 °C 6,4 km/h (2 Bft)
20.03.2026 12:12 22,1 °C 12,4 °C 47 % 68 % 1021,3 hPa 0,0 l/m² 3,0 km/h (1 Bft) N 11 ° 1 min 403 W/m² 6,7 °C 12,4 °C 4,8 km/h (1 Bft)
20.03.2026 12:14 22,1 °C 12,4 °C 47 % 68 % 1021,2 hPa 0,0 l/m² 0,4 km/h (0 Bft) N 5 ° 2 min 710 W/m² 6,7 °C 12,4 °C 3,2 km/h (1 Bft)
20.03.2026 12:15 22,1 °C 12,4 °C 47 % 68 % 1021,2 hPa 0,0 l/m² 1,1 km/h (1 Bft) N 5 ° 1 min 649 W/m² 6,7 °C 12,4 °C 3,2 km/h (1 Bft)
20.03.2026 12:16 22,1 °C 12,6 °C 47 % 68 % 1021,2 hPa 0,0 l/m² 1,3 km/h (1 Bft) N 9 ° 1 min 705 W/m² 6,9 °C 12,6 °C 4,8 km/h (1 Bft)
20.03.2026 12:18 22,2 °C 12,7 °C 47 % 68 % 1021,1 hPa 0,0 l/m² 0,5 km/h (0 Bft) N 9 ° 2 min 408 W/m² 6,9 °C 12,7 °C 3,2 km/h (1 Bft)
20.03.2026 12:20 22,2 °C 12,8 °C 47 % 68 % 1021,2 hPa 0,0 l/m² 1,8 km/h (1 Bft) N 9 ° 2 min 675 W/m² 7,0 °C 12,8 °C 4,8 km/h (1 Bft)
20.03.2026 12:22 22,2 °C 13,1 °C 47 % 68 % 1021,1 hPa 0,0 l/m² 0,0 km/h (0 Bft) N 9 ° 2 min 687 W/m² 7,3 °C 13,1 °C 0,0 km/h (0 Bft)
20.03.2026 12:23 22,2 °C 13,1 °C 47 % 66 % 1021,1 hPa 0,0 l/m² 0,0 km/h (0 Bft) N 9 ° 1 min 682 W/m² 6,9 °C 13,1 °C 0,0 km/h (0 Bft)
20.03.2026 12:24 22,2 °C 13,2 °C 47 % 66 % 1021,1 hPa 0,0 l/m² 0,0 km/h (0 Bft) N 9 ° 1 min 686 W/m² 7,0 °C 13,2 °C 0,0 km/h (0 Bft)
20.03.2026 12:26 22,2 °C 13,3 °C 47 % 65 % 1021,1 hPa 0,0 l/m² 0,2 km/h (0 Bft) N 9 ° 2 min 698 W/m² 6,9 °C 13,3 °C 1,6 km/h (1 Bft)
20.03.2026 12:28 22,2 °C 13,4 °C 47 % 65 % 1021,0 hPa 0,0 l/m² 1,0 km/h (0 Bft) SW 225 ° 2 min 701 W/m² 7,0 °C 13,4 °C 4,8 km/h (1 Bft)
20.03.2026 12:30 22,2 °C 13,6 °C 47 % 64 % 1021,1 hPa 0,0 l/m² 2,9 km/h (1 Bft) W-SW 249 ° 2 min 700 W/m² 6,9 °C 13,6 °C 4,8 km/h (1 Bft)
20.03.2026 12:32 22,3 °C 13,7 °C 47 % 64 % 1021,1 hPa 0,0 l/m² 0,0 km/h (0 Bft) W-SW 249 ° 2 min 687 W/m² 7,0 °C 13,7 °C 0,0 km/h (0 Bft)
20.03.2026 12:33 22,3 °C 13,7 °C 47 % 64 % 1021,1 hPa 0,0 l/m² 0,0 km/h (0 Bft) W-SW 249 ° 1 min 647 W/m² 7,0 °C 13,7 °C 0,0 km/h (0 Bft)
20.03.2026 12:34 22,3 °C 13,8 °C 47 % 64 % 1021,0 hPa 0,0 l/m² 0,1 km/h (0 Bft) W-SW 253 ° 1 min 677 W/m² 7,1 °C 13,8 °C 1,6 km/h (1 Bft)
20.03.2026 12:36 22,3 °C 13,9 °C 47 % 64 % 1021,0 hPa 0,0 l/m² 0,0 km/h (0 Bft) W-SW 248 ° 2 min 675 W/m² 7,2 °C 13,9 °C 1,6 km/h (1 Bft)
20.03.2026 12:38 22,3 °C 14,0 °C 47 % 63 % 1021,0 hPa 0,0 l/m² 0,3 km/h (0 Bft) W 273 ° 2 min 679 W/m² 7,1 °C 14,0 °C 3,2 km/h (1 Bft)
20.03.2026 12:40 22,3 °C 14,1 °C 47 % 62 % 1021,0 hPa 0,0 l/m² 1,4 km/h (1 Bft) W 281 ° 2 min 694 W/m² 6,9 °C 14,1 °C 4,8 km/h (1 Bft)
20.03.2026 12:42 22,3 °C 14,2 °C 47 % 61 % 1020,9 hPa 0,0 l/m² 2,4 km/h (1 Bft) W 271 ° 2 min 687 W/m² 6,8 °C 14,2 °C 6,4 km/h (2 Bft)
20.03.2026 12:43 22,3 °C 14,2 °C 47 % 61 % 1020,9 hPa 0,0 l/m² 2,4 km/h (1 Bft) W 271 ° 1 min 686 W/m² 6,8 °C 14,2 °C 4,8 km/h (1 Bft)
20.03.2026 12:45 22,3 °C 14,2 °C 47 % 60 % 1020,9 hPa 0,0 l/m² 2,6 km/h (1 Bft) W-NW 286 ° 2 min 719 W/m² 6,5 °C 14,2 °C 4,8 km/h (1 Bft)
20.03.2026 12:47 22,3 °C 14,3 °C 47 % 60 % 1020,9 hPa 0,0 l/m² 0,7 km/h (0 Bft) W-NW 286 ° 2 min 633 W/m² 6,6 °C 14,3 °C 3,2 km/h (1 Bft)
20.03.2026 12:49 22,3 °C 14,4 °C 47 % 62 % 1020,8 hPa 0,0 l/m² 0,0 km/h (0 Bft) SW 232 ° 2 min 844 W/m² 7,2 °C 14,4 °C 1,6 km/h (1 Bft)
20.03.2026 12:51 22,4 °C 14,4 °C 47 % 61 % 1020,9 hPa 0,0 l/m² 0,3 km/h (0 Bft) S-SW 207 ° 2 min 629 W/m² 7,0 °C 14,4 °C 1,6 km/h (1 Bft)
20.03.2026 12:52 22,4 °C 14,5 °C 47 % 61 % 1020,9 hPa 0,0 l/m² 5,2 km/h (1 Bft) N-NW 334 ° 1 min 628 W/m² 7,1 °C 14,5 °C 9,7 km/h (2 Bft)
20.03.2026 12:53 22,4 °C 14,6 °C 47 % 61 % 1020,8 hPa 0,0 l/m² 5,7 km/h (2 Bft) N-NW 327 ° 1 min 819 W/m² 7,2 °C 14,6 °C 9,7 km/h (2 Bft)
20.03.2026 12:55 22,4 °C 14,7 °C 47 % 60 % 1020,8 hPa 0,0 l/m² 4,4 km/h (1 Bft) N-NW 333 ° 2 min 819 W/m² 7,0 °C 14,7 °C 8,0 km/h (2 Bft)
20.03.2026 12:57 22,4 °C 14,7 °C 47 % 60 % 1020,8 hPa 0,0 l/m² 0,5 km/h (0 Bft) N-NW 329 ° 2 min 466 W/m² 7,0 °C 14,7 °C 4,8 km/h (1 Bft)
20.03.2026 12:59 22,4 °C 14,8 °C 47 % 60 % 1020,7 hPa 0,0 l/m² 3,7 km/h (1 Bft) N 5 ° 2 min 466 W/m² 7,1 °C 14,8 °C 8,0 km/h (2 Bft)
20.03.2026 13:01 22,4 °C 14,8 °C 47 % 59 % 1020,8 hPa 0,0 l/m² 5,2 km/h (1 Bft) N 355 ° 2 min 367 W/m² 6,9 °C 14,8 °C 9,7 km/h (2 Bft)
20.03.2026 13:02 22,4 °C 14,8 °C 47 % 58 % 1020,8 hPa 0,0 l/m² 4,4 km/h (1 Bft) N-NO 30 ° 1 min 357 W/m² 6,6 °C 14,8 °C 8,0 km/h (2 Bft)
20.03.2026 13:03 22,4 °C 14,8 °C 47 % 58 % 1020,7 hPa 0,0 l/m² 0,9 km/h (0 Bft) N-NO 28 ° 1 min 353 W/m² 6,6 °C 14,8 °C 3,2 km/h (1 Bft)
20.03.2026 13:04 22,4 °C 14,8 °C 47 % 58 % 1020,8 hPa 0,0 l/m² 0,0 km/h (0 Bft) N-NO 28 ° 1 min 336 W/m² 6,6 °C 14,8 °C 0,0 km/h (0 Bft)
20.03.2026 13:06 22,4 °C 14,8 °C 47 % 59 % 1020,7 hPa 0,0 l/m² 3,1 km/h (1 Bft) N-NO 26 ° 2 min 302 W/m² 6,9 °C 14,8 °C 8,0 km/h (2 Bft)
20.03.2026 13:08 22,3 °C 14,8 °C 47 % 58 % 1020,6 hPa 0,0 l/m² 4,7 km/h (1 Bft) N 355 ° 2 min 292 W/m² 6,6 °C 14,8 °C 8,0 km/h (2 Bft)
20.03.2026 13:10 22,3 °C 14,8 °C 47 % 57 % 1020,6 hPa 0,0 l/m² 3,4 km/h (1 Bft) N-NO 17 ° 2 min 297 W/m² 6,4 °C 14,8 °C 6,4 km/h (2 Bft)
20.03.2026 13:12 22,4 °C 14,8 °C 47 % 58 % 1020,6 hPa 0,0 l/m² 4,5 km/h (1 Bft) N-NW 327 ° 2 min 294 W/m² 6,6 °C 14,8 °C 6,4 km/h (2 Bft)
20.03.2026 13:13 22,3 °C 14,8 °C 47 % 58 % 1020,6 hPa 0,0 l/m² 3,0 km/h (1 Bft) NW 317 ° 1 min 288 W/m² 6,6 °C 14,8 °C 4,8 km/h (1 Bft)
20.03.2026 13:15 22,3 °C 14,7 °C 47 % 58 % 1020,6 hPa 0,0 l/m² 4,2 km/h (1 Bft) NW 320 ° 2 min 251 W/m² 6,5 °C 14,7 °C 6,4 km/h (2 Bft)
20.03.2026 13:17 22,4 °C 14,7 °C 47 % 58 % 1020,5 hPa 0,0 l/m² 1,0 km/h (0 Bft) NW 325 ° 2 min 251 W/m² 6,5 °C 14,7 °C 4,8 km/h (1 Bft)
20.03.2026 13:19 22,3 °C 14,6 °C 47 % 58 % 1020,5 hPa 0,0 l/m² 1,4 km/h (1 Bft) N-NW 328 ° 2 min 248 W/m² 6,4 °C 14,6 °C 4,8 km/h (1 Bft)
20.03.2026 13:21 22,3 °C 14,6 °C 47 % 58 % 1020,5 hPa 0,0 l/m² 2,1 km/h (1 Bft) N-NO 26 ° 2 min 267 W/m² 6,4 °C 14,6 °C 4,8 km/h (1 Bft)
20.03.2026 13:22 22,3 °C 14,5 °C 47 % 59 % 1020,5 hPa 0,0 l/m² 0,4 km/h (0 Bft) N-NO 17 ° 1 min 315 W/m² 6,6 °C 14,5 °C 1,6 km/h (1 Bft)
20.03.2026 13:23 22,3 °C 14,5 °C 47 % 59 % 1020,5 hPa 0,0 l/m² 3,5 km/h (1 Bft) N 355 ° 1 min 334 W/m² 6,6 °C 14,5 °C 6,4 km/h (2 Bft)
20.03.2026 13:25 22,3 °C 14,5 °C 47 % 58 % 1020,5 hPa 0,0 l/m² 0,2 km/h (0 Bft) N 355 ° 2 min 789 W/m² 6,3 °C 14,5 °C 1,6 km/h (1 Bft)
20.03.2026 13:27 22,3 °C 14,5 °C 47 % 59 % 1020,4 hPa 0,0 l/m² 2,0 km/h (1 Bft) N-NO 15 ° 2 min 805 W/m² 6,6 °C 14,5 °C 4,8 km/h (1 Bft)
20.03.2026 13:29 22,3 °C 14,5 °C 47 % 59 % 1020,4 hPa 0,0 l/m² 0,0 km/h (0 Bft) W 269 ° 2 min 789 W/m² 6,6 °C 14,5 °C 1,6 km/h (1 Bft)
20.03.2026 13:31 22,3 °C 14,6 °C 47 % 59 % 1020,4 hPa 0,0 l/m² 0,0 km/h (0 Bft) W 263 ° 2 min 784 W/m² 6,7 °C 14,6 °C 0,0 km/h (0 Bft)
20.03.2026 13:32 22,3 °C 14,6 °C 47 % 59 % 1020,4 hPa 0,0 l/m² 0,0 km/h (0 Bft) W-SW 248 ° 1 min 784 W/m² 6,7 °C 14,6 °C 0,0 km/h (0 Bft)
20.03.2026 13:33 22,3 °C 14,6 °C 47 % 59 % 1020,4 hPa 0,0 l/m² 0,0 km/h (0 Bft) S-SW 211 ° 1 min 784 W/m² 6,7 °C 14,6 °C 0,0 km/h (0 Bft)
20.03.2026 13:35 22,3 °C 14,7 °C 47 % 59 % 1020,4 hPa 0,0 l/m² 0,0 km/h (0 Bft) S-SW 211 ° 2 min 643 W/m² 6,8 °C 14,7 °C 0,0 km/h (0 Bft)
20.03.2026 13:37 22,3 °C 14,8 °C 47 % 58 % 1020,4 hPa 0,0 l/m² 0,0 km/h (0 Bft) S-SW 211 ° 2 min 726 W/m² 6,6 °C 14,8 °C 0,0 km/h (0 Bft)
20.03.2026 13:39 22,3 °C 14,9 °C 47 % 59 % 1020,3 hPa 0,0 l/m² 1,7 km/h (1 Bft) O 96 ° 2 min 733 W/m² 7,0 °C 14,9 °C 6,4 km/h (2 Bft)
20.03.2026 13:41 22,3 °C 14,9 °C 47 % 60 % 1020,2 hPa 0,0 l/m² 3,6 km/h (1 Bft) NO 34 ° 2 min 207 W/m² 7,2 °C 14,9 °C 6,4 km/h (2 Bft)
20.03.2026 13:42 22,3 °C 15,0 °C 47 % 59 % 1020,2 hPa 0,0 l/m² 0,3 km/h (0 Bft) N-NO 32 ° 1 min 181 W/m² 7,1 °C 15,0 °C 1,6 km/h (1 Bft)
20.03.2026 13:43 22,4 °C 15,0 °C 47 % 58 % 1020,3 hPa 0,0 l/m² 0,0 km/h (0 Bft) N-NO 32 ° 1 min 169 W/m² 6,8 °C 15,0 °C 0,0 km/h (0 Bft)
20.03.2026 13:45 22,4 °C 15,0 °C 47 % 58 % 1020,3 hPa 0,0 l/m² 0,0 km/h (0 Bft) N-NO 32 ° 2 min 144 W/m² 6,8 °C 15,0 °C 0,0 km/h (0 Bft)
20.03.2026 13:47 22,3 °C 15,0 °C 47 % 58 % 1020,2 hPa 0,0 l/m² 2,5 km/h (1 Bft) NW 311 ° 2 min 125 W/m² 6,8 °C 15,0 °C 8,0 km/h (2 Bft)
20.03.2026 13:49 22,3 °C 14,9 °C 47 % 58 % 1020,2 hPa 0,0 l/m² 4,3 km/h (1 Bft) NW 308 ° 2 min 104 W/m² 6,7 °C 14,9 °C 6,4 km/h (2 Bft)
20.03.2026 13:51 22,3 °C 14,8 °C 46 % 58 % 1020,2 hPa 0,0 l/m² 3,6 km/h (1 Bft) NW 309 ° 2 min 95 W/m² 6,6 °C 14,8 °C 6,4 km/h (2 Bft)
20.03.2026 13:52 22,3 °C 14,8 °C 46 % 58 % 1020,2 hPa 0,0 l/m² 2,1 km/h (1 Bft) NW 311 ° 1 min 95 W/m² 6,6 °C 14,8 °C 4,8 km/h (1 Bft)
20.03.2026 13:53 22,3 °C 14,8 °C 46 % 58 % 1020,2 hPa 0,0 l/m² 0,6 km/h (0 Bft) NW 311 ° 1 min 97 W/m² 6,6 °C 14,8 °C 3,2 km/h (1 Bft)
20.03.2026 13:55 22,3 °C 14,7 °C 46 % 58 % 1020,1 hPa 0,0 l/m² 0,2 km/h (0 Bft) NW 315 ° 2 min 104 W/m² 6,5 °C 14,7 °C 1,6 km/h (1 Bft)
20.03.2026 13:57 22,3 °C 14,7 °C 46 % 59 % 1020,1 hPa 0,0 l/m² 0,4 km/h (0 Bft) W-NW 303 ° 2 min 125 W/m² 6,8 °C 14,7 °C 1,6 km/h (1 Bft)
20.03.2026 13:59 22,3 °C 14,6 °C 46 % 59 % 1020,1 hPa 0,0 l/m² 0,4 km/h (0 Bft) W-NW 302 ° 2 min 615 W/m² 6,7 °C 14,6 °C 3,2 km/h (1 Bft)
20.03.2026 14:01 22,3 °C 14,6 °C 46 % 60 % 1020,1 hPa 0,0 l/m² 0,6 km/h (0 Bft) NW 305 ° 2 min 621 W/m² 6,9 °C 14,6 °C 1,6 km/h (1 Bft)
20.03.2026 14:03 22,3 °C 14,6 °C 46 % 60 % 1020,1 hPa 0,0 l/m² 4,7 km/h (1 Bft) NW 304 ° 2 min 622 W/m² 6,9 °C 14,6 °C 6,4 km/h (2 Bft)
20.03.2026 14:04 22,3 °C 14,6 °C 46 % 60 % 1020,1 hPa 0,0 l/m² 1,6 km/h (1 Bft) NW 314 ° 1 min 621 W/m² 6,9 °C 14,6 °C 3,2 km/h (1 Bft)
20.03.2026 14:06 22,3 °C 14,6 °C 46 % 60 % 1020,0 hPa 0,0 l/m² 0,0 km/h (0 Bft) NW 314 ° 2 min 635 W/m² 6,9 °C 14,6 °C 1,6 km/h (1 Bft)
20.03.2026 14:08 22,3 °C 14,7 °C 46 % 60 % 1020,1 hPa 0,0 l/m² 1,6 km/h (1 Bft) W-NW 287 ° 2 min 642 W/m² 7,0 °C 14,7 °C 4,8 km/h (1 Bft)
20.03.2026 14:10 22,3 °C 14,8 °C 46 % 58 % 1020,1 hPa 0,0 l/m² 0,4 km/h (0 Bft) W-NW 295 ° 2 min 649 W/m² 6,6 °C 14,8 °C 1,6 km/h (1 Bft)
20.03.2026 14:12 22,3 °C 14,8 °C 46 % 59 % 1020,1 hPa 0,0 l/m² 2,6 km/h (1 Bft) W-SW 249 ° 2 min 664 W/m² 6,9 °C 14,8 °C 6,4 km/h (2 Bft)
20.03.2026 14:13 22,3 °C 14,8 °C 46 % 58 % 1020,1 hPa 0,0 l/m² 0,7 km/h (0 Bft) W-SW 249 ° 1 min 679 W/m² 6,6 °C 14,8 °C 1,6 km/h (1 Bft)
20.03.2026 14:14 22,3 °C 14,8 °C 46 % 58 % 1020,0 hPa 0,0 l/m² 0,0 km/h (0 Bft) W-SW 249 ° 1 min 696 W/m² 6,6 °C 14,8 °C 0,0 km/h (0 Bft)
20.03.2026 14:16 22,3 °C 14,9 °C 46 % 58 % 1020,0 hPa 0,0 l/m² 2,0 km/h (1 Bft) W 259 ° 2 min 728 W/m² 6,7 °C 14,9 °C 6,4 km/h (2 Bft)
20.03.2026 14:18 22,3 °C 15,1 °C 46 % 58 % 1020,0 hPa 0,0 l/m² 0,6 km/h (0 Bft) W 259 ° 2 min 765 W/m² 6,9 °C 15,1 °C 4,8 km/h (1 Bft)
20.03.2026 14:20 22,3 °C 15,2 °C 46 % 59 % 1019,9 hPa 0,0 l/m² 0,0 km/h (0 Bft) S-SW 192 ° 2 min 550 W/m² 7,2 °C 15,2 °C 0,0 km/h (0 Bft)
20.03.2026 14:22 22,3 °C 15,3 °C 46 % 57 % 1019,9 hPa 0,0 l/m² 0,5 km/h (0 Bft) S-SW 193 ° 2 min 547 W/m² 6,8 °C 15,3 °C 3,2 km/h (1 Bft)
20.03.2026 14:23 22,3 °C 15,3 °C 46 % 58 % 1019,9 hPa 0,0 l/m² 0,0 km/h (0 Bft) S-SW 193 ° 1 min 545 W/m² 7,1 °C 15,3 °C 0,0 km/h (0 Bft)
20.03.2026 14:24 22,3 °C 15,4 °C 46 % 58 % 1019,9 hPa 0,0 l/m² 0,3 km/h (0 Bft) W-SW 256 ° 1 min 544 W/m² 7,2 °C 15,4 °C 1,6 km/h (1 Bft)
20.03.2026 14:26 22,3 °C 15,5 °C 46 % 59 % 1019,8 hPa 0,0 l/m² 2,9 km/h (1 Bft) W-SW 246 ° 2 min 735 W/m² 7,5 °C 15,5 °C 12,9 km/h (3 Bft)
20.03.2026 14:28 22,3 °C 15,6 °C 46 % 57 % 1019,8 hPa 0,0 l/m² 6,3 km/h (2 Bft) S 171 ° 2 min 714 W/m² 7,1 °C 15,6 °C 11,3 km/h (2 Bft)
20.03.2026 14:30 22,3 °C 15,7 °C 46 % 57 % 1019,9 hPa 0,0 l/m² 2,4 km/h (1 Bft) S-SO 168 ° 2 min 714 W/m² 7,2 °C 15,7 °C 6,4 km/h (2 Bft)
20.03.2026 14:32 22,3 °C 15,7 °C 46 % 56 % 1019,8 hPa 0,0 l/m² 0,2 km/h (0 Bft) S-SW 211 ° 2 min 671 W/m² 6,9 °C 15,7 °C 1,6 km/h (1 Bft)
20.03.2026 14:33 22,3 °C 15,7 °C 46 % 57 % 1019,8 hPa 0,0 l/m² 0,8 km/h (0 Bft) W-SW 237 ° 1 min 666 W/m² 7,2 °C 15,7 °C 3,2 km/h (1 Bft)
20.03.2026 14:34 22,3 °C 15,8 °C 46 % 56 % 1019,7 hPa 0,0 l/m² 2,6 km/h (1 Bft) W 275 ° 1 min 603 W/m² 7,0 °C 15,8 °C 4,8 km/h (1 Bft)
20.03.2026 14:36 22,3 °C 15,8 °C 46 % 56 % 1019,8 hPa 0,0 l/m² 0,0 km/h (0 Bft) W 276 ° 2 min 640 W/m² 7,0 °C 15,8 °C 0,0 km/h (0 Bft)
20.03.2026 14:38 22,3 °C 15,9 °C 46 % 56 % 1019,9 hPa 0,0 l/m² 2,8 km/h (1 Bft) W-NW 301 ° 2 min 622 W/m² 7,1 °C 15,9 °C 9,7 km/h (2 Bft)
20.03.2026 14:40 22,3 °C 16,0 °C 46 % 54 % 1019,8 hPa 0,0 l/m² 6,0 km/h (2 Bft) N-NW 344 ° 2 min 171 W/m² 6,7 °C 16,0 °C 12,9 km/h (3 Bft)
20.03.2026 14:42 22,3 °C 16,0 °C 46 % 53 % 1019,9 hPa 0,0 l/m² 5,3 km/h (1 Bft) N 355 ° 2 min 148 W/m² 6,4 °C 16,0 °C 8,0 km/h (2 Bft)
20.03.2026 14:43 22,3 °C 15,9 °C 46 % 53 % 1019,9 hPa 0,0 l/m² 5,5 km/h (2 Bft) N-NO 16 ° 1 min 141 W/m² 6,3 °C 15,9 °C 8,0 km/h (2 Bft)
20.03.2026 14:44 22,3 °C 16,0 °C 47 % 53 % 1019,9 hPa 0,0 l/m² 5,4 km/h (2 Bft) N 355 ° 1 min 135 W/m² 6,4 °C 16,0 °C 8,0 km/h (2 Bft)
20.03.2026 14:46 22,3 °C 15,9 °C 47 % 52 % 1019,8 hPa 0,0 l/m² 4,8 km/h (1 Bft) N-NW 340 ° 2 min 125 W/m² 6,1 °C 15,9 °C 8,0 km/h (2 Bft)
20.03.2026 14:48 22,3 °C 15,9 °C 47 % 52 % 1019,8 hPa 0,0 l/m² 2,6 km/h (1 Bft) N-NW 340 ° 2 min 134 W/m² 6,1 °C 15,9 °C 6,4 km/h (2 Bft)
20.03.2026 14:50 22,3 °C 15,8 °C 47 % 53 % 1019,9 hPa 0,0 l/m² 6,8 km/h (2 Bft) N 355 ° 2 min 130 W/m² 6,2 °C 15,6 °C 12,9 km/h (3 Bft)
20.03.2026 14:52 22,3 °C 15,7 °C 47 % 53 % 1019,8 hPa 0,0 l/m² 6,4 km/h (2 Bft) NW 306 ° 2 min 127 W/m² 6,1 °C 15,7 °C 9,7 km/h (2 Bft)
20.03.2026 14:53 22,3 °C 15,7 °C 47 % 54 % 1019,8 hPa 0,0 l/m² 3,2 km/h (1 Bft) NW 324 ° 1 min 127 W/m² 6,4 °C 15,7 °C 4,8 km/h (1 Bft)
20.03.2026 14:54 22,3 °C 15,6 °C 47 % 54 % 1019,8 hPa 0,0 l/m² 5,4 km/h (2 Bft) N-NW 342 ° 1 min 121 W/m² 6,3 °C 15,6 °C 6,4 km/h (2 Bft)
20.03.2026 14:56 22,3 °C 15,4 °C 47 % 54 % 1019,7 hPa 0,0 l/m² 6,4 km/h (2 Bft) N-NW 342 ° 2 min 111 W/m² 6,1 °C 15,4 °C 9,7 km/h (2 Bft)
20.03.2026 14:58 22,3 °C 15,3 °C 47 % 54 % 1019,7 hPa 0,0 l/m² 3,9 km/h (1 Bft) NW 319 ° 2 min 151 W/m² 6,0 °C 15,3 °C 6,4 km/h (2 Bft)
20.03.2026 15:00 22,3 °C 15,3 °C 47 % 55 % 1019,7 hPa 0,0 l/m² 5,1 km/h (1 Bft) NW 313 ° 2 min 83 W/m² 6,3 °C 15,3 °C 8,0 km/h (2 Bft)
20.03.2026 15:02 22,3 °C 15,1 °C 47 % 55 % 1019,6 hPa 0,0 l/m² 6,3 km/h (2 Bft) NW 319 ° 2 min 86 W/m² 6,1 °C 15,1 °C 9,7 km/h (2 Bft)
20.03.2026 15:03 22,3 °C 15,1 °C 47 % 55 % 1019,6 hPa 0,0 l/m² 5,6 km/h (2 Bft) N-NW 338 ° 1 min 79 W/m² 6,1 °C 15,1 °C 6,4 km/h (2 Bft)
20.03.2026 15:05 22,3 °C 14,9 °C 47 % 55 % 1019,7 hPa 0,0 l/m² 6,9 km/h (2 Bft) NW 315 ° 2 min 90 W/m² 5,9 °C 14,6 °C 9,7 km/h (2 Bft)
20.03.2026 15:06 22,3 °C 14,8 °C 47 % 55 % 1019,6 hPa 0,0 l/m² 5,6 km/h (2 Bft) NW 311 ° 1 min 88 W/m² 5,8 °C 14,8 °C 8,0 km/h (2 Bft)
20.03.2026 15:08 22,3 °C 14,7 °C 47 % 55 % 1019,6 hPa 0,0 l/m² 8,1 km/h (2 Bft) NW 306 ° 2 min 313 W/m² 5,8 °C 13,7 °C 14,5 km/h (3 Bft)
20.03.2026 15:10 22,3 °C 14,5 °C 47 % 55 % 1019,7 hPa 0,0 l/m² 5,7 km/h (2 Bft) W-NW 302 ° 2 min 100 W/m² 5,6 °C 14,5 °C 12,9 km/h (3 Bft)
20.03.2026 15:12 22,3 °C 14,4 °C 47 % 54 % 1019,6 hPa 0,0 l/m² 4,0 km/h (1 Bft) W-NW 289 ° 2 min 506 W/m² 5,2 °C 14,4 °C 6,4 km/h (2 Bft)
20.03.2026 15:13 22,3 °C 14,3 °C 47 % 55 % 1019,6 hPa 0,0 l/m² 3,3 km/h (1 Bft) N-NW 332 ° 1 min 475 W/m² 5,4 °C 14,3 °C 8,0 km/h (2 Bft)
20.03.2026 15:14 22,3 °C 14,3 °C 47 % 55 % 1019,5 hPa 0,0 l/m² 4,5 km/h (1 Bft) W 276 ° 1 min 512 W/m² 5,4 °C 14,3 °C 9,7 km/h (2 Bft)
20.03.2026 15:16 22,3 °C 14,3 °C 48 % 54 % 1019,5 hPa 0,0 l/m² 7,0 km/h (2 Bft) NW 305 ° 2 min 519 W/m² 5,1 °C 13,9 °C 11,3 km/h (2 Bft)
20.03.2026 15:18 22,3 °C 14,2 °C 48 % 54 % 1019,6 hPa 0,0 l/m² 6,8 km/h (2 Bft) W-NW 290 ° 2 min 515 W/m² 5,0 °C 14,0 °C 11,3 km/h (2 Bft)
20.03.2026 15:20 22,3 °C 14,2 °C 48 % 55 % 1019,6 hPa 0,0 l/m² 4,9 km/h (1 Bft) W 275 ° 2 min 541 W/m² 5,3 °C 14,2 °C 9,7 km/h (2 Bft)
20.03.2026 15:22 22,3 °C 14,3 °C 48 % 54 % 1019,5 hPa 0,0 l/m² 5,4 km/h (2 Bft) W 276 ° 2 min 561 W/m² 5,1 °C 14,3 °C 12,9 km/h (3 Bft)
20.03.2026 15:23 22,3 °C 14,3 °C 48 % 54 % 1019,5 hPa 0,0 l/m² 5,8 km/h (2 Bft) W-NW 288 ° 1 min 561 W/m² 5,1 °C 14,3 °C 11,3 km/h (2 Bft)
20.03.2026 15:24 22,3 °C 14,3 °C 48 % 54 % 1019,4 hPa 0,0 l/m² 8,3 km/h (2 Bft) W 273 ° 1 min 555 W/m² 5,1 °C 13,2 °C 11,3 km/h (2 Bft)
20.03.2026 15:26 22,3 °C 14,4 °C 48 % 55 % 1019,4 hPa 0,0 l/m² 9,2 km/h (2 Bft) W-SW 244 ° 2 min 552 W/m² 5,5 °C 12,8 °C 14,5 km/h (3 Bft)
20.03.2026 15:28 22,3 °C 14,6 °C 48 % 57 % 1019,4 hPa 0,0 l/m² 6,0 km/h (2 Bft) W 268 ° 2 min 536 W/m² 6,2 °C 14,6 °C 9,7 km/h (2 Bft)
20.03.2026 15:30 22,3 °C 14,7 °C 48 % 56 % 1019,3 hPa 0,0 l/m² 4,6 km/h (1 Bft) W-SW 242 ° 2 min 529 W/m² 6,0 °C 14,7 °C 11,3 km/h (2 Bft)
20.03.2026 15:32 22,3 °C 14,8 °C 48 % 55 % 1019,3 hPa 0,0 l/m² 8,8 km/h (2 Bft) W 281 ° 2 min 519 W/m² 5,8 °C 13,5 °C 14,5 km/h (3 Bft)
20.03.2026 15:33 22,3 °C 14,9 °C 48 % 54 % 1019,3 hPa 0,0 l/m² 11,0 km/h (2 Bft) W-SW 239 ° 1 min 513 W/m² 5,7 °C 12,6 °C 16,1 km/h (3 Bft)
20.03.2026 15:34 22,3 °C 14,9 °C 48 % 54 % 1019,3 hPa 0,0 l/m² 8,0 km/h (2 Bft) W 269 ° 1 min 510 W/m² 5,7 °C 14,0 °C 11,3 km/h (2 Bft)
20.03.2026 15:36 22,3 °C 15,0 °C 48 % 56 % 1019,3 hPa 0,0 l/m² 1,4 km/h (1 Bft) W 277 ° 2 min 504 W/m² 6,3 °C 15,0 °C 9,7 km/h (2 Bft)
20.03.2026 15:38 22,3 °C 15,1 °C 48 % 55 % 1019,3 hPa 0,0 l/m² 2,7 km/h (1 Bft) N-NW 336 ° 2 min 494 W/m² 6,1 °C 15,1 °C 8,0 km/h (2 Bft)
20.03.2026 15:40 22,3 °C 15,2 °C 48 % 53 % 1019,3 hPa 0,0 l/m² 10,8 km/h (2 Bft) N-NW 338 ° 2 min 476 W/m² 5,7 °C 13,0 °C 19,3 km/h (3 Bft)
20.03.2026 15:42 22,3 °C 15,3 °C 48 % 52 % 1019,3 hPa 0,0 l/m² 9,4 km/h (2 Bft) N-NW 342 ° 2 min 459 W/m² 5,5 °C 13,7 °C 20,9 km/h (4 Bft)
20.03.2026 15:43 22,3 °C 15,3 °C 48 % 52 % 1019,3 hPa 0,0 l/m² 5,0 km/h (1 Bft) NO 45 ° 1 min 450 W/m² 5,5 °C 15,3 °C 9,7 km/h (2 Bft)
20.03.2026 15:45 22,3 °C 15,4 °C 48 % 52 % 1019,3 hPa 0,0 l/m² 7,6 km/h (2 Bft) N 5 ° 2 min 434 W/m² 5,6 °C 14,7 °C 17,7 km/h (3 Bft)
20.03.2026 15:47 22,4 °C 15,5 °C 47 % 51 % 1019,3 hPa 0,0 l/m² 9,0 km/h (2 Bft) NO 55 ° 2 min 424 W/m² 5,4 °C 14,1 °C 14,5 km/h (3 Bft)
20.03.2026 15:49 22,4 °C 15,6 °C 47 % 51 % 1019,3 hPa 0,0 l/m² 7,2 km/h (2 Bft) N 5 ° 2 min 380 W/m² 5,5 °C 15,2 °C 14,5 km/h (3 Bft)
20.03.2026 15:51 22,3 °C 15,6 °C 47 % 51 % 1019,2 hPa 0,0 l/m² 6,9 km/h (2 Bft) N 11 ° 2 min 396 W/m² 5,5 °C 15,3 °C 9,7 km/h (2 Bft)
20.03.2026 15:52 22,3 °C 15,6 °C 47 % 50 % 1019,2 hPa 0,0 l/m² 8,8 km/h (2 Bft) N 355 ° 1 min 401 W/m² 5,2 °C 14,3 °C 12,9 km/h (3 Bft)
20.03.2026 15:53 22,3 °C 15,6 °C 46 % 51 % 1019,2 hPa 0,0 l/m² 5,7 km/h (2 Bft) N-NO 21 ° 1 min 385 W/m² 5,5 °C 15,6 °C 11,3 km/h (2 Bft)
20.03.2026 15:55 22,3 °C 15,7 °C 46 % 52 % 1019,3 hPa 0,0 l/m² 4,2 km/h (1 Bft) N-NW 340 ° 2 min 385 W/m² 5,9 °C 15,7 °C 8,0 km/h (2 Bft)
20.03.2026 15:57 22,3 °C 15,7 °C 46 % 51 % 1019,2 hPa 0,0 l/m² 4,5 km/h (1 Bft) N-NW 345 ° 2 min 383 W/m² 5,6 °C 15,7 °C 8,0 km/h (2 Bft)
20.03.2026 15:59 22,3 °C 15,8 °C 46 % 50 % 1019,3 hPa 0,0 l/m² 5,2 km/h (1 Bft) N-NW 348 ° 2 min 381 W/m² 5,4 °C 15,8 °C 11,3 km/h (2 Bft)
20.03.2026 16:01 22,3 °C 15,8 °C 46 % 49 % 1019,2 hPa 0,0 l/m² 6,4 km/h (2 Bft) NW 322 ° 2 min 381 W/m² 5,1 °C 15,8 °C 12,9 km/h (3 Bft)
20.03.2026 16:02 22,3 °C 15,7 °C 46 % 49 % 1019,2 hPa 0,0 l/m² 6,3 km/h (2 Bft) NW 317 ° 1 min 380 W/m² 5,0 °C 15,7 °C 9,7 km/h (2 Bft)
20.03.2026 16:03 22,3 °C 15,7 °C 46 % 49 % 1019,2 hPa 0,0 l/m² 4,9 km/h (1 Bft) W-NW 302 ° 1 min 380 W/m² 5,0 °C 15,7 °C 6,4 km/h (2 Bft)
20.03.2026 16:05 22,3 °C 15,8 °C 46 % 48 % 1019,1 hPa 0,0 l/m² 1,2 km/h (1 Bft) NW 317 ° 2 min 380 W/m² 4,8 °C 15,8 °C 4,8 km/h (1 Bft)
20.03.2026 16:07 22,3 °C 15,8 °C 45 % 47 % 1019,1 hPa 0,0 l/m² 4,3 km/h (1 Bft) W 275 ° 2 min 373 W/m² 4,5 °C 15,8 °C 8,0 km/h (2 Bft)
20.03.2026 16:09 22,3 °C 15,8 °C 46 % 47 % 1019,1 hPa 0,0 l/m² 0,8 km/h (0 Bft) W-NW 298 ° 2 min 385 W/m² 4,5 °C 15,8 °C 4,8 km/h (1 Bft)
20.03.2026 16:11 22,3 °C 15,9 °C 46 % 48 % 1019,0 hPa 0,0 l/m² 0,7 km/h (0 Bft) W-NW 302 ° 2 min 403 W/m² 4,9 °C 15,9 °C 4,8 km/h (1 Bft)
20.03.2026 16:12 22,3 °C 15,9 °C 46 % 48 % 1019,0 hPa 0,0 l/m² 4,7 km/h (1 Bft) NW 322 ° 1 min 397 W/m² 4,9 °C 15,9 °C 8,0 km/h (2 Bft)
20.03.2026 16:13 22,3 °C 15,9 °C 46 % 48 % 1019,0 hPa 0,0 l/m² 5,2 km/h (1 Bft) N-NW 345 ° 1 min 411 W/m² 4,9 °C 15,9 °C 8,0 km/h (2 Bft)
20.03.2026 16:15 22,3 °C 16,0 °C 46 % 48 % 1019,0 hPa 0,0 l/m² 5,2 km/h (1 Bft) N 5 ° 2 min 415 W/m² 5,0 °C 16,0 °C 9,7 km/h (2 Bft)
20.03.2026 16:17 22,3 °C 16,1 °C 46 % 48 % 1019,0 hPa 0,0 l/m² 8,5 km/h (2 Bft) N 11 ° 2 min 383 W/m² 5,1 °C 15,0 °C 16,1 km/h (3 Bft)
20.03.2026 16:19 22,3 °C 16,1 °C 46 % 48 % 1019,1 hPa 0,0 l/m² 10,4 km/h (2 Bft) N-NW 341 ° 2 min 362 W/m² 5,1 °C 14,2 °C 17,7 km/h (3 Bft)
20.03.2026 16:21 22,3 °C 16,1 °C 46 % 48 % 1019,1 hPa 0,0 l/m² 12,7 km/h (3 Bft) N 360 ° 2 min 350 W/m² 5,1 °C 13,3 °C 20,9 km/h (4 Bft)
20.03.2026 16:22 22,3 °C 16,0 °C 46 % 48 % 1019,1 hPa 0,0 l/m² 15,8 km/h (3 Bft) N 360 ° 1 min 350 W/m² 5,0 °C 12,2 °C 17,7 km/h (3 Bft)
20.03.2026 16:23 22,3 °C 15,9 °C 46 % 48 % 1019,0 hPa 0,0 l/m² 13,6 km/h (3 Bft) N-NO 25 ° 1 min 339 W/m² 4,9 °C 12,7 °C 20,9 km/h (4 Bft)
20.03.2026 16:25 22,3 °C 15,8 °C 46 % 48 % 1019,0 hPa 0,0 l/m² 13,1 km/h (3 Bft) N-NO 13 ° 2 min 323 W/m² 4,8 °C 12,8 °C 19,3 km/h (3 Bft)
20.03.2026 16:27 22,3 °C 15,7 °C 46 % 49 % 1019,0 hPa 0,0 l/m² 8,5 km/h (2 Bft) N 5 ° 2 min 308 W/m² 5,0 °C 14,6 °C 19,3 km/h (3 Bft)
20.03.2026 16:29 22,3 °C 15,7 °C 46 % 49 % 1019,0 hPa 0,0 l/m² 8,6 km/h (2 Bft) NO 39 ° 2 min 301 W/m² 5,0 °C 14,5 °C 14,5 km/h (3 Bft)
20.03.2026 16:31 22,3 °C 15,5 °C 46 % 48 % 1018,9 hPa 0,0 l/m² 11,7 km/h (2 Bft) N-NW 347 ° 2 min 292 W/m² 4,5 °C 13,0 °C 17,7 km/h (3 Bft)
20.03.2026 16:32 22,3 °C 15,4 °C 46 % 48 % 1018,9 hPa 0,0 l/m² 8,6 km/h (2 Bft) W-NW 290 ° 1 min 292 W/m² 4,4 °C 14,2 °C 14,5 km/h (3 Bft)
20.03.2026 16:33 22,3 °C 15,4 °C 46 % 48 % 1018,9 hPa 0,0 l/m² 9,3 km/h (2 Bft) N-NW 341 ° 1 min 287 W/m² 4,4 °C 13,9 °C 12,9 km/h (3 Bft)
20.03.2026 16:35 22,3 °C 15,4 °C 46 % 48 % 1018,9 hPa 0,0 l/m² 11,7 km/h (2 Bft) N-NW 339 ° 2 min 281 W/m² 4,4 °C 12,8 °C 20,9 km/h (4 Bft)
20.03.2026 16:37 22,3 °C 15,3 °C 46 % 48 % 1018,8 hPa 0,0 l/m² 9,4 km/h (2 Bft) N-NW 348 ° 2 min 276 W/m² 4,4 °C 13,7 °C 16,1 km/h (3 Bft)
20.03.2026 16:39 22,3 °C 15,3 °C 46 % 48 % 1018,8 hPa 0,0 l/m² 7,9 km/h (2 Bft) N-NW 347 ° 2 min 257 W/m² 4,4 °C 14,5 °C 14,5 km/h (3 Bft)
20.03.2026 16:41 22,3 °C 15,3 °C 46 % 47 % 1019,0 hPa 0,0 l/m² 13,4 km/h (3 Bft) NW 316 ° 2 min 151 W/m² 4,1 °C 12,1 °C 17,7 km/h (3 Bft)
20.03.2026 16:42 22,3 °C 15,3 °C 46 % 47 % 1019,0 hPa 0,0 l/m² 8,8 km/h (2 Bft) NW 323 ° 1 min 141 W/m² 4,1 °C 14,0 °C 12,9 km/h (3 Bft)
20.03.2026 16:43 22,3 °C 15,2 °C 46 % 46 % 1018,9 hPa 0,0 l/m² 6,8 km/h (2 Bft) N-NW 333 ° 1 min 146 W/m² 3,7 °C 15,0 °C 8,0 km/h (2 Bft)
20.03.2026 16:45 22,3 °C 15,2 °C 46 % 47 % 1019,0 hPa 0,0 l/m² 5,9 km/h (2 Bft) N-NW 344 ° 2 min 165 W/m² 4,0 °C 15,2 °C 9,7 km/h (2 Bft)
20.03.2026 16:47 22,3 °C 15,1 °C 46 % 47 % 1019,0 hPa 0,0 l/m² 5,5 km/h (2 Bft) N-NW 344 ° 2 min 151 W/m² 3,9 °C 15,1 °C 9,7 km/h (2 Bft)
20.03.2026 16:49 22,3 °C 15,1 °C 46 % 48 % 1019,1 hPa 0,0 l/m² 6,2 km/h (2 Bft) NW 323 ° 2 min 163 W/m² 4,2 °C 15,1 °C 9,7 km/h (2 Bft)
20.03.2026 16:51 22,3 °C 15,0 °C 46 % 47 % 1019,0 hPa 0,0 l/m² 5,0 km/h (1 Bft) N-NO 19 ° 2 min 134 W/m² 3,8 °C 15,0 °C 8,0 km/h (2 Bft)
20.03.2026 16:52 22,3 °C 14,9 °C 46 % 47 % 1019,0 hPa 0,0 l/m² 5,4 km/h (2 Bft) NW 316 ° 1 min 141 W/m² 3,7 °C 14,9 °C 8,0 km/h (2 Bft)
20.03.2026 16:53 22,3 °C 14,9 °C 46 % 47 % 1019,0 hPa 0,0 l/m² 5,2 km/h (1 Bft) N-NW 327 ° 1 min 149 W/m² 3,7 °C 14,9 °C 8,0 km/h (2 Bft)
20.03.2026 16:55 22,3 °C 14,9 °C 46 % 48 % 1019,1 hPa 0,0 l/m² 4,4 km/h (1 Bft) N-NW 331 ° 2 min 90 W/m² 4,0 °C 14,9 °C 6,4 km/h (2 Bft)
20.03.2026 16:57 22,3 °C 14,9 °C 46 % 48 % 1019,1 hPa 0,0 l/m² 5,2 km/h (1 Bft) N-NW 336 ° 2 min 86 W/m² 4,0 °C 14,9 °C 8,0 km/h (2 Bft)
20.03.2026 16:59 22,3 °C 14,8 °C 46 % 47 % 1019,0 hPa 0,0 l/m² 6,2 km/h (2 Bft) N-NW 333 ° 2 min 104 W/m² 3,6 °C 14,8 °C 9,7 km/h (2 Bft)
20.03.2026 17:01 22,3 °C 14,8 °C 46 % 48 % 1019,0 hPa 0,0 l/m² 5,8 km/h (2 Bft) N-NW 333 ° 2 min 114 W/m² 3,9 °C 14,8 °C 8,0 km/h (2 Bft)
20.03.2026 17:02 22,3 °C 14,8 °C 46 % 48 % 1019,0 hPa 0,0 l/m² 5,3 km/h (1 Bft) N-NW 331 ° 1 min 114 W/m² 3,9 °C 14,8 °C 6,4 km/h (2 Bft)
20.03.2026 17:03 22,3 °C 14,8 °C 46 % 48 % 1019,1 hPa 0,0 l/m² 5,2 km/h (1 Bft) NW 311 ° 1 min 113 W/m² 3,9 °C 14,8 °C 6,4 km/h (2 Bft)
20.03.2026 17:05 22,2 °C 14,7 °C 46 % 49 % 1019,0 hPa 0,0 l/m² 5,7 km/h (2 Bft) N-NW 333 ° 2 min 104 W/m² 4,1 °C 14,7 °C 9,7 km/h (2 Bft)
20.03.2026 17:07 22,2 °C 14,7 °C 46 % 50 % 1018,9 hPa 0,0 l/m² 5,4 km/h (2 Bft) NW 325 ° 2 min 84 W/m² 4,4 °C 14,7 °C 8,0 km/h (2 Bft)
20.03.2026 17:08 22,2 °C 14,6 °C 46 % 50 % 1019,0 hPa 0,0 l/m² 6,5 km/h (2 Bft) NW 315 ° 1 min 91 W/m² 4,3 °C 14,6 °C 8,0 km/h (2 Bft)
20.03.2026 17:09 22,2 °C 14,6 °C 46 % 51 % 1019,0 hPa 0,0 l/m² 5,8 km/h (2 Bft) NW 318 ° 1 min 111 W/m² 4,6 °C 14,6 °C 8,0 km/h (2 Bft)
20.03.2026 17:11 22,2 °C 14,6 °C 46 % 51 % 1019,0 hPa 0,0 l/m² 7,9 km/h (2 Bft) NW 324 ° 2 min 70 W/m² 4,6 °C 13,7 °C 14,5 km/h (3 Bft)
20.03.2026 17:12 22,2 °C 14,6 °C 46 % 52 % 1019,0 hPa 0,0 l/m² 5,8 km/h (2 Bft) N-NW 330 ° 1 min 63 W/m² 4,9 °C 14,6 °C 12,9 km/h (3 Bft)
20.03.2026 17:13 22,2 °C 14,5 °C 46 % 52 % 1018,9 hPa 0,0 l/m² 4,5 km/h (1 Bft) NW 318 ° 1 min 81 W/m² 4,8 °C 14,5 °C 6,4 km/h (2 Bft)
20.03.2026 17:15 22,2 °C 14,4 °C 46 % 52 % 1018,9 hPa 0,0 l/m² 5,4 km/h (2 Bft) NW 318 ° 2 min 107 W/m² 4,7 °C 14,4 °C 12,9 km/h (3 Bft)
20.03.2026 17:17 22,2 °C 14,3 °C 46 % 53 % 1018,9 hPa 0,0 l/m² 5,2 km/h (1 Bft) NW 313 ° 2 min 118 W/m² 4,9 °C 14,3 °C 8,0 km/h (2 Bft)
20.03.2026 17:19 22,2 °C 14,3 °C 46 % 53 % 1018,9 hPa 0,0 l/m² 5,5 km/h (2 Bft) NW 322 ° 2 min 98 W/m² 4,9 °C 14,3 °C 8,0 km/h (2 Bft)
20.03.2026 17:21 22,2 °C 14,2 °C 46 % 53 % 1018,9 hPa 0,0 l/m² 4,1 km/h (1 Bft) NW 316 ° 2 min 107 W/m² 4,8 °C 14,2 °C 8,0 km/h (2 Bft)
20.03.2026 17:22 22,2 °C 14,2 °C 46 % 53 % 1018,9 hPa 0,0 l/m² 5,3 km/h (1 Bft) NW 309 ° 1 min 98 W/m² 4,8 °C 14,2 °C 8,0 km/h (2 Bft)
20.03.2026 17:23 22,2 °C 14,2 °C 46 % 53 % 1018,9 hPa 0,0 l/m² 5,4 km/h (2 Bft) NW 311 ° 1 min 95 W/m² 4,8 °C 14,2 °C 6,4 km/h (2 Bft)
20.03.2026 17:25 22,2 °C 14,1 °C 46 % 53 % 1018,9 hPa 0,0 l/m² 5,3 km/h (1 Bft) NW 316 ° 2 min 81 W/m² 4,7 °C 14,1 °C 8,0 km/h (2 Bft)
20.03.2026 17:27 22,2 °C 14,1 °C 46 % 52 % 1018,9 hPa 0,0 l/m² 7,4 km/h (2 Bft) W-NW 290 ° 2 min 79 W/m² 4,4 °C 13,5 °C 12,9 km/h (3 Bft)
20.03.2026 17:29 22,2 °C 14,0 °C 46 % 52 % 1018,9 hPa 0,0 l/m² 6,7 km/h (2 Bft) N-NW 329 ° 2 min 72 W/m² 4,3 °C 13,8 °C 11,3 km/h (2 Bft)
20.03.2026 17:31 22,2 °C 13,9 °C 46 % 52 % 1018,9 hPa 0,0 l/m² 5,2 km/h (1 Bft) N-NW 348 ° 2 min 69 W/m² 4,2 °C 13,9 °C 12,9 km/h (3 Bft)
20.03.2026 17:32 22,2 °C 13,9 °C 46 % 52 % 1018,9 hPa 0,0 l/m² 5,4 km/h (2 Bft) W-NW 302 ° 1 min 72 W/m² 4,2 °C 13,9 °C 6,4 km/h (2 Bft)
20.03.2026 17:33 22,2 °C 13,9 °C 46 % 53 % 1019,0 hPa 0,0 l/m² 6,9 km/h (2 Bft) N-NW 327 ° 1 min 79 W/m² 4,5 °C 13,6 °C 9,7 km/h (2 Bft)
20.03.2026 17:35 22,2 °C 13,8 °C 46 % 54 % 1018,9 hPa 0,0 l/m² 5,9 km/h (2 Bft) NW 317 ° 2 min 77 W/m² 4,7 °C 13,8 °C 8,0 km/h (2 Bft)
20.03.2026 17:37 22,2 °C 13,8 °C 46 % 54 % 1018,9 hPa 0,0 l/m² 4,9 km/h (1 Bft) NW 324 ° 2 min 60 W/m² 4,7 °C 13,8 °C 8,0 km/h (2 Bft)
20.03.2026 17:39 22,2 °C 13,8 °C 46 % 54 % 1018,9 hPa 0,0 l/m² 4,8 km/h (1 Bft) NW 311 ° 2 min 56 W/m² 4,7 °C 13,8 °C 9,7 km/h (2 Bft)
20.03.2026 17:41 22,2 °C 13,7 °C 46 % 54 % 1018,9 hPa 0,0 l/m² 3,9 km/h (1 Bft) N-NW 332 ° 2 min 65 W/m² 4,6 °C 13,7 °C 6,4 km/h (2 Bft)
20.03.2026 17:42 22,2 °C 13,7 °C 46 % 54 % 1018,9 hPa 0,0 l/m² 4,7 km/h (1 Bft) NW 321 ° 1 min 65 W/m² 4,6 °C 13,7 °C 6,4 km/h (2 Bft)
20.03.2026 17:43 22,2 °C 13,7 °C 46 % 55 % 1018,9 hPa 0,0 l/m² 3,0 km/h (1 Bft) NW 317 ° 1 min 63 W/m² 4,8 °C 13,7 °C 6,4 km/h (2 Bft)
20.03.2026 17:45 22,2 °C 13,7 °C 46 % 55 % 1019,0 hPa 0,0 l/m² 4,6 km/h (1 Bft) NW 319 ° 2 min 60 W/m² 4,8 °C 13,7 °C 6,4 km/h (2 Bft)
20.03.2026 17:47 22,2 °C 13,6 °C 46 % 55 % 1019,0 hPa 0,0 l/m² 5,2 km/h (1 Bft) NW 317 ° 2 min 62 W/m² 4,7 °C 13,6 °C 8,0 km/h (2 Bft)
20.03.2026 17:49 22,2 °C 13,6 °C 46 % 55 % 1019,0 hPa 0,0 l/m² 5,1 km/h (1 Bft) W-NW 297 ° 2 min 65 W/m² 4,7 °C 13,6 °C 8,0 km/h (2 Bft)
20.03.2026 17:51 22,1 °C 13,4 °C 46 % 55 % 1019,0 hPa 0,0 l/m² 4,6 km/h (1 Bft) W-NW 295 ° 2 min 67 W/m² 4,5 °C 13,4 °C 8,0 km/h (2 Bft)
20.03.2026 17:52 22,1 °C 13,4 °C 46 % 55 % 1019,0 hPa 0,0 l/m² 6,0 km/h (2 Bft) N 5 ° 1 min 67 W/m² 4,5 °C 13,4 °C 8,0 km/h (2 Bft)
20.03.2026 17:53 22,2 °C 13,4 °C 46 % 55 % 1019,0 hPa 0,0 l/m² 3,8 km/h (1 Bft) NW 315 ° 1 min 67 W/m² 4,5 °C 13,4 °C 4,8 km/h (1 Bft)
20.03.2026 17:55 22,1 °C 13,4 °C 46 % 56 % 1018,9 hPa 0,0 l/m² 5,5 km/h (2 Bft) NW 322 ° 2 min 60 W/m² 4,8 °C 13,4 °C 8,0 km/h (2 Bft)
20.03.2026 17:57 22,2 °C 13,3 °C 46 % 57 % 1019,0 hPa 0,0 l/m² 5,6 km/h (2 Bft) NW 317 ° 2 min 54 W/m² 5,0 °C 13,3 °C 8,0 km/h (2 Bft)
20.03.2026 17:59 22,2 °C 13,2 °C 46 % 57 % 1019,0 hPa 0,0 l/m² 5,6 km/h (2 Bft) NW 316 ° 0 min 49 W/m² 4,9 °C 13,2 °C 8,0 km/h (2 Bft)
20.03.2026 18:01 22,1 °C 13,2 °C 46 % 57 % 1019,0 hPa 0,0 l/m² 4,6 km/h (1 Bft) NW 324 ° 0 min 47 W/m² 4,9 °C 13,2 °C 8,0 km/h (2 Bft)
20.03.2026 18:02 22,1 °C 13,1 °C 46 % 57 % 1019,0 hPa 0,0 l/m² 5,7 km/h (2 Bft) NW 311 ° 0 min 47 W/m² 4,8 °C 13,1 °C 6,4 km/h (2 Bft)
20.03.2026 18:03 22,1 °C 13,1 °C 46 % 57 % 1019,0 hPa 0,0 l/m² 5,5 km/h (2 Bft) NW 318 ° 0 min 44 W/m² 4,8 °C 13,1 °C 6,4 km/h (2 Bft)
20.03.2026 18:05 22,1 °C 13,1 °C 46 % 58 % 1019,0 hPa 0,0 l/m² 5,0 km/h (1 Bft) N 360 ° 0 min 33 W/m² 5,0 °C 13,1 °C 8,0 km/h (2 Bft)
20.03.2026 18:07 22,1 °C 12,9 °C 46 % 57 % 1019,1 hPa 0,0 l/m² 6,7 km/h (2 Bft) N 360 ° 0 min 28 W/m² 4,6 °C 12,7 °C 9,7 km/h (2 Bft)
20.03.2026 18:09 22,1 °C 12,9 °C 47 % 57 % 1019,1 hPa 0,0 l/m² 7,1 km/h (2 Bft) N 350 ° 0 min 23 W/m² 4,6 °C 12,5 °C 16,1 km/h (3 Bft)
20.03.2026 18:11 22,1 °C 12,8 °C 47 % 57 % 1019,2 hPa 0,0 l/m² 10,1 km/h (2 Bft) N-NO 15 ° 0 min 18 W/m² 4,5 °C 10,6 °C 17,7 km/h (3 Bft)
20.03.2026 18:12 22,1 °C 12,8 °C 47 % 57 % 1019,2 hPa 0,0 l/m² 11,5 km/h (2 Bft) N 9 ° 0 min 16 W/m² 4,5 °C 10,0 °C 14,5 km/h (3 Bft)
20.03.2026 18:13 22,1 °C 12,7 °C 47 % 58 % 1019,1 hPa 0,0 l/m² 7,0 km/h (2 Bft) N-NO 13 ° 0 min 14 W/m² 4,7 °C 12,3 °C 12,9 km/h (3 Bft)
20.03.2026 18:15 22,1 °C 12,7 °C 47 % 59 % 1019,1 hPa 0,0 l/m² 5,6 km/h (2 Bft) N-NO 30 ° 0 min 12 W/m² 4,9 °C 12,7 °C 9,7 km/h (2 Bft)
20.03.2026 18:17 22,1 °C 12,6 °C 47 % 60 % 1019,2 hPa 0,0 l/m² 9,5 km/h (2 Bft) NO 45 ° 0 min 9 W/m² 5,0 °C 10,7 °C 16,1 km/h (3 Bft)
20.03.2026 18:19 22,1 °C 12,5 °C 47 % 61 % 1019,2 hPa 0,0 l/m² 11,6 km/h (2 Bft) O-NO 57 ° 0 min 7 W/m² 5,2 °C 9,6 °C 17,7 km/h (3 Bft)
20.03.2026 18:21 22,1 °C 12,4 °C 47 % 62 % 1019,2 hPa 0,0 l/m² 9,2 km/h (2 Bft) O-NO 65 ° 0 min 5 W/m² 5,3 °C 10,7 °C 16,1 km/h (3 Bft)
20.03.2026 18:22 22,1 °C 12,4 °C 47 % 62 % 1019,2 hPa 0,0 l/m² 11,6 km/h (2 Bft) O-NO 76 ° 0 min 5 W/m² 5,3 °C 9,5 °C 14,5 km/h (3 Bft)
20.03.2026 18:23 22,1 °C 12,3 °C 47 % 62 % 1019,3 hPa 0,0 l/m² 12,0 km/h (2 Bft) O-NO 72 ° 0 min 0 W/m² 5,2 °C 9,2 °C 14,5 km/h (3 Bft)
20.03.2026 18:25 22,1 °C 12,3 °C 47 % 63 % 1019,2 hPa 0,0 l/m² 11,3 km/h (2 Bft) O-NO 67 ° 0 min 0 W/m² 5,5 °C 9,5 °C 17,7 km/h (3 Bft)
20.03.2026 18:27 22,1 °C 12,2 °C 47 % 64 % 1019,2 hPa 0,0 l/m² 11,5 km/h (2 Bft) O 79 ° 0 min 0 W/m² 5,6 °C 9,3 °C 16,1 km/h (3 Bft)
20.03.2026 18:29 22,1 °C 12,1 °C 47 % 65 % 1019,3 hPa 0,0 l/m² 13,5 km/h (3 Bft) O 83 ° 0 min 0 W/m² 5,7 °C 8,3 °C 19,3 km/h (3 Bft)
20.03.2026 18:31 22,1 °C 12,0 °C 47 % 65 % 1019,3 hPa 0,0 l/m² 12,6 km/h (3 Bft) O 90 ° 0 min 0 W/m² 5,6 °C 8,5 °C 16,1 km/h (3 Bft)
20.03.2026 18:32 22,1 °C 11,9 °C 47 % 66 % 1019,3 hPa 0,0 l/m² 9,9 km/h (2 Bft) O 84 ° 0 min 0 W/m² 5,8 °C 9,7 °C 11,3 km/h (2 Bft)
20.03.2026 18:33 22,1 °C 11,9 °C 47 % 66 % 1019,3 hPa 0,0 l/m² 10,0 km/h (2 Bft) O 88 ° 0 min 0 W/m² 5,8 °C 9,7 °C 12,9 km/h (3 Bft)
20.03.2026 18:35 22,1 °C 11,8 °C 47 % 66 % 1019,3 hPa 0,0 l/m² 7,7 km/h (2 Bft) O 83 ° 0 min 0 W/m² 5,7 °C 10,9 °C 11,3 km/h (2 Bft)
20.03.2026 18:37 22,1 °C 11,7 °C 47 % 67 % 1019,2 hPa 0,0 l/m² 5,7 km/h (2 Bft) O-NO 71 ° 0 min 0 W/m² 5,8 °C 11,7 °C 11,3 km/h (2 Bft)
20.03.2026 18:39 22,1 °C 11,6 °C 47 % 67 % 1019,3 hPa 0,0 l/m² 6,5 km/h (2 Bft) O-NO 78 ° 0 min 0 W/m² 5,7 °C 11,6 °C 8,0 km/h (2 Bft)
20.03.2026 18:41 22,1 °C 11,6 °C 47 % 67 % 1019,4 hPa 0,0 l/m² 7,3 km/h (2 Bft) O-NO 75 ° 0 min 0 W/m² 5,7 °C 11,0 °C 11,3 km/h (2 Bft)
20.03.2026 18:42 22,1 °C 11,5 °C 47 % 67 % 1019,4 hPa 0,0 l/m² 8,5 km/h (2 Bft) O-NO 74 ° 0 min 0 W/m² 5,6 °C 10,1 °C 11,3 km/h (2 Bft)
20.03.2026 18:43 22,1 °C 11,4 °C 47 % 67 % 1019,3 hPa 0,0 l/m² 6,8 km/h (2 Bft) O-NO 75 ° 0 min 0 W/m² 5,5 °C 11,1 °C 11,3 km/h (2 Bft)
20.03.2026 18:45 22,1 °C 11,4 °C 47 % 68 % 1019,4 hPa 0,0 l/m² 6,0 km/h (2 Bft) O-SO 103 ° 0 min 0 W/m² 5,7 °C 11,4 °C 9,7 km/h (2 Bft)
20.03.2026 18:46 22,0 °C 11,3 °C 47 % 68 % 1019,4 hPa 0,0 l/m² 6,2 km/h (2 Bft) O 82 ° 0 min 0 W/m² 5,6 °C 11,3 °C 9,7 km/h (2 Bft)
20.03.2026 18:47 22,0 °C 11,3 °C 47 % 67 % 1019,4 hPa 0,0 l/m² 4,4 km/h (1 Bft) O 82 ° 0 min 0 W/m² 5,4 °C 11,3 °C 4,8 km/h (1 Bft)
20.03.2026 18:49 22,1 °C 11,2 °C 47 % 68 % 1019,4 hPa 0,0 l/m² 5,3 km/h (1 Bft) O 82 ° 0 min 0 W/m² 5,5 °C 11,2 °C 8,0 km/h (2 Bft)
20.03.2026 18:51 22,0 °C 11,1 °C 47 % 67 % 1019,4 hPa 0,0 l/m² 5,0 km/h (1 Bft) O-NO 76 ° 0 min 0 W/m² 5,2 °C 11,1 °C 6,4 km/h (2 Bft)
20.03.2026 18:52 22,0 °C 11,1 °C 47 % 67 % 1019,4 hPa 0,0 l/m² 4,3 km/h (1 Bft) O-NO 76 ° 0 min 0 W/m² 5,2 °C 11,1 °C 6,4 km/h (2 Bft)
20.03.2026 18:53 22,0 °C 11,1 °C 47 % 67 % 1019,4 hPa 0,0 l/m² 3,9 km/h (1 Bft) O-NO 74 ° 0 min 0 W/m² 5,2 °C 11,1 °C 6,4 km/h (2 Bft)
20.03.2026 18:55 22,0 °C 11,1 °C 47 % 67 % 1019,4 hPa 0,0 l/m² 4,3 km/h (1 Bft) O-NO 74 ° 0 min 0 W/m² 5,2 °C 11,1 °C 6,4 km/h (2 Bft)
20.03.2026 18:57 22,0 °C 11,0 °C 47 % 68 % 1019,4 hPa 0,0 l/m² 3,0 km/h (1 Bft) O-NO 74 ° 0 min 0 W/m² 5,3 °C 11,0 °C 4,8 km/h (1 Bft)
20.03.2026 18:59 22,0 °C 10,9 °C 47 % 68 % 1019,4 hPa 0,0 l/m² 2,0 km/h (1 Bft) O-NO 74 ° 0 min 0 W/m² 5,2 °C 10,9 °C 3,2 km/h (1 Bft)
20.03.2026 19:01 22,0 °C 10,9 °C 47 % 68 % 1019,5 hPa 0,0 l/m² 0,5 km/h (0 Bft) O-NO 74 ° 0 min 0 W/m² 5,2 °C 10,9 °C 3,2 km/h (1 Bft)
20.03.2026 19:02 22,0 °C 10,9 °C 47 % 68 % 1019,5 hPa 0,0 l/m² 1,0 km/h (0 Bft) O-NO 74 ° 0 min 0 W/m² 5,2 °C 10,9 °C 3,2 km/h (1 Bft)
20.03.2026 19:03 22,0 °C 10,9 °C 47 % 68 % 1019,5 hPa 0,0 l/m² 2,7 km/h (1 Bft) O-NO 74 ° 0 min 0 W/m² 5,2 °C 10,9 °C 4,8 km/h (1 Bft)
20.03.2026 19:04 22,0 °C 10,9 °C 47 % 68 % 1019,5 hPa 0,0 l/m² 2,7 km/h (1 Bft) O-NO 74 ° 0 min 0 W/m² 5,2 °C 10,9 °C 4,8 km/h (1 Bft)
20.03.2026 19:05 22,0 °C 10,8 °C 47 % 68 % 1019,5 hPa 0,0 l/m² 3,3 km/h (1 Bft) O-NO 74 ° 0 min 0 W/m² 5,1 °C 10,8 °C 4,8 km/h (1 Bft)
20.03.2026 19:07 22,0 °C 10,8 °C 47 % 69 % 1019,4 hPa 0,0 l/m² 2,6 km/h (1 Bft) O-NO 74 ° 0 min 0 W/m² 5,3 °C 10,8 °C 4,8 km/h (1 Bft)
20.03.2026 19:08 22,0 °C 10,8 °C 47 % 69 % 1019,4 hPa 0,0 l/m² 1,6 km/h (1 Bft) O-NO 74 ° 0 min 0 W/m² 5,3 °C 10,8 °C 4,8 km/h (1 Bft)
20.03.2026 19:09 22,0 °C 10,7 °C 47 % 69 % 1019,4 hPa 0,0 l/m² 3,3 km/h (1 Bft) O-NO 74 ° 0 min 0 W/m² 5,2 °C 10,7 °C 4,8 km/h (1 Bft)
20.03.2026 19:11 22,0 °C 10,7 °C 47 % 69 % 1019,4 hPa 0,0 l/m² 2,1 km/h (1 Bft) O-NO 74 ° 0 min 0 W/m² 5,2 °C 10,7 °C 4,8 km/h (1 Bft)
20.03.2026 19:13 22,0 °C 10,7 °C 47 % 69 % 1019,5 hPa 0,0 l/m² 1,8 km/h (1 Bft) O-NO 74 ° 0 min 0 W/m² 5,2 °C 10,7 °C 4,8 km/h (1 Bft)
20.03.2026 19:14 22,0 °C 10,7 °C 47 % 69 % 1019,5 hPa 0,0 l/m² 2,5 km/h (1 Bft) O-NO 74 ° 0 min 0 W/m² 5,2 °C 10,7 °C 3,2 km/h (1 Bft)
20.03.2026 19:15 22,0 °C 10,7 °C 47 % 69 % 1019,5 hPa 0,0 l/m² 0,9 km/h (0 Bft) O-NO 74 ° 0 min 0 W/m² 5,2 °C 10,7 °C 1,6 km/h (1 Bft)
20.03.2026 19:17 22,0 °C 10,6 °C 47 % 69 % 1019,5 hPa 0,0 l/m² 0,7 km/h (0 Bft) O-NO 74 ° 0 min 0 W/m² 5,2 °C 10,6 °C 1,6 km/h (1 Bft)
20.03.2026 19:19 21,9 °C 10,6 °C 47 % 69 % 1019,5 hPa 0,0 l/m² 0,5 km/h (0 Bft) O-NO 74 ° 0 min 0 W/m² 5,2 °C 10,6 °C 3,2 km/h (1 Bft)
20.03.2026 19:21 22,0 °C 10,6 °C 47 % 69 % 1019,5 hPa 0,0 l/m² 0,5 km/h (0 Bft) O-NO 74 ° 0 min 0 W/m² 5,2 °C 10,6 °C 3,2 km/h (1 Bft)
20.03.2026 19:22 22,0 °C 10,6 °C 47 % 69 % 1019,5 hPa 0,0 l/m² 2,0 km/h (1 Bft) O-NO 74 ° 0 min 0 W/m² 5,2 °C 10,6 °C 3,2 km/h (1 Bft)
20.03.2026 19:23 21,9 °C 10,5 °C 47 % 69 % 1019,5 hPa 0,0 l/m² 1,1 km/h (1 Bft) O-NO 74 ° 0 min 0 W/m² 5,1 °C 10,5 °C 1,6 km/h (1 Bft)
20.03.2026 19:25 21,9 °C 10,5 °C 47 % 69 % 1019,5 hPa 0,0 l/m² 1,4 km/h (1 Bft) O-NO 74 ° 0 min 0 W/m² 5,1 °C 10,5 °C 3,2 km/h (1 Bft)
20.03.2026 19:27 22,0 °C 10,4 °C 47 % 69 % 1019,6 hPa 0,0 l/m² 1,5 km/h (1 Bft) O-NO 72 ° 0 min 0 W/m² 5,0 °C 10,4 °C 3,2 km/h (1 Bft)
20.03.2026 19:29 22,0 °C 10,4 °C 47 % 69 % 1019,5 hPa 0,0 l/m² 2,5 km/h (1 Bft) O-NO 69 ° 0 min 0 W/m² 5,0 °C 10,4 °C 4,8 km/h (1 Bft)
20.03.2026 19:31 21,9 °C 10,4 °C 47 % 69 % 1019,5 hPa 0,0 l/m² 1,2 km/h (1 Bft) O-NO 69 ° 0 min 0 W/m² 5,0 °C 10,4 °C 3,2 km/h (1 Bft)
20.03.2026 19:32 21,9 °C 10,4 °C 47 % 70 % 1019,5 hPa 0,0 l/m² 0,5 km/h (0 Bft) O-NO 69 ° 0 min 0 W/m² 5,2 °C 10,4 °C 3,2 km/h (1 Bft)
20.03.2026 19:33 21,9 °C 10,4 °C 47 % 70 % 1019,5 hPa 0,0 l/m² 1,2 km/h (1 Bft) O-NO 69 ° 0 min 0 W/m² 5,2 °C 10,4 °C 3,2 km/h (1 Bft)
20.03.2026 19:35 21,9 °C 10,4 °C 47 % 70 % 1019,6 hPa 0,0 l/m² 1,4 km/h (1 Bft) O-NO 69 ° 0 min 0 W/m² 5,2 °C 10,4 °C 3,2 km/h (1 Bft)
20.03.2026 19:37 21,9 °C 10,3 °C 47 % 70 % 1019,6 hPa 0,0 l/m² 0,9 km/h (0 Bft) O-NO 69 ° 0 min 0 W/m² 5,1 °C 10,3 °C 3,2 km/h (1 Bft)
20.03.2026 19:39 21,9 °C 10,3 °C 47 % 70 % 1019,6 hPa 0,0 l/m² 0,6 km/h (0 Bft) O-NO 69 ° 0 min 0 W/m² 5,1 °C 10,3 °C 3,2 km/h (1 Bft)
20.03.2026 19:41 21,9 °C 10,3 °C 47 % 70 % 1019,5 hPa 0,0 l/m² 0,2 km/h (0 Bft) O-NO 69 ° 0 min 0 W/m² 5,1 °C 10,3 °C 1,6 km/h (1 Bft)
20.03.2026 19:42 21,9 °C 10,3 °C 47 % 70 % 1019,5 hPa 0,0 l/m² 0,0 km/h (0 Bft) O-NO 69 ° 0 min 0 W/m² 5,1 °C 10,3 °C 0,0 km/h (0 Bft)
20.03.2026 19:43 21,9 °C 10,3 °C 47 % 70 % 1019,6 hPa 0,0 l/m² 0,0 km/h (0 Bft) O-NO 69 ° 0 min 0 W/m² 5,1 °C 10,3 °C 0,0 km/h (0 Bft)
20.03.2026 19:45 21,9 °C 10,2 °C 47 % 70 % 1019,6 hPa 0,0 l/m² 0,0 km/h (0 Bft) O-NO 69 ° 0 min 0 W/m² 5,0 °C 10,2 °C 1,6 km/h (1 Bft)
20.03.2026 19:47 21,9 °C 10,2 °C 47 % 70 % 1019,6 hPa 0,0 l/m² 0,0 km/h (0 Bft) O-NO 69 ° 0 min 0 W/m² 5,0 °C 10,2 °C 0,0 km/h (0 Bft)
20.03.2026 19:49 21,9 °C 10,2 °C 47 % 71 % 1019,6 hPa 0,0 l/m² 0,0 km/h (0 Bft) O-NO 69 ° 0 min 0 W/m² 5,2 °C 10,2 °C 0,0 km/h (0 Bft)
20.03.2026 19:51 22,0 °C 10,2 °C 47 % 71 % 1019,6 hPa 0,0 l/m² 0,0 km/h (0 Bft) O-NO 69 ° 0 min 0 W/m² 5,2 °C 10,2 °C 0,0 km/h (0 Bft)
20.03.2026 19:52 22,0 °C 10,2 °C 47 % 72 % 1019,6 hPa 0,0 l/m² 0,0 km/h (0 Bft) O-NO 69 ° 0 min 0 W/m² 5,4 °C 10,2 °C 0,0 km/h (0 Bft)
20.03.2026 19:53 21,9 °C 10,2 °C 47 % 72 % 1019,4 hPa 0,0 l/m² 0,0 km/h (0 Bft) O-NO 69 ° 0 min 0 W/m² 5,4 °C 10,2 °C 0,0 km/h (0 Bft)
20.03.2026 19:55 21,9 °C 10,2 °C 47 % 73 % 1019,5 hPa 0,0 l/m² 0,0 km/h (0 Bft) O-NO 69 ° 0 min 0 W/m² 5,6 °C 10,2 °C 0,0 km/h (0 Bft)
20.03.2026 19:57 21,9 °C 10,2 °C 47 % 73 % 1019,5 hPa 0,0 l/m² 0,0 km/h (0 Bft) O-NO 69 ° 0 min 0 W/m² 5,6 °C 10,2 °C 0,0 km/h (0 Bft)
20.03.2026 19:59 21,9 °C 10,1 °C 47 % 73 % 1019,5 hPa 0,0 l/m² 0,0 km/h (0 Bft) O-NO 69 ° 0 min 0 W/m² 5,5 °C 10,1 °C 0,0 km/h (0 Bft)
20.03.2026 20:01 21,9 °C 10,1 °C 47 % 73 % 1019,5 hPa 0,0 l/m² 0,0 km/h (0 Bft) O-NO 69 ° 0 min 0 W/m² 5,5 °C 10,1 °C 0,0 km/h (0 Bft)
20.03.2026 20:02 21,9 °C 10,1 °C 47 % 73 % 1019,5 hPa 0,0 l/m² 0,0 km/h (0 Bft) O-NO 69 ° 0 min 0 W/m² 5,5 °C 10,1 °C 0,0 km/h (0 Bft)
20.03.2026 20:03 21,9 °C 10,1 °C 47 % 72 % 1019,5 hPa 0,0 l/m² 0,0 km/h (0 Bft) O-NO 69 ° 0 min 0 W/m² 5,3 °C 10,1 °C 0,0 km/h (0 Bft)
20.03.2026 20:05 21,9 °C 10,0 °C 47 % 72 % 1019,5 hPa 0,0 l/m² 0,0 km/h (0 Bft) O-NO 69 ° 0 min 0 W/m² 5,2 °C 10,0 °C 0,0 km/h (0 Bft)
20.03.2026 20:07 21,9 °C 10,0 °C 47 % 72 % 1019,5 hPa 0,0 l/m² 0,0 km/h (0 Bft) O-NO 69 ° 0 min 0 W/m² 5,2 °C 10,0 °C 0,0 km/h (0 Bft)
20.03.2026 20:09 21,9 °C 9,9 °C 47 % 73 % 1019,5 hPa 0,0 l/m² 0,0 km/h (0 Bft) O-NO 69 ° 0 min 0 W/m² 5,3 °C 9,9 °C 0,0 km/h (0 Bft)
20.03.2026 20:11 21,9 °C 9,9 °C 47 % 73 % 1019,5 hPa 0,0 l/m² 0,2 km/h (0 Bft) O-NO 69 ° 0 min 0 W/m² 5,3 °C 9,9 °C 1,6 km/h (1 Bft)
20.03.2026 20:12 21,9 °C 9,9 °C 47 % 73 % 1019,5 hPa 0,0 l/m² 0,0 km/h (0 Bft) O-NO 69 ° 0 min 0 W/m² 5,3 °C 9,9 °C 0,0 km/h (0 Bft)
20.03.2026 20:13 21,9 °C 9,8 °C 47 % 73 % 1019,5 hPa 0,0 l/m² 0,0 km/h (0 Bft) O-NO 69 ° 0 min 0 W/m² 5,2 °C 9,8 °C 0,0 km/h (0 Bft)
20.03.2026 20:15 21,9 °C 9,8 °C 47 % 73 % 1019,5 hPa 0,0 l/m² 0,3 km/h (0 Bft) O-NO 69 ° 0 min 0 W/m² 5,2 °C 9,8 °C 1,6 km/h (1 Bft)
20.03.2026 20:17 21,9 °C 9,8 °C 47 % 73 % 1019,5 hPa 0,0 l/m² 0,0 km/h (0 Bft) O-NO 69 ° 0 min 0 W/m² 5,2 °C 9,8 °C 0,0 km/h (0 Bft)
20.03.2026 20:19 21,9 °C 9,7 °C 47 % 73 % 1019,5 hPa 0,0 l/m² 0,5 km/h (0 Bft) O-NO 69 ° 0 min 0 W/m² 5,1 °C 9,7 °C 3,2 km/h (1 Bft)
20.03.2026 20:21 21,9 °C 9,7 °C 47 % 73 % 1019,5 hPa 0,0 l/m² 0,7 km/h (0 Bft) O-NO 69 ° 0 min 0 W/m² 5,1 °C 9,7 °C 3,2 km/h (1 Bft)
20.03.2026 20:22 21,9 °C 9,7 °C 47 % 73 % 1019,5 hPa 0,0 l/m² 1,2 km/h (1 Bft) O-NO 69 ° 0 min 0 W/m² 5,1 °C 9,7 °C 3,2 km/h (1 Bft)
20.03.2026 20:23 21,9 °C 9,7 °C 47 % 73 % 1019,5 hPa 0,0 l/m² 0,3 km/h (0 Bft) O-NO 69 ° 0 min 0 W/m² 5,1 °C 9,7 °C 1,6 km/h (1 Bft)
20.03.2026 20:25 21,9 °C 9,6 °C 47 % 73 % 1019,5 hPa 0,0 l/m² 0,4 km/h (0 Bft) O-NO 69 ° 0 min 0 W/m² 5,0 °C 9,6 °C 1,6 km/h (1 Bft)
20.03.2026 20:27 21,9 °C 9,6 °C 47 % 74 % 1019,5 hPa 0,0 l/m² 0,0 km/h (0 Bft) O-NO 69 ° 0 min 0 W/m² 5,2 °C 9,6 °C 0,0 km/h (0 Bft)
20.03.2026 20:29 21,8 °C 9,6 °C 47 % 74 % 1019,5 hPa 0,0 l/m² 0,0 km/h (0 Bft) O-NO 69 ° 0 min 0 W/m² 5,2 °C 9,6 °C 0,0 km/h (0 Bft)
20.03.2026 20:31 21,9 °C 9,5 °C 47 % 74 % 1019,6 hPa 0,0 l/m² 0,0 km/h (0 Bft) O-NO 69 ° 0 min 0 W/m² 5,1 °C 9,5 °C 0,0 km/h (0 Bft)
20.03.2026 20:32 21,9 °C 9,5 °C 47 % 74 % 1019,6 hPa 0,0 l/m² 0,0 km/h (0 Bft) O-NO 69 ° 0 min 0 W/m² 5,1 °C 9,5 °C 0,0 km/h (0 Bft)
20.03.2026 20:33 21,9 °C 9,5 °C 47 % 74 % 1019,5 hPa 0,0 l/m² 1,1 km/h (1 Bft) O-NO 69 ° 0 min 0 W/m² 5,1 °C 9,5 °C 4,8 km/h (1 Bft)
20.03.2026 20:35 21,9 °C 9,4 °C 47 % 74 % 1019,5 hPa 0,0 l/m² 0,9 km/h (0 Bft) O-NO 57 ° 0 min 0 W/m² 5,0 °C 9,4 °C 6,4 km/h (2 Bft)
20.03.2026 20:37 21,9 °C 9,4 °C 47 % 74 % 1019,6 hPa 0,0 l/m² 2,5 km/h (1 Bft) O-NO 57 ° 0 min 0 W/m² 5,0 °C 9,4 °C 4,8 km/h (1 Bft)
20.03.2026 20:39 21,8 °C 9,4 °C 47 % 74 % 1019,5 hPa 0,0 l/m² 1,2 km/h (1 Bft) O-NO 57 ° 0 min 0 W/m² 5,0 °C 9,4 °C 3,2 km/h (1 Bft)
20.03.2026 20:41 21,8 °C 9,3 °C 47 % 74 % 1019,6 hPa 0,0 l/m² 2,7 km/h (1 Bft) O-NO 57 ° 0 min 0 W/m² 4,9 °C 9,3 °C 6,4 km/h (2 Bft)
20.03.2026 20:42 21,8 °C 9,3 °C 47 % 75 % 1019,6 hPa 0,0 l/m² 0,0 km/h (0 Bft) O-NO 57 ° 0 min 0 W/m² 5,1 °C 9,3 °C 0,0 km/h (0 Bft)
20.03.2026 20:43 21,8 °C 9,3 °C 47 % 75 % 1019,6 hPa 0,0 l/m² 0,7 km/h (0 Bft) O-NO 57 ° 0 min 0 W/m² 5,1 °C 9,3 °C 1,6 km/h (1 Bft)
20.03.2026 20:45 21,9 °C 9,3 °C 47 % 75 % 1019,5 hPa 0,0 l/m² 2,6 km/h (1 Bft) O-NO 58 ° 0 min 0 W/m² 5,1 °C 9,3 °C 4,8 km/h (1 Bft)
20.03.2026 20:47 21,9 °C 9,3 °C 47 % 76 % 1019,6 hPa 0,0 l/m² 2,2 km/h (1 Bft) O-NO 57 ° 0 min 0 W/m² 5,3 °C 9,3 °C 4,8 km/h (1 Bft)
20.03.2026 20:49 21,9 °C 9,2 °C 47 % 76 % 1019,5 hPa 0,0 l/m² 1,9 km/h (1 Bft) O-NO 57 ° 0 min 0 W/m² 5,2 °C 9,2 °C 3,2 km/h (1 Bft)
20.03.2026 20:51 21,8 °C 9,2 °C 47 % 76 % 1019,5 hPa 0,0 l/m² 0,7 km/h (0 Bft) O-NO 57 ° 0 min 0 W/m² 5,2 °C 9,2 °C 3,2 km/h (1 Bft)
20.03.2026 20:52 21,8 °C 9,2 °C 47 % 76 % 1019,5 hPa 0,0 l/m² 0,0 km/h (0 Bft) O-NO 57 ° 0 min 0 W/m² 5,2 °C 9,2 °C 0,0 km/h (0 Bft)
20.03.2026 20:53 21,8 °C 9,2 °C 47 % 76 % 1019,5 hPa 0,0 l/m² 0,0 km/h (0 Bft) O-NO 57 ° 0 min 0 W/m² 5,2 °C 9,2 °C 0,0 km/h (0 Bft)
20.03.2026 20:55 21,8 °C 9,2 °C 47 % 75 % 1019,5 hPa 0,0 l/m² 1,1 km/h (1 Bft) O-NO 57 ° 0 min 0 W/m² 5,0 °C 9,2 °C 3,2 km/h (1 Bft)
20.03.2026 20:57 21,8 °C 9,2 °C 47 % 75 % 1019,6 hPa 0,0 l/m² 1,1 km/h (1 Bft) O-NO 57 ° 0 min 0 W/m² 5,0 °C 9,2 °C 3,2 km/h (1 Bft)
20.03.2026 20:59 21,8 °C 9,1 °C 47 % 75 % 1019,6 hPa 0,0 l/m² 1,5 km/h (1 Bft) O-NO 57 ° 0 min 0 W/m² 4,9 °C 9,1 °C 3,2 km/h (1 Bft)
20.03.2026 21:01 21,8 °C 9,1 °C 47 % 75 % 1019,6 hPa 0,0 l/m² 0,6 km/h (0 Bft) O-NO 57 ° 0 min 0 W/m² 4,9 °C 9,1 °C 3,2 km/h (1 Bft)
20.03.2026 21:02 21,8 °C 9,1 °C 47 % 75 % 1019,6 hPa 0,0 l/m² 0,9 km/h (0 Bft) O-NO 57 ° 0 min 0 W/m² 4,9 °C 9,1 °C 1,6 km/h (1 Bft)
20.03.2026 21:03 21,8 °C 9,1 °C 47 % 75 % 1019,5 hPa 0,0 l/m² 0,9 km/h (0 Bft) O-NO 57 ° 0 min 0 W/m² 4,9 °C 9,1 °C 1,6 km/h (1 Bft)
20.03.2026 21:04 21,8 °C 9,1 °C 47 % 75 % 1019,5 hPa 0,0 l/m² 0,6 km/h (0 Bft) O-NO 57 ° 0 min 0 W/m² 4,9 °C 9,1 °C 1,6 km/h (1 Bft)
20.03.2026 21:05 21,8 °C 9,1 °C 47 % 76 % 1019,5 hPa 0,0 l/m² 0,2 km/h (0 Bft) O-NO 57 ° 0 min 0 W/m² 5,1 °C 9,1 °C 1,6 km/h (1 Bft)
20.03.2026 21:06 21,8 °C 9,1 °C 47 % 76 % 1019,6 hPa 0,0 l/m² 0,3 km/h (0 Bft) O-NO 57 ° 0 min 0 W/m² 5,1 °C 9,1 °C 1,6 km/h (1 Bft)
20.03.2026 21:08 21,8 °C 9,0 °C 47 % 76 % 1019,5 hPa 0,0 l/m² 0,4 km/h (0 Bft) O-NO 57 ° 0 min 0 W/m² 5,0 °C 9,0 °C 1,6 km/h (1 Bft)
20.03.2026 21:09 21,8 °C 9,0 °C 47 % 76 % 1019,5 hPa 0,0 l/m² 0,0 km/h (0 Bft) O-NO 57 ° 0 min 0 W/m² 5,0 °C 9,0 °C 0,0 km/h (0 Bft)
20.03.2026 21:11 21,8 °C 9,0 °C 47 % 76 % 1019,6 hPa 0,0 l/m² 0,3 km/h (0 Bft) O-NO 57 ° 0 min 0 W/m² 5,0 °C 9,0 °C 1,6 km/h (1 Bft)
20.03.2026 21:12 21,8 °C 8,9 °C 47 % 76 % 1019,6 hPa 0,0 l/m² 0,4 km/h (0 Bft) O-NO 57 ° 0 min 0 W/m² 4,9 °C 8,9 °C 1,6 km/h (1 Bft)
20.03.2026 21:13 21,8 °C 8,9 °C 47 % 76 % 1019,6 hPa 0,0 l/m² 0,0 km/h (0 Bft) O-NO 57 ° 0 min 0 W/m² 4,9 °C 8,9 °C 0,0 km/h (0 Bft)
20.03.2026 21:15 21,8 °C 8,9 °C 47 % 76 % 1019,6 hPa 0,0 l/m² 0,7 km/h (0 Bft) O-NO 57 ° 0 min 0 W/m² 4,9 °C 8,9 °C 3,2 km/h (1 Bft)
20.03.2026 21:16 21,8 °C 8,9 °C 47 % 76 % 1019,6 hPa 0,0 l/m² 0,0 km/h (0 Bft) O-NO 57 ° 0 min 0 W/m² 4,9 °C 8,9 °C 0,0 km/h (0 Bft)
20.03.2026 21:17 21,8 °C 8,9 °C 47 % 76 % 1019,6 hPa 0,0 l/m² 0,0 km/h (0 Bft) O-NO 57 ° 0 min 0 W/m² 4,9 °C 8,9 °C 0,0 km/h (0 Bft)
20.03.2026 21:18 21,9 °C 8,9 °C 47 % 76 % 1019,6 hPa 0,0 l/m² 0,0 km/h (0 Bft) O-NO 57 ° 0 min 0 W/m² 4,9 °C 8,9 °C 0,0 km/h (0 Bft)
20.03.2026 21:19 21,9 °C 8,9 °C 47 % 76 % 1019,6 hPa 0,0 l/m² 0,0 km/h (0 Bft) O-NO 57 ° 0 min 0 W/m² 4,9 °C 8,9 °C 0,0 km/h (0 Bft)
20.03.2026 21:21 21,8 °C 8,8 °C 47 % 76 % 1019,6 hPa 0,0 l/m² 1,0 km/h (0 Bft) O-NO 57 ° 0 min 0 W/m² 4,8 °C 8,8 °C 1,6 km/h (1 Bft)
20.03.2026 21:22 21,8 °C 8,8 °C 47 % 76 % 1019,6 hPa 0,0 l/m² 1,7 km/h (1 Bft) O-NO 57 ° 0 min 0 W/m² 4,8 °C 8,8 °C 3,2 km/h (1 Bft)
20.03.2026 21:23 21,9 °C 8,8 °C 47 % 76 % 1019,6 hPa 0,0 l/m² 1,6 km/h (1 Bft) O-NO 57 ° 0 min 0 W/m² 4,8 °C 8,8 °C 3,2 km/h (1 Bft)
20.03.2026 21:24 21,8 °C 8,8 °C 47 % 77 % 1019,5 hPa 0,0 l/m² 1,7 km/h (1 Bft) O-NO 57 ° 0 min 0 W/m² 5,0 °C 8,8 °C 3,2 km/h (1 Bft)
20.03.2026 21:25 21,9 °C 8,8 °C 47 % 77 % 1019,7 hPa 0,0 l/m² 1,8 km/h (1 Bft) O-NO 57 ° 0 min 0 W/m² 5,0 °C 8,8 °C 3,2 km/h (1 Bft)
20.03.2026 21:26 21,8 °C 8,8 °C 47 % 76 % 1019,6 hPa 0,0 l/m² 2,2 km/h (1 Bft) O-NO 57 ° 0 min 0 W/m² 4,8 °C 8,8 °C 3,2 km/h (1 Bft)
20.03.2026 21:27 21,8 °C 8,8 °C 47 % 76 % 1019,5 hPa 0,0 l/m² 1,8 km/h (1 Bft) O-NO 57 ° 0 min 0 W/m² 4,8 °C 8,8 °C 3,2 km/h (1 Bft)
20.03.2026 21:28 21,9 °C 8,8 °C 47 % 76 % 1019,6 hPa 0,0 l/m² 1,6 km/h (1 Bft) O-NO 57 ° 0 min 0 W/m² 4,8 °C 8,8 °C 3,2 km/h (1 Bft)
20.03.2026 21:29 21,9 °C 8,8 °C 47 % 76 % 1019,6 hPa 0,0 l/m² 0,6 km/h (0 Bft) O-NO 57 ° 0 min 0 W/m² 4,8 °C 8,8 °C 3,2 km/h (1 Bft)
20.03.2026 21:31 21,8 °C 8,7 °C 47 % 76 % 1019,6 hPa 0,0 l/m² 0,0 km/h (0 Bft) O-NO 57 ° 0 min 0 W/m² 4,7 °C 8,7 °C 0,0 km/h (0 Bft)
20.03.2026 21:32 21,9 °C 8,7 °C 47 % 76 % 1019,6 hPa 0,0 l/m² 0,0 km/h (0 Bft) O-NO 57 ° 0 min 0 W/m² 4,7 °C 8,7 °C 0,0 km/h (0 Bft)
20.03.2026 21:33 21,9 °C 8,7 °C 47 % 76 % 1019,6 hPa 0,0 l/m² 0,0 km/h (0 Bft) O-NO 57 ° 0 min 0 W/m² 4,7 °C 8,7 °C 0,0 km/h (0 Bft)
20.03.2026 21:35 21,9 °C 8,7 °C 47 % 76 % 1019,6 hPa 0,0 l/m² 0,1 km/h (0 Bft) O-NO 57 ° 0 min 0 W/m² 4,7 °C 8,7 °C 1,6 km/h (1 Bft)
20.03.2026 21:36 21,8 °C 8,7 °C 47 % 76 % 1019,6 hPa 0,0 l/m² 0,0 km/h (0 Bft) O-NO 57 ° 0 min 0 W/m² 4,7 °C 8,7 °C 0,0 km/h (0 Bft)
20.03.2026 21:37 21,9 °C 8,7 °C 47 % 76 % 1019,7 hPa 0,0 l/m² 0,0 km/h (0 Bft) O-NO 57 ° 0 min 0 W/m² 4,7 °C 8,7 °C 0,0 km/h (0 Bft)
20.03.2026 21:38 21,8 °C 8,7 °C 47 % 76 % 1019,6 hPa 0,0 l/m² 0,0 km/h (0 Bft) O-NO 57 ° 0 min 0 W/m² 4,7 °C 8,7 °C 0,0 km/h (0 Bft)
20.03.2026 21:39 21,9 °C 8,7 °C 47 % 76 % 1019,6 hPa 0,0 l/m² 0,1 km/h (0 Bft) O-NO 57 ° 0 min 0 W/m² 4,7 °C 8,7 °C 1,6 km/h (1 Bft)
20.03.2026 21:41 21,9 °C 8,7 °C 47 % 76 % 1019,6 hPa 0,0 l/m² 0,0 km/h (0 Bft) O-NO 57 ° 0 min 0 W/m² 4,7 °C 8,7 °C 1,6 km/h (1 Bft)
20.03.2026 21:42 21,8 °C 8,6 °C 47 % 76 % 1019,6 hPa 0,0 l/m² 0,7 km/h (0 Bft) O-NO 57 ° 0 min 0 W/m² 4,6 °C 8,6 °C 1,6 km/h (1 Bft)
20.03.2026 21:43 21,8 °C 8,6 °C 47 % 76 % 1019,6 hPa 0,0 l/m² 0,2 km/h (0 Bft) O-NO 57 ° 0 min 0 W/m² 4,6 °C 8,6 °C 1,6 km/h (1 Bft)
20.03.2026 21:46 21,9 °C 8,6 °C 47 % 77 % 1019,6 hPa 0,0 l/m² 0,0 km/h (0 Bft) O-NO 57 ° 0 min 0 W/m² 4,8 °C 8,6 °C 0,0 km/h (0 Bft)
20.03.2026 21:47 21,8 °C 8,6 °C 47 % 77 % 1019,5 hPa 0,0 l/m² 0,0 km/h (0 Bft) O-NO 57 ° 0 min 0 W/m² 4,8 °C 8,6 °C 0,0 km/h (0 Bft)
20.03.2026 21:48 21,9 °C 8,6 °C 47 % 77 % 1019,5 hPa 0,0 l/m² 0,0 km/h (0 Bft) O-NO 57 ° 0 min 0 W/m² 4,8 °C 8,6 °C 0,0 km/h (0 Bft)
20.03.2026 21:49 21,9 °C 8,6 °C 47 % 77 % 1019,6 hPa 0,0 l/m² 0,0 km/h (0 Bft) O-NO 57 ° 0 min 0 W/m² 4,8 °C 8,6 °C 0,0 km/h (0 Bft)
20.03.2026 21:51 21,9 °C 8,6 °C 47 % 77 % 1019,5 hPa 0,0 l/m² 0,0 km/h (0 Bft) O-NO 57 ° 0 min 0 W/m² 4,8 °C 8,6 °C 0,0 km/h (0 Bft)
20.03.2026 21:52 21,9 °C 8,6 °C 47 % 77 % 1019,6 hPa 0,0 l/m² 0,0 km/h (0 Bft) O-NO 57 ° 0 min 0 W/m² 4,8 °C 8,6 °C 0,0 km/h (0 Bft)
20.03.2026 21:53 21,9 °C 8,6 °C 47 % 77 % 1019,6 hPa 0,0 l/m² 0,0 km/h (0 Bft) O-NO 57 ° 0 min 0 W/m² 4,8 °C 8,6 °C 0,0 km/h (0 Bft)
20.03.2026 21:55 21,9 °C 8,5 °C 47 % 77 % 1019,6 hPa 0,0 l/m² 0,0 km/h (0 Bft) O-NO 57 ° 0 min 0 W/m² 4,7 °C 8,5 °C 0,0 km/h (0 Bft)
20.03.2026 21:56 21,9 °C 8,5 °C 47 % 77 % 1019,6 hPa 0,0 l/m² 0,0 km/h (0 Bft) O-NO 57 ° 0 min 0 W/m² 4,7 °C 8,5 °C 0,0 km/h (0 Bft)
20.03.2026 21:57 21,9 °C 8,5 °C 47 % 77 % 1019,5 hPa 0,0 l/m² 0,0 km/h (0 Bft) O-NO 57 ° 0 min 0 W/m² 4,7 °C 8,5 °C 0,0 km/h (0 Bft)
20.03.2026 21:58 21,9 °C 8,5 °C 47 % 77 % 1019,5 hPa 0,0 l/m² 0,0 km/h (0 Bft) O-NO 57 ° 0 min 0 W/m² 4,7 °C 8,5 °C 0,0 km/h (0 Bft)
20.03.2026 21:59 21,9 °C 8,5 °C 47 % 77 % 1019,5 hPa 0,0 l/m² 0,0 km/h (0 Bft) O-NO 57 ° 0 min 0 W/m² 4,7 °C 8,5 °C 0,0 km/h (0 Bft)
20.03.2026 22:01 21,9 °C 8,5 °C 47 % 77 % 1019,5 hPa 0,0 l/m² 0,0 km/h (0 Bft) O-NO 57 ° 0 min 0 W/m² 4,7 °C 8,5 °C 0,0 km/h (0 Bft)
20.03.2026 22:02 21,9 °C 8,4 °C 47 % 77 % 1019,5 hPa 0,0 l/m² 0,0 km/h (0 Bft) O-NO 57 ° 0 min 0 W/m² 4,6 °C 8,4 °C 0,0 km/h (0 Bft)
20.03.2026 22:03 21,9 °C 8,4 °C 47 % 78 % 1019,5 hPa 0,0 l/m² 0,0 km/h (0 Bft) O-NO 57 ° 0 min 0 W/m² 4,8 °C 8,4 °C 0,0 km/h (0 Bft)
20.03.2026 22:05 21,9 °C 8,4 °C 47 % 78 % 1019,5 hPa 0,0 l/m² 0,0 km/h (0 Bft) O-NO 57 ° 0 min 0 W/m² 4,8 °C 8,4 °C 0,0 km/h (0 Bft)
20.03.2026 22:06 21,9 °C 8,4 °C 47 % 78 % 1019,5 hPa 0,0 l/m² 0,0 km/h (0 Bft) O-NO 57 ° 0 min 0 W/m² 4,8 °C 8,4 °C 0,0 km/h (0 Bft)
20.03.2026 22:07 21,9 °C 8,4 °C 47 % 78 % 1019,5 hPa 0,0 l/m² 0,0 km/h (0 Bft) O-NO 57 ° 0 min 0 W/m² 4,8 °C 8,4 °C 0,0 km/h (0 Bft)
20.03.2026 22:08 21,9 °C 8,4 °C 47 % 78 % 1019,5 hPa 0,0 l/m² 0,0 km/h (0 Bft) O-NO 57 ° 0 min 0 W/m² 4,8 °C 8,4 °C 0,0 km/h (0 Bft)
20.03.2026 22:09 21,9 °C 8,4 °C 47 % 78 % 1019,5 hPa 0,0 l/m² 0,0 km/h (0 Bft) O-NO 57 ° 0 min 0 W/m² 4,8 °C 8,4 °C 0,0 km/h (0 Bft)
20.03.2026 22:11 21,9 °C 8,4 °C 47 % 78 % 1019,6 hPa 0,0 l/m² 0,0 km/h (0 Bft) O-NO 57 ° 0 min 0 W/m² 4,8 °C 8,4 °C 0,0 km/h (0 Bft)
20.03.2026 22:12 21,9 °C 8,3 °C 47 % 78 % 1019,5 hPa 0,0 l/m² 0,0 km/h (0 Bft) O-NO 57 ° 0 min 0 W/m² 4,7 °C 8,3 °C 0,0 km/h (0 Bft)
20.03.2026 22:13 21,9 °C 8,3 °C 47 % 78 % 1019,5 hPa 0,0 l/m² 0,0 km/h (0 Bft) O-NO 57 ° 0 min 0 W/m² 4,7 °C 8,3 °C 0,0 km/h (0 Bft)
20.03.2026 22:15 21,9 °C 8,3 °C 47 % 78 % 1019,5 hPa 0,0 l/m² 0,0 km/h (0 Bft) O-NO 57 ° 0 min 0 W/m² 4,7 °C 8,3 °C 0,0 km/h (0 Bft)
20.03.2026 22:16 21,9 °C 8,3 °C 47 % 78 % 1019,5 hPa 0,0 l/m² 0,0 km/h (0 Bft) O-NO 57 ° 0 min 0 W/m² 4,7 °C 8,3 °C 0,0 km/h (0 Bft)
20.03.2026 22:17 21,9 °C 8,3 °C 47 % 78 % 1019,5 hPa 0,0 l/m² 0,0 km/h (0 Bft) O-NO 57 ° 0 min 0 W/m² 4,7 °C 8,3 °C 0,0 km/h (0 Bft)
20.03.2026 22:18 21,9 °C 8,3 °C 47 % 78 % 1019,5 hPa 0,0 l/m² 0,0 km/h (0 Bft) O-NO 57 ° 0 min 0 W/m² 4,7 °C 8,3 °C 0,0 km/h (0 Bft)
20.03.2026 22:19 21,9 °C 8,3 °C 47 % 78 % 1019,5 hPa 0,0 l/m² 0,0 km/h (0 Bft) O-NO 57 ° 0 min 0 W/m² 4,7 °C 8,3 °C 0,0 km/h (0 Bft)
20.03.2026 22:21 21,9 °C 8,3 °C 47 % 78 % 1019,5 hPa 0,0 l/m² 0,0 km/h (0 Bft) O-NO 57 ° 0 min 0 W/m² 4,7 °C 8,3 °C 0,0 km/h (0 Bft)
20.03.2026 22:22 21,9 °C 8,2 °C 47 % 79 % 1019,5 hPa 0,0 l/m² 0,0 km/h (0 Bft) O-NO 57 ° 0 min 0 W/m² 4,8 °C 8,2 °C 0,0 km/h (0 Bft)
20.03.2026 22:23 21,9 °C 8,2 °C 47 % 79 % 1019,5 hPa 0,0 l/m² 0,0 km/h (0 Bft) O-NO 57 ° 0 min 0 W/m² 4,8 °C 8,2 °C 0,0 km/h (0 Bft)
20.03.2026 22:25 21,8 °C 8,2 °C 47 % 79 % 1019,6 hPa 0,0 l/m² 0,0 km/h (0 Bft) O-NO 57 ° 0 min 0 W/m² 4,8 °C 8,2 °C 0,0 km/h (0 Bft)
20.03.2026 22:26 21,9 °C 8,2 °C 47 % 79 % 1019,5 hPa 0,0 l/m² 0,0 km/h (0 Bft) O-NO 57 ° 0 min 0 W/m² 4,8 °C 8,2 °C 0,0 km/h (0 Bft)
20.03.2026 22:27 21,9 °C 8,2 °C 47 % 79 % 1019,5 hPa 0,0 l/m² 0,0 km/h (0 Bft) O-NO 57 ° 0 min 0 W/m² 4,8 °C 8,2 °C 0,0 km/h (0 Bft)
20.03.2026 22:28 21,9 °C 8,2 °C 47 % 79 % 1019,5 hPa 0,0 l/m² 0,0 km/h (0 Bft) O-NO 57 ° 0 min 0 W/m² 4,8 °C 8,2 °C 0,0 km/h (0 Bft)
20.03.2026 22:29 21,9 °C 8,2 °C 47 % 80 % 1019,4 hPa 0,0 l/m² 0,0 km/h (0 Bft) O-NO 57 ° 0 min 0 W/m² 5,0 °C 8,2 °C 0,0 km/h (0 Bft)
20.03.2026 22:31 21,9 °C 8,1 °C 47 % 80 % 1019,5 hPa 0,0 l/m² 0,0 km/h (0 Bft) O-NO 57 ° 0 min 0 W/m² 4,9 °C 8,1 °C 0,0 km/h (0 Bft)
20.03.2026 22:32 21,9 °C 8,1 °C 47 % 80 % 1019,4 hPa 0,0 l/m² 0,0 km/h (0 Bft) O-NO 57 ° 0 min 0 W/m² 4,9 °C 8,1 °C 0,0 km/h (0 Bft)
20.03.2026 22:33 21,9 °C 8,2 °C 47 % 80 % 1019,4 hPa 0,0 l/m² 0,0 km/h (0 Bft) O-NO 57 ° 0 min 0 W/m² 5,0 °C 8,2 °C 0,0 km/h (0 Bft)
20.03.2026 22:35 21,9 °C 8,1 °C 47 % 80 % 1019,5 hPa 0,0 l/m² 0,0 km/h (0 Bft) O-NO 57 ° 0 min 0 W/m² 4,9 °C 8,1 °C 0,0 km/h (0 Bft)
20.03.2026 22:36 21,9 °C 8,1 °C 47 % 80 % 1019,5 hPa 0,0 l/m² 0,0 km/h (0 Bft) O-NO 57 ° 0 min 0 W/m² 4,9 °C 8,1 °C 0,0 km/h (0 Bft)
20.03.2026 22:37 21,8 °C 8,1 °C 47 % 80 % 1019,5 hPa 0,0 l/m² 0,0 km/h (0 Bft) O-NO 57 ° 0 min 0 W/m² 4,9 °C 8,1 °C 0,0 km/h (0 Bft)
20.03.2026 22:38 21,9 °C 8,1 °C 47 % 80 % 1019,5 hPa 0,0 l/m² 0,0 km/h (0 Bft) O-NO 57 ° 0 min 0 W/m² 4,9 °C 8,1 °C 0,0 km/h (0 Bft)
20.03.2026 22:39 21,8 °C 8,0 °C 47 % 80 % 1019,5 hPa 0,0 l/m² 0,0 km/h (0 Bft) O-NO 57 ° 0 min 0 W/m² 4,8 °C 8,0 °C 0,0 km/h (0 Bft)
20.03.2026 22:41 21,8 °C 8,0 °C 47 % 80 % 1019,5 hPa 0,0 l/m² 0,0 km/h (0 Bft) O-NO 57 ° 0 min 0 W/m² 4,8 °C 8,0 °C 1,6 km/h (1 Bft)
20.03.2026 22:42 21,9 °C 8,0 °C 47 % 80 % 1019,5 hPa 0,0 l/m² 2,5 km/h (1 Bft) O-NO 57 ° 0 min 0 W/m² 4,8 °C 8,0 °C 4,8 km/h (1 Bft)
20.03.2026 22:43 21,9 °C 8,0 °C 47 % 80 % 1019,5 hPa 0,0 l/m² 0,7 km/h (0 Bft) O-NO 57 ° 0 min 0 W/m² 4,8 °C 8,0 °C 3,2 km/h (1 Bft)
20.03.2026 22:45 21,8 °C 7,9 °C 47 % 80 % 1019,4 hPa 0,0 l/m² 0,1 km/h (0 Bft) O-NO 57 ° 0 min 0 W/m² 4,7 °C 7,9 °C 1,6 km/h (1 Bft)
20.03.2026 22:46 21,8 °C 7,9 °C 47 % 80 % 1019,4 hPa 0,0 l/m² 0,8 km/h (0 Bft) O-NO 57 ° 0 min 0 W/m² 4,7 °C 7,9 °C 3,2 km/h (1 Bft)
20.03.2026 22:47 21,9 °C 7,9 °C 47 % 80 % 1019,4 hPa 0,0 l/m² 2,2 km/h (1 Bft) O-NO 57 ° 0 min 0 W/m² 4,7 °C 7,9 °C 4,8 km/h (1 Bft)
20.03.2026 22:48 21,9 °C 7,9 °C 47 % 80 % 1019,4 hPa 0,0 l/m² 0,9 km/h (0 Bft) O-NO 57 ° 0 min 0 W/m² 4,7 °C 7,9 °C 3,2 km/h (1 Bft)
20.03.2026 22:49 21,8 °C 7,9 °C 47 % 80 % 1019,4 hPa 0,0 l/m² 0,0 km/h (0 Bft) O-NO 57 ° 0 min 0 W/m² 4,7 °C 7,9 °C 0,0 km/h (0 Bft)
20.03.2026 22:51 21,8 °C 7,9 °C 47 % 80 % 1019,4 hPa 0,0 l/m² 0,0 km/h (0 Bft) O-NO 57 ° 0 min 0 W/m² 4,7 °C 7,9 °C 0,0 km/h (0 Bft)
20.03.2026 22:52 21,8 °C 7,8 °C 47 % 80 % 1019,4 hPa 0,0 l/m² 0,0 km/h (0 Bft) O-NO 57 ° 0 min 0 W/m² 4,6 °C 7,8 °C 0,0 km/h (0 Bft)
20.03.2026 22:53 21,8 °C 7,9 °C 47 % 80 % 1019,4 hPa 0,0 l/m² 0,0 km/h (0 Bft) O-NO 57 ° 0 min 0 W/m² 4,7 °C 7,9 °C 0,0 km/h (0 Bft)
20.03.2026 22:55 21,8 °C 7,8 °C 47 % 80 % 1019,4 hPa 0,0 l/m² 0,0 km/h (0 Bft) O-NO 57 ° 0 min 0 W/m² 4,6 °C 7,8 °C 0,0 km/h (0 Bft)
20.03.2026 22:56 21,9 °C 7,8 °C 47 % 80 % 1019,4 hPa 0,0 l/m² 0,0 km/h (0 Bft) O-NO 57 ° 0 min 0 W/m² 4,6 °C 7,8 °C 0,0 km/h (0 Bft)
20.03.2026 22:57 21,8 °C 7,8 °C 47 % 80 % 1019,4 hPa 0,0 l/m² 0,0 km/h (0 Bft) O-NO 57 ° 0 min 0 W/m² 4,6 °C 7,8 °C 0,0 km/h (0 Bft)
20.03.2026 22:58 21,9 °C 7,8 °C 47 % 80 % 1019,4 hPa 0,0 l/m² 0,0 km/h (0 Bft) O-NO 57 ° 0 min 0 W/m² 4,6 °C 7,8 °C 0,0 km/h (0 Bft)
20.03.2026 22:59 21,8 °C 7,8 °C 47 % 80 % 1019,4 hPa 0,0 l/m² 0,0 km/h (0 Bft) O-NO 57 ° 0 min 0 W/m² 4,6 °C 7,8 °C 0,0 km/h (0 Bft)
20.03.2026 23:01 21,9 °C 7,8 °C 47 % 80 % 1019,4 hPa 0,0 l/m² 0,1 km/h (0 Bft) O-NO 57 ° 0 min 0 W/m² 4,6 °C 7,8 °C 1,6 km/h (1 Bft)
20.03.2026 23:02 21,8 °C 7,8 °C 47 % 80 % 1019,5 hPa 0,0 l/m² 0,3 km/h (0 Bft) O 86 ° 0 min 0 W/m² 4,6 °C 7,8 °C 1,6 km/h (1 Bft)
20.03.2026 23:03 21,8 °C 7,8 °C 47 % 81 % 1019,5 hPa 0,0 l/m² 2,9 km/h (1 Bft) O-SO 114 ° 0 min 0 W/m² 4,7 °C 7,8 °C 3,2 km/h (1 Bft)
20.03.2026 23:05 21,8 °C 7,7 °C 47 % 81 % 1019,4 hPa 0,0 l/m² 0,9 km/h (0 Bft) O-SO 123 ° 0 min 0 W/m² 4,7 °C 7,7 °C 3,2 km/h (1 Bft)
20.03.2026 23:06 21,9 °C 7,7 °C 47 % 81 % 1019,4 hPa 0,0 l/m² 0,0 km/h (0 Bft) O-SO 123 ° 0 min 0 W/m² 4,7 °C 7,7 °C 0,0 km/h (0 Bft)
20.03.2026 23:08 21,8 °C 7,7 °C 47 % 81 % 1019,5 hPa 0,0 l/m² 0,0 km/h (0 Bft) O-SO 123 ° 0 min 0 W/m² 4,7 °C 7,7 °C 1,6 km/h (1 Bft)
20.03.2026 23:09 21,8 °C 7,7 °C 47 % 81 % 1019,5 hPa 0,0 l/m² 0,0 km/h (0 Bft) O-SO 123 ° 0 min 0 W/m² 4,7 °C 7,7 °C 0,0 km/h (0 Bft)
20.03.2026 23:11 21,8 °C 7,7 °C 47 % 81 % 1019,4 hPa 0,0 l/m² 0,1 km/h (0 Bft) O-SO 122 ° 0 min 0 W/m² 4,7 °C 7,7 °C 1,6 km/h (1 Bft)
20.03.2026 23:12 21,8 °C 7,7 °C 47 % 81 % 1019,4 hPa 0,0 l/m² 0,0 km/h (0 Bft) O-SO 122 ° 0 min 0 W/m² 4,7 °C 7,7 °C 0,0 km/h (0 Bft)
20.03.2026 23:13 21,8 °C 7,7 °C 47 % 81 % 1019,4 hPa 0,0 l/m² 0,1 km/h (0 Bft) O-SO 122 ° 0 min 0 W/m² 4,7 °C 7,7 °C 1,6 km/h (1 Bft)
20.03.2026 23:15 21,8 °C 7,6 °C 47 % 81 % 1019,4 hPa 0,0 l/m² 0,0 km/h (0 Bft) O-SO 122 ° 0 min 0 W/m² 4,6 °C 7,6 °C 0,0 km/h (0 Bft)
20.03.2026 23:16 21,8 °C 7,6 °C 47 % 81 % 1019,4 hPa 0,0 l/m² 0,0 km/h (0 Bft) N 0 ° 0 min 0 W/m² 4,6 °C 7,6 °C 0,0 km/h (0 Bft)
20.03.2026 23:17 21,8 °C 7,6 °C 47 % 81 % 1019,4 hPa 0,0 l/m² 0,0 km/h (0 Bft) N 0 ° 0 min 0 W/m² 4,6 °C 7,6 °C 0,0 km/h (0 Bft)
20.03.2026 23:22 21,8 °C 7,5 °C 47 % 81 % 1019,4 hPa 0,0 l/m² 0,0 km/h (0 Bft) O-SO 121 ° 0 min 0 W/m² 4,5 °C 7,5 °C 0,0 km/h (0 Bft)
20.03.2026 23:24 21,8 °C 7,5 °C 47 % 81 % 1019,4 hPa 0,0 l/m² 0,0 km/h (0 Bft) O-SO 121 ° 0 min 0 W/m² 4,5 °C 7,5 °C 0,0 km/h (0 Bft)
20.03.2026 23:25 21,8 °C 7,4 °C 47 % 81 % 1019,4 hPa 0,0 l/m² 0,0 km/h (0 Bft) O-SO 121 ° 0 min 0 W/m² 4,4 °C 7,4 °C 0,0 km/h (0 Bft)
20.03.2026 23:27 21,8 °C 7,4 °C 47 % 81 % 1019,3 hPa 0,0 l/m² 0,0 km/h (0 Bft) O-SO 121 ° 0 min 0 W/m² 4,4 °C 7,4 °C 0,0 km/h (0 Bft)
20.03.2026 23:29 21,8 °C 7,4 °C 47 % 81 % 1019,3 hPa 0,0 l/m² 0,0 km/h (0 Bft) O-SO 121 ° 0 min 0 W/m² 4,4 °C 7,4 °C 0,0 km/h (0 Bft)
20.03.2026 23:30 21,8 °C 7,4 °C 47 % 81 % 1019,3 hPa 0,0 l/m² 0,0 km/h (0 Bft) O-SO 121 ° 0 min 0 W/m² 4,4 °C 7,4 °C 0,0 km/h (0 Bft)
20.03.2026 23:31 21,8 °C 7,3 °C 47 % 81 % 1019,4 hPa 0,0 l/m² 0,0 km/h (0 Bft) O-SO 121 ° 0 min 0 W/m² 4,3 °C 7,3 °C 0,0 km/h (0 Bft)
20.03.2026 23:32 21,8 °C 7,3 °C 47 % 81 % 1019,4 hPa 0,0 l/m² 0,0 km/h (0 Bft) O-SO 121 ° 0 min 0 W/m² 4,3 °C 7,3 °C 0,0 km/h (0 Bft)
20.03.2026 23:34 21,8 °C 7,3 °C 47 % 81 % 1019,3 hPa 0,0 l/m² 0,6 km/h (0 Bft) O-SO 117 ° 0 min 0 W/m² 4,3 °C 7,3 °C 3,2 km/h (1 Bft)
20.03.2026 23:36 21,8 °C 7,3 °C 47 % 81 % 1019,3 hPa 0,0 l/m² 0,1 km/h (0 Bft) O-SO 117 ° 0 min 0 W/m² 4,3 °C 7,3 °C 1,6 km/h (1 Bft)
20.03.2026 23:38 21,8 °C 7,2 °C 47 % 81 % 1019,3 hPa 0,0 l/m² 0,0 km/h (0 Bft) O-SO 117 ° 0 min 0 W/m² 4,2 °C 7,2 °C 0,0 km/h (0 Bft)
20.03.2026 23:40 21,8 °C 7,2 °C 47 % 80 % 1019,3 hPa 0,0 l/m² 0,0 km/h (0 Bft) O-SO 117 ° 0 min 0 W/m² 4,0 °C 7,2 °C 0,0 km/h (0 Bft)
20.03.2026 23:41 21,8 °C 7,2 °C 47 % 80 % 1019,2 hPa 0,0 l/m² 0,0 km/h (0 Bft) O-SO 117 ° 0 min 0 W/m² 4,0 °C 7,2 °C 0,0 km/h (0 Bft)
20.03.2026 23:42 21,8 °C 7,1 °C 47 % 80 % 1019,2 hPa 0,0 l/m² 0,0 km/h (0 Bft) O-SO 117 ° 0 min 0 W/m² 3,9 °C 7,1 °C 0,0 km/h (0 Bft)
20.03.2026 23:44 21,8 °C 7,1 °C 47 % 81 % 1019,3 hPa 0,0 l/m² 0,0 km/h (0 Bft) O-SO 117 ° 0 min 0 W/m² 4,1 °C 7,1 °C 0,0 km/h (0 Bft)
20.03.2026 23:46 21,8 °C 7,1 °C 47 % 81 % 1019,2 hPa 0,0 l/m² 0,0 km/h (0 Bft) O-SO 117 ° 0 min 0 W/m² 4,1 °C 7,1 °C 0,0 km/h (0 Bft)
20.03.2026 23:48 21,8 °C 7,1 °C 47 % 81 % 1019,3 hPa 0,0 l/m² 0,0 km/h (0 Bft) O-SO 117 ° 0 min 0 W/m² 4,1 °C 7,1 °C 0,0 km/h (0 Bft)
20.03.2026 23:50 21,8 °C 7,0 °C 47 % 81 % 1019,3 hPa 0,0 l/m² 0,0 km/h (0 Bft) O-SO 117 ° 0 min 0 W/m² 4,0 °C 7,0 °C 0,0 km/h (0 Bft)
20.03.2026 23:51 21,8 °C 7,0 °C 47 % 81 % 1019,3 hPa 0,0 l/m² 0,0 km/h (0 Bft) O-SO 115 ° 0 min 0 W/m² 4,0 °C 7,0 °C 0,0 km/h (0 Bft)
20.03.2026 23:52 21,8 °C 7,0 °C 47 % 81 % 1019,3 hPa 0,0 l/m² 2,8 km/h (1 Bft) NO 53 ° 0 min 0 W/m² 4,0 °C 7,0 °C 4,8 km/h (1 Bft)
20.03.2026 23:54 21,8 °C 6,9 °C 47 % 81 % 1019,3 hPa 0,0 l/m² 0,1 km/h (0 Bft) NO 53 ° 0 min 0 W/m² 3,9 °C 6,9 °C 1,6 km/h (1 Bft)
20.03.2026 23:56 21,8 °C 6,9 °C 47 % 81 % 1019,4 hPa 0,0 l/m² 0,1 km/h (0 Bft) NO 53 ° 0 min 0 W/m² 3,9 °C 6,9 °C 1,6 km/h (1 Bft)
20.03.2026 23:58 21,8 °C 6,9 °C 47 % 81 % 1019,4 hPa 0,0 l/m² 0,0 km/h (0 Bft) NO 53 ° 0 min 0 W/m² 3,9 °C 6,9 °C 0,0 km/h (0 Bft)
_ Min-Zeit 23:58 05:38 16:07 16:43 16:39 - 23:58 - - - - 05:26 05:38 23:58
Minimum _ 21,8 °C -0,6 °C 45 % 46 % 1018,8 hPa - 0,0 km/h (0 Bft) - - - - -2,1 °C -0,6 °C 0,0 km/h (0 Bft)
_ Max-Zeit 15:49 16:21 05:14 08:49 01:18 23:58 16:22 - - 12:06 12:49 14:26 16:15 16:35
Maximum _ 22,4 °C 16,1 °C 49 % 93 % 1022,5 hPa 0,0 l/m² 15,8 km/h
N (3 Bft)
- - 6 min 844 W/m² 7,5 °C 16,0 °C 20,9 km/h
N-NW (4 Bft)
Durchschnitt _ 22,1 °C 7,3 °C 47 % 76 % 1020,5 hPa #0,0 l/m² 2,2 km/h (1 Bft) W-NW - #10:14 h 126 W/m² 3,0 °C 7,1 °C 4,0 km/h (1 Bft)
© 2009 Mathias Hoßbach